<?xml version="1.0" encoding="UTF-8" standalone="no" ?>
<gpx xmlns="http://www.topografix.com/GPX/1/1" xmlns:xsi="http://www.w3.org/2001/XMLSchema-instance" xsi:schemaLocation="http://www.topografix.com/GPX/1/1 http://www.topografix.com/GPX/1/1/gpx.xsd" version="1.1" creator="VisuGPX - https://www.visugpx.com">
  <metadata>
    <name>VVF 2021 - 47 km</name>
  </metadata>
  <trk>
    <name><![CDATA[13042883-GPX VVF - 47 km]]></name>
    <trkseg>
      <trkpt lat="45.07099" lon="5.55125">
        <ele>1026</ele>
        <time>2021-05-18T09:02:49Z</time>
      </trkpt>
      <trkpt lat="45.07084" lon="5.55157">
        <ele>1028</ele>
        <time>2021-05-18T09:02:54Z</time>
      </trkpt>
      <trkpt lat="45.07079" lon="5.55161">
        <ele>1028</ele>
        <time>2021-05-18T09:02:55Z</time>
      </trkpt>
      <trkpt lat="45.07072" lon="5.55189">
        <ele>1029</ele>
        <time>2021-05-18T09:02:59Z</time>
      </trkpt>
      <trkpt lat="45.07064" lon="5.55186">
        <ele>1029</ele>
        <time>2021-05-18T09:03:00Z</time>
      </trkpt>
      <trkpt lat="45.07057" lon="5.5518">
        <ele>1029</ele>
        <time>2021-05-18T09:03:02Z</time>
      </trkpt>
      <trkpt lat="45.07054" lon="5.55172">
        <ele>1029</ele>
        <time>2021-05-18T09:03:03Z</time>
      </trkpt>
      <trkpt lat="45.07037" lon="5.5516">
        <ele>1029</ele>
        <time>2021-05-18T09:03:06Z</time>
      </trkpt>
      <trkpt lat="45.07017" lon="5.55311">
        <ele>1033</ele>
        <time>2021-05-18T09:03:25Z</time>
      </trkpt>
      <trkpt lat="45.06994" lon="5.55304">
        <ele>1032</ele>
        <time>2021-05-18T09:03:30Z</time>
      </trkpt>
      <trkpt lat="45.06989" lon="5.55298">
        <ele>1032</ele>
        <time>2021-05-18T09:03:31Z</time>
      </trkpt>
      <trkpt lat="45.06984" lon="5.55291">
        <ele>1031</ele>
        <time>2021-05-18T09:03:32Z</time>
      </trkpt>
      <trkpt lat="45.06982" lon="5.55308">
        <ele>1030</ele>
        <time>2021-05-18T09:03:34Z</time>
      </trkpt>
      <trkpt lat="45.0698" lon="5.55332">
        <ele>1030</ele>
        <time>2021-05-18T09:03:37Z</time>
      </trkpt>
      <trkpt lat="45.06976" lon="5.55352">
        <ele>1029</ele>
        <time>2021-05-18T09:03:40Z</time>
      </trkpt>
      <trkpt lat="45.06958" lon="5.55374">
        <ele>1027</ele>
        <time>2021-05-18T09:03:44Z</time>
      </trkpt>
      <trkpt lat="45.06943" lon="5.55388">
        <ele>1025</ele>
        <time>2021-05-18T09:03:47Z</time>
      </trkpt>
      <trkpt lat="45.06854" lon="5.55346">
        <ele>1013</ele>
        <time>2021-05-18T09:04:04Z</time>
      </trkpt>
      <trkpt lat="45.06857" lon="5.55329">
        <ele>1012</ele>
        <time>2021-05-18T09:04:06Z</time>
      </trkpt>
      <trkpt lat="45.06868" lon="5.55294">
        <ele>1013</ele>
        <time>2021-05-18T09:04:11Z</time>
      </trkpt>
      <trkpt lat="45.06868" lon="5.55248">
        <ele>1012</ele>
        <time>2021-05-18T09:04:17Z</time>
      </trkpt>
      <trkpt lat="45.0687" lon="5.55207">
        <ele>1011</ele>
        <time>2021-05-18T09:04:22Z</time>
      </trkpt>
      <trkpt lat="45.06868" lon="5.55203">
        <ele>1011</ele>
        <time>2021-05-18T09:04:22Z</time>
      </trkpt>
      <trkpt lat="45.06844" lon="5.55279">
        <ele>1010</ele>
        <time>2021-05-18T09:04:33Z</time>
      </trkpt>
      <trkpt lat="45.06831" lon="5.55307">
        <ele>1009</ele>
        <time>2021-05-18T09:04:37Z</time>
      </trkpt>
      <trkpt lat="45.06824" lon="5.55318">
        <ele>1009</ele>
        <time>2021-05-18T09:04:39Z</time>
      </trkpt>
      <trkpt lat="45.0681" lon="5.55325">
        <ele>1008</ele>
        <time>2021-05-18T09:04:42Z</time>
      </trkpt>
      <trkpt lat="45.0679" lon="5.5532">
        <ele>1007</ele>
        <time>2021-05-18T09:04:45Z</time>
      </trkpt>
      <trkpt lat="45.06774" lon="5.55307">
        <ele>1005</ele>
        <time>2021-05-18T09:04:49Z</time>
      </trkpt>
      <trkpt lat="45.06765" lon="5.55293">
        <ele>1004</ele>
        <time>2021-05-18T09:04:51Z</time>
      </trkpt>
      <trkpt lat="45.06751" lon="5.5527">
        <ele>1001</ele>
        <time>2021-05-18T09:04:55Z</time>
      </trkpt>
      <trkpt lat="45.06749" lon="5.55245">
        <ele>1000</ele>
        <time>2021-05-18T09:04:58Z</time>
      </trkpt>
      <trkpt lat="45.06749" lon="5.55234">
        <ele>999</ele>
        <time>2021-05-18T09:04:59Z</time>
      </trkpt>
      <trkpt lat="45.06751" lon="5.55099">
        <ele>995</ele>
        <time>2021-05-18T09:05:16Z</time>
      </trkpt>
      <trkpt lat="45.06753" lon="5.54987">
        <ele>992</ele>
        <time>2021-05-18T09:05:30Z</time>
      </trkpt>
      <trkpt lat="45.06755" lon="5.54862">
        <ele>987</ele>
        <time>2021-05-18T09:05:46Z</time>
      </trkpt>
      <trkpt lat="45.06758" lon="5.54811">
        <ele>985</ele>
        <time>2021-05-18T09:05:52Z</time>
      </trkpt>
      <trkpt lat="45.06758" lon="5.54766">
        <ele>984</ele>
        <time>2021-05-18T09:05:58Z</time>
      </trkpt>
      <trkpt lat="45.0675" lon="5.54712">
        <ele>980</ele>
        <time>2021-05-18T09:06:05Z</time>
      </trkpt>
      <trkpt lat="45.06736" lon="5.54663">
        <ele>976</ele>
        <time>2021-05-18T09:06:12Z</time>
      </trkpt>
      <trkpt lat="45.06727" lon="5.54622">
        <ele>979</ele>
        <time>2021-05-18T09:06:17Z</time>
      </trkpt>
      <trkpt lat="45.06731" lon="5.546">
        <ele>980</ele>
        <time>2021-05-18T09:06:20Z</time>
      </trkpt>
      <trkpt lat="45.06717" lon="5.54591">
        <ele>981</ele>
        <time>2021-05-18T09:06:23Z</time>
      </trkpt>
      <trkpt lat="45.06716" lon="5.54572">
        <ele>986</ele>
        <time>2021-05-18T09:06:25Z</time>
      </trkpt>
      <trkpt lat="45.06736" lon="5.54568">
        <ele>987</ele>
        <time>2021-05-18T09:06:29Z</time>
      </trkpt>
      <trkpt lat="45.0676" lon="5.54553">
        <ele>993</ele>
        <time>2021-05-18T09:06:33Z</time>
      </trkpt>
      <trkpt lat="45.06779" lon="5.54542">
        <ele>996</ele>
        <time>2021-05-18T09:06:37Z</time>
      </trkpt>
      <trkpt lat="45.06808" lon="5.54522">
        <ele>1002</ele>
        <time>2021-05-18T09:06:43Z</time>
      </trkpt>
      <trkpt lat="45.06827" lon="5.54511">
        <ele>1004</ele>
        <time>2021-05-18T09:06:46Z</time>
      </trkpt>
      <trkpt lat="45.06841" lon="5.54504">
        <ele>1006</ele>
        <time>2021-05-18T09:06:49Z</time>
      </trkpt>
      <trkpt lat="45.06865" lon="5.54495">
        <ele>1008</ele>
        <time>2021-05-18T09:06:53Z</time>
      </trkpt>
      <trkpt lat="45.06879" lon="5.54493">
        <ele>1007</ele>
        <time>2021-05-18T09:06:56Z</time>
      </trkpt>
      <trkpt lat="45.06932" lon="5.54495">
        <ele>1002</ele>
        <time>2021-05-18T09:07:05Z</time>
      </trkpt>
      <trkpt lat="45.06986" lon="5.54503">
        <ele>999</ele>
        <time>2021-05-18T09:07:15Z</time>
      </trkpt>
      <trkpt lat="45.07002" lon="5.54507">
        <ele>998</ele>
        <time>2021-05-18T09:07:18Z</time>
      </trkpt>
      <trkpt lat="45.07018" lon="5.54506">
        <ele>998</ele>
        <time>2021-05-18T09:07:21Z</time>
      </trkpt>
      <trkpt lat="45.07039" lon="5.54501">
        <ele>1000</ele>
        <time>2021-05-18T09:07:25Z</time>
      </trkpt>
      <trkpt lat="45.07061" lon="5.54491">
        <ele>1005</ele>
        <time>2021-05-18T09:07:29Z</time>
      </trkpt>
      <trkpt lat="45.07084" lon="5.54486">
        <ele>1006</ele>
        <time>2021-05-18T09:07:33Z</time>
      </trkpt>
      <trkpt lat="45.07104" lon="5.54477">
        <ele>1007</ele>
        <time>2021-05-18T09:07:37Z</time>
      </trkpt>
      <trkpt lat="45.07121" lon="5.54464">
        <ele>1009</ele>
        <time>2021-05-18T09:07:40Z</time>
      </trkpt>
      <trkpt lat="45.07132" lon="5.54451">
        <ele>1011</ele>
        <time>2021-05-18T09:07:43Z</time>
      </trkpt>
      <trkpt lat="45.07158" lon="5.54403">
        <ele>1015</ele>
        <time>2021-05-18T09:07:50Z</time>
      </trkpt>
      <trkpt lat="45.07176" lon="5.54377">
        <ele>1012</ele>
        <time>2021-05-18T09:07:55Z</time>
      </trkpt>
      <trkpt lat="45.07181" lon="5.54351">
        <ele>1013</ele>
        <time>2021-05-18T09:07:58Z</time>
      </trkpt>
      <trkpt lat="45.07188" lon="5.54327">
        <ele>1011</ele>
        <time>2021-05-18T09:08:01Z</time>
      </trkpt>
      <trkpt lat="45.07184" lon="5.54288">
        <ele>1012</ele>
        <time>2021-05-18T09:08:06Z</time>
      </trkpt>
      <trkpt lat="45.07126" lon="5.54153">
        <ele>1019</ele>
        <time>2021-05-18T09:08:26Z</time>
      </trkpt>
      <trkpt lat="45.07109" lon="5.54083">
        <ele>1022</ele>
        <time>2021-05-18T09:08:35Z</time>
      </trkpt>
      <trkpt lat="45.07044" lon="5.53971">
        <ele>1028</ele>
        <time>2021-05-18T09:08:54Z</time>
      </trkpt>
      <trkpt lat="45.07026" lon="5.53957">
        <ele>1030</ele>
        <time>2021-05-18T09:08:57Z</time>
      </trkpt>
      <trkpt lat="45.06988" lon="5.53936">
        <ele>1037</ele>
        <time>2021-05-18T09:09:05Z</time>
      </trkpt>
      <trkpt lat="45.0695" lon="5.53916">
        <ele>1047</ele>
        <time>2021-05-18T09:09:12Z</time>
      </trkpt>
      <trkpt lat="45.06933" lon="5.5391">
        <ele>1050</ele>
        <time>2021-05-18T09:09:15Z</time>
      </trkpt>
      <trkpt lat="45.069" lon="5.53881">
        <ele>1053</ele>
        <time>2021-05-18T09:09:22Z</time>
      </trkpt>
      <trkpt lat="45.06808" lon="5.53814">
        <ele>1062</ele>
        <time>2021-05-18T09:09:40Z</time>
      </trkpt>
      <trkpt lat="45.06716" lon="5.53757">
        <ele>1076</ele>
        <time>2021-05-18T09:09:58Z</time>
      </trkpt>
      <trkpt lat="45.06698" lon="5.53742">
        <ele>1080</ele>
        <time>2021-05-18T09:10:02Z</time>
      </trkpt>
      <trkpt lat="45.06619" lon="5.53666">
        <ele>1092</ele>
        <time>2021-05-18T09:10:19Z</time>
      </trkpt>
      <trkpt lat="45.06606" lon="5.53659">
        <ele>1097</ele>
        <time>2021-05-18T09:10:21Z</time>
      </trkpt>
      <trkpt lat="45.06597" lon="5.5365">
        <ele>1101</ele>
        <time>2021-05-18T09:10:23Z</time>
      </trkpt>
      <trkpt lat="45.06575" lon="5.5365">
        <ele>1107</ele>
        <time>2021-05-18T09:10:27Z</time>
      </trkpt>
      <trkpt lat="45.06566" lon="5.53647">
        <ele>1110</ele>
        <time>2021-05-18T09:10:29Z</time>
      </trkpt>
      <trkpt lat="45.06555" lon="5.53637">
        <ele>1114</ele>
        <time>2021-05-18T09:10:31Z</time>
      </trkpt>
      <trkpt lat="45.0655" lon="5.53627">
        <ele>1116</ele>
        <time>2021-05-18T09:10:33Z</time>
      </trkpt>
      <trkpt lat="45.06545" lon="5.53623">
        <ele>1117</ele>
        <time>2021-05-18T09:10:34Z</time>
      </trkpt>
      <trkpt lat="45.06539" lon="5.53613">
        <ele>1118</ele>
        <time>2021-05-18T09:10:35Z</time>
      </trkpt>
      <trkpt lat="45.06532" lon="5.53599">
        <ele>1119</ele>
        <time>2021-05-18T09:10:38Z</time>
      </trkpt>
      <trkpt lat="45.06536" lon="5.53592">
        <ele>1118</ele>
        <time>2021-05-18T09:10:39Z</time>
      </trkpt>
      <trkpt lat="45.06542" lon="5.53586">
        <ele>1117</ele>
        <time>2021-05-18T09:10:40Z</time>
      </trkpt>
      <trkpt lat="45.06551" lon="5.53577">
        <ele>1116</ele>
        <time>2021-05-18T09:10:42Z</time>
      </trkpt>
      <trkpt lat="45.06563" lon="5.53572">
        <ele>1115</ele>
        <time>2021-05-18T09:10:44Z</time>
      </trkpt>
      <trkpt lat="45.06575" lon="5.53562">
        <ele>1115</ele>
        <time>2021-05-18T09:10:47Z</time>
      </trkpt>
      <trkpt lat="45.06594" lon="5.53539">
        <ele>1116</ele>
        <time>2021-05-18T09:10:51Z</time>
      </trkpt>
      <trkpt lat="45.06604" lon="5.53506">
        <ele>1121</ele>
        <time>2021-05-18T09:10:56Z</time>
      </trkpt>
      <trkpt lat="45.06627" lon="5.53501">
        <ele>1120</ele>
        <time>2021-05-18T09:11:00Z</time>
      </trkpt>
      <trkpt lat="45.06687" lon="5.53498">
        <ele>1120</ele>
        <time>2021-05-18T09:11:10Z</time>
      </trkpt>
      <trkpt lat="45.06711" lon="5.5348">
        <ele>1125</ele>
        <time>2021-05-18T09:11:15Z</time>
      </trkpt>
      <trkpt lat="45.06723" lon="5.53473">
        <ele>1127</ele>
        <time>2021-05-18T09:11:18Z</time>
      </trkpt>
      <trkpt lat="45.06732" lon="5.53454">
        <ele>1131</ele>
        <time>2021-05-18T09:11:20Z</time>
      </trkpt>
      <trkpt lat="45.06735" lon="5.53442">
        <ele>1133</ele>
        <time>2021-05-18T09:11:22Z</time>
      </trkpt>
      <trkpt lat="45.06733" lon="5.53413">
        <ele>1137</ele>
        <time>2021-05-18T09:11:26Z</time>
      </trkpt>
      <trkpt lat="45.06723" lon="5.53395">
        <ele>1138</ele>
        <time>2021-05-18T09:11:29Z</time>
      </trkpt>
      <trkpt lat="45.06698" lon="5.53388">
        <ele>1138</ele>
        <time>2021-05-18T09:11:33Z</time>
      </trkpt>
      <trkpt lat="45.06591" lon="5.53378">
        <ele>1141</ele>
        <time>2021-05-18T09:11:52Z</time>
      </trkpt>
      <trkpt lat="45.06574" lon="5.53373">
        <ele>1144</ele>
        <time>2021-05-18T09:11:55Z</time>
      </trkpt>
      <trkpt lat="45.06566" lon="5.53374">
        <ele>1145</ele>
        <time>2021-05-18T09:11:57Z</time>
      </trkpt>
      <trkpt lat="45.06515" lon="5.53353">
        <ele>1155</ele>
        <time>2021-05-18T09:12:06Z</time>
      </trkpt>
      <trkpt lat="45.06441" lon="5.53317">
        <ele>1170</ele>
        <time>2021-05-18T09:12:20Z</time>
      </trkpt>
      <trkpt lat="45.06415" lon="5.53314">
        <ele>1177</ele>
        <time>2021-05-18T09:12:25Z</time>
      </trkpt>
      <trkpt lat="45.06391" lon="5.53315">
        <ele>1178</ele>
        <time>2021-05-18T09:12:29Z</time>
      </trkpt>
      <trkpt lat="45.06365" lon="5.53312">
        <ele>1180</ele>
        <time>2021-05-18T09:12:34Z</time>
      </trkpt>
      <trkpt lat="45.06347" lon="5.53309">
        <ele>1180</ele>
        <time>2021-05-18T09:12:37Z</time>
      </trkpt>
      <trkpt lat="45.06313" lon="5.53312">
        <ele>1183</ele>
        <time>2021-05-18T09:12:43Z</time>
      </trkpt>
      <trkpt lat="45.06294" lon="5.53264">
        <ele>1181</ele>
        <time>2021-05-18T09:12:50Z</time>
      </trkpt>
      <trkpt lat="45.06287" lon="5.53249">
        <ele>1181</ele>
        <time>2021-05-18T09:12:52Z</time>
      </trkpt>
      <trkpt lat="45.06298" lon="5.53198">
        <ele>1178</ele>
        <time>2021-05-18T09:12:59Z</time>
      </trkpt>
      <trkpt lat="45.06288" lon="5.53184">
        <ele>1181</ele>
        <time>2021-05-18T09:13:01Z</time>
      </trkpt>
      <trkpt lat="45.06287" lon="5.53171">
        <ele>1181</ele>
        <time>2021-05-18T09:13:03Z</time>
      </trkpt>
      <trkpt lat="45.06298" lon="5.53132">
        <ele>1177</ele>
        <time>2021-05-18T09:13:08Z</time>
      </trkpt>
      <trkpt lat="45.06297" lon="5.53113">
        <ele>1177</ele>
        <time>2021-05-18T09:13:11Z</time>
      </trkpt>
      <trkpt lat="45.06288" lon="5.53075">
        <ele>1178</ele>
        <time>2021-05-18T09:13:16Z</time>
      </trkpt>
      <trkpt lat="45.06244" lon="5.53023">
        <ele>1188</ele>
        <time>2021-05-18T09:13:26Z</time>
      </trkpt>
      <trkpt lat="45.06225" lon="5.53007">
        <ele>1190</ele>
        <time>2021-05-18T09:13:30Z</time>
      </trkpt>
      <trkpt lat="45.06191" lon="5.52965">
        <ele>1195</ele>
        <time>2021-05-18T09:13:38Z</time>
      </trkpt>
      <trkpt lat="45.06183" lon="5.52948">
        <ele>1196</ele>
        <time>2021-05-18T09:13:40Z</time>
      </trkpt>
      <trkpt lat="45.0617" lon="5.52925">
        <ele>1198</ele>
        <time>2021-05-18T09:13:44Z</time>
      </trkpt>
      <trkpt lat="45.06163" lon="5.52896">
        <ele>1196</ele>
        <time>2021-05-18T09:13:48Z</time>
      </trkpt>
      <trkpt lat="45.06157" lon="5.52867">
        <ele>1194</ele>
        <time>2021-05-18T09:13:52Z</time>
      </trkpt>
      <trkpt lat="45.06106" lon="5.52832">
        <ele>1198</ele>
        <time>2021-05-18T09:14:02Z</time>
      </trkpt>
      <trkpt lat="45.06043" lon="5.528">
        <ele>1200</ele>
        <time>2021-05-18T09:14:14Z</time>
      </trkpt>
      <trkpt lat="45.05974" lon="5.52783">
        <ele>1199</ele>
        <time>2021-05-18T09:14:26Z</time>
      </trkpt>
      <trkpt lat="45.05948" lon="5.52765">
        <ele>1197</ele>
        <time>2021-05-18T09:14:31Z</time>
      </trkpt>
      <trkpt lat="45.05934" lon="5.52746">
        <ele>1195</ele>
        <time>2021-05-18T09:14:35Z</time>
      </trkpt>
      <trkpt lat="45.05917" lon="5.52732">
        <ele>1195</ele>
        <time>2021-05-18T09:14:38Z</time>
      </trkpt>
      <trkpt lat="45.05893" lon="5.52725">
        <ele>1196</ele>
        <time>2021-05-18T09:14:43Z</time>
      </trkpt>
      <trkpt lat="45.0587" lon="5.52721">
        <ele>1197</ele>
        <time>2021-05-18T09:14:47Z</time>
      </trkpt>
      <trkpt lat="45.05798" lon="5.52716">
        <ele>1202</ele>
        <time>2021-05-18T09:15:00Z</time>
      </trkpt>
      <trkpt lat="45.05787" lon="5.52711">
        <ele>1203</ele>
        <time>2021-05-18T09:15:02Z</time>
      </trkpt>
      <trkpt lat="45.05774" lon="5.52709">
        <ele>1204</ele>
        <time>2021-05-18T09:15:04Z</time>
      </trkpt>
      <trkpt lat="45.05745" lon="5.52693">
        <ele>1205</ele>
        <time>2021-05-18T09:15:09Z</time>
      </trkpt>
      <trkpt lat="45.05733" lon="5.52685">
        <ele>1205</ele>
        <time>2021-05-18T09:15:12Z</time>
      </trkpt>
      <trkpt lat="45.05717" lon="5.52681">
        <ele>1206</ele>
        <time>2021-05-18T09:15:15Z</time>
      </trkpt>
      <trkpt lat="45.05647" lon="5.52699">
        <ele>1213</ele>
        <time>2021-05-18T09:15:27Z</time>
      </trkpt>
      <trkpt lat="45.05598" lon="5.52721">
        <ele>1215</ele>
        <time>2021-05-18T09:15:37Z</time>
      </trkpt>
      <trkpt lat="45.05573" lon="5.52717">
        <ele>1216</ele>
        <time>2021-05-18T09:15:41Z</time>
      </trkpt>
      <trkpt lat="45.05556" lon="5.52708">
        <ele>1217</ele>
        <time>2021-05-18T09:15:44Z</time>
      </trkpt>
      <trkpt lat="45.05536" lon="5.52679">
        <ele>1217</ele>
        <time>2021-05-18T09:15:49Z</time>
      </trkpt>
      <trkpt lat="45.05527" lon="5.52664">
        <ele>1217</ele>
        <time>2021-05-18T09:15:52Z</time>
      </trkpt>
      <trkpt lat="45.05504" lon="5.52653">
        <ele>1218</ele>
        <time>2021-05-18T09:15:56Z</time>
      </trkpt>
      <trkpt lat="45.05486" lon="5.52651">
        <ele>1221</ele>
        <time>2021-05-18T09:15:59Z</time>
      </trkpt>
      <trkpt lat="45.05454" lon="5.5265">
        <ele>1225</ele>
        <time>2021-05-18T09:16:05Z</time>
      </trkpt>
      <trkpt lat="45.05425" lon="5.52647">
        <ele>1229</ele>
        <time>2021-05-18T09:16:10Z</time>
      </trkpt>
      <trkpt lat="45.054" lon="5.52637">
        <ele>1230</ele>
        <time>2021-05-18T09:16:15Z</time>
      </trkpt>
      <trkpt lat="45.05356" lon="5.52602">
        <ele>1231</ele>
        <time>2021-05-18T09:16:24Z</time>
      </trkpt>
      <trkpt lat="45.05304" lon="5.52551">
        <ele>1230</ele>
        <time>2021-05-18T09:16:35Z</time>
      </trkpt>
      <trkpt lat="45.0525" lon="5.52491">
        <ele>1236</ele>
        <time>2021-05-18T09:16:47Z</time>
      </trkpt>
      <trkpt lat="45.05201" lon="5.52432">
        <ele>1242</ele>
        <time>2021-05-18T09:16:59Z</time>
      </trkpt>
      <trkpt lat="45.05184" lon="5.52415">
        <ele>1244</ele>
        <time>2021-05-18T09:17:02Z</time>
      </trkpt>
      <trkpt lat="45.05161" lon="5.52402">
        <ele>1245</ele>
        <time>2021-05-18T09:17:07Z</time>
      </trkpt>
      <trkpt lat="45.0515" lon="5.52396">
        <ele>1246</ele>
        <time>2021-05-18T09:17:09Z</time>
      </trkpt>
      <trkpt lat="45.0512" lon="5.52385">
        <ele>1247</ele>
        <time>2021-05-18T09:17:14Z</time>
      </trkpt>
      <trkpt lat="45.05131" lon="5.52333">
        <ele>1251</ele>
        <time>2021-05-18T09:17:21Z</time>
      </trkpt>
      <trkpt lat="45.0513" lon="5.52275">
        <ele>1252</ele>
        <time>2021-05-18T09:17:29Z</time>
      </trkpt>
      <trkpt lat="45.05126" lon="5.52258">
        <ele>1252</ele>
        <time>2021-05-18T09:17:31Z</time>
      </trkpt>
      <trkpt lat="45.05129" lon="5.5224">
        <ele>1252</ele>
        <time>2021-05-18T09:17:33Z</time>
      </trkpt>
      <trkpt lat="45.05121" lon="5.522">
        <ele>1250</ele>
        <time>2021-05-18T09:17:38Z</time>
      </trkpt>
      <trkpt lat="45.05109" lon="5.52194">
        <ele>1251</ele>
        <time>2021-05-18T09:17:41Z</time>
      </trkpt>
      <trkpt lat="45.05093" lon="5.5217">
        <ele>1252</ele>
        <time>2021-05-18T09:17:45Z</time>
      </trkpt>
      <trkpt lat="45.0507" lon="5.52155">
        <ele>1252</ele>
        <time>2021-05-18T09:17:49Z</time>
      </trkpt>
      <trkpt lat="45.05042" lon="5.52151">
        <ele>1253</ele>
        <time>2021-05-18T09:17:54Z</time>
      </trkpt>
      <trkpt lat="45.05014" lon="5.52128">
        <ele>1252</ele>
        <time>2021-05-18T09:18:00Z</time>
      </trkpt>
      <trkpt lat="45.04989" lon="5.52126">
        <ele>1252</ele>
        <time>2021-05-18T09:18:05Z</time>
      </trkpt>
      <trkpt lat="45.04979" lon="5.52121">
        <ele>1251</ele>
        <time>2021-05-18T09:18:06Z</time>
      </trkpt>
      <trkpt lat="45.04976" lon="5.52099">
        <ele>1249</ele>
        <time>2021-05-18T09:18:09Z</time>
      </trkpt>
      <trkpt lat="45.04958" lon="5.52072">
        <ele>1246</ele>
        <time>2021-05-18T09:18:14Z</time>
      </trkpt>
      <trkpt lat="45.04937" lon="5.52084">
        <ele>1248</ele>
        <time>2021-05-18T09:18:18Z</time>
      </trkpt>
      <trkpt lat="45.04896" lon="5.5209">
        <ele>1248</ele>
        <time>2021-05-18T09:18:25Z</time>
      </trkpt>
      <trkpt lat="45.04873" lon="5.52103">
        <ele>1248</ele>
        <time>2021-05-18T09:18:30Z</time>
      </trkpt>
      <trkpt lat="45.04828" lon="5.52121">
        <ele>1248</ele>
        <time>2021-05-18T09:18:38Z</time>
      </trkpt>
      <trkpt lat="45.04813" lon="5.521">
        <ele>1246</ele>
        <time>2021-05-18T09:18:42Z</time>
      </trkpt>
      <trkpt lat="45.04796" lon="5.52099">
        <ele>1245</ele>
        <time>2021-05-18T09:18:45Z</time>
      </trkpt>
      <trkpt lat="45.04733" lon="5.52124">
        <ele>1246</ele>
        <time>2021-05-18T09:18:56Z</time>
      </trkpt>
      <trkpt lat="45.04685" lon="5.52153">
        <ele>1248</ele>
        <time>2021-05-18T09:19:06Z</time>
      </trkpt>
      <trkpt lat="45.04663" lon="5.52168">
        <ele>1248</ele>
        <time>2021-05-18T09:19:10Z</time>
      </trkpt>
      <trkpt lat="45.04632" lon="5.52182">
        <ele>1250</ele>
        <time>2021-05-18T09:19:16Z</time>
      </trkpt>
      <trkpt lat="45.04582" lon="5.52181">
        <ele>1253</ele>
        <time>2021-05-18T09:19:25Z</time>
      </trkpt>
      <trkpt lat="45.04603" lon="5.52079">
        <ele>1254</ele>
        <time>2021-05-18T09:19:38Z</time>
      </trkpt>
      <trkpt lat="45.04612" lon="5.52051">
        <ele>1252</ele>
        <time>2021-05-18T09:19:42Z</time>
      </trkpt>
      <trkpt lat="45.04605" lon="5.5193">
        <ele>1254</ele>
        <time>2021-05-18T09:19:57Z</time>
      </trkpt>
      <trkpt lat="45.04591" lon="5.519">
        <ele>1255</ele>
        <time>2021-05-18T09:20:02Z</time>
      </trkpt>
      <trkpt lat="45.04582" lon="5.51865">
        <ele>1256</ele>
        <time>2021-05-18T09:20:06Z</time>
      </trkpt>
      <trkpt lat="45.04595" lon="5.51826">
        <ele>1254</ele>
        <time>2021-05-18T09:20:12Z</time>
      </trkpt>
      <trkpt lat="45.04615" lon="5.51804">
        <ele>1252</ele>
        <time>2021-05-18T09:20:16Z</time>
      </trkpt>
      <trkpt lat="45.04632" lon="5.51779">
        <ele>1250</ele>
        <time>2021-05-18T09:20:21Z</time>
      </trkpt>
      <trkpt lat="45.0464" lon="5.51731">
        <ele>1247</ele>
        <time>2021-05-18T09:20:27Z</time>
      </trkpt>
      <trkpt lat="45.0465" lon="5.51721">
        <ele>1246</ele>
        <time>2021-05-18T09:20:29Z</time>
      </trkpt>
      <trkpt lat="45.04672" lon="5.517">
        <ele>1243</ele>
        <time>2021-05-18T09:20:34Z</time>
      </trkpt>
      <trkpt lat="45.04695" lon="5.51594">
        <ele>1243</ele>
        <time>2021-05-18T09:20:48Z</time>
      </trkpt>
      <trkpt lat="45.04686" lon="5.51562">
        <ele>1244</ele>
        <time>2021-05-18T09:20:52Z</time>
      </trkpt>
      <trkpt lat="45.04666" lon="5.51539">
        <ele>1246</ele>
        <time>2021-05-18T09:20:57Z</time>
      </trkpt>
      <trkpt lat="45.04648" lon="5.51496">
        <ele>1248</ele>
        <time>2021-05-18T09:21:03Z</time>
      </trkpt>
      <trkpt lat="45.04652" lon="5.51472">
        <ele>1249</ele>
        <time>2021-05-18T09:21:06Z</time>
      </trkpt>
      <trkpt lat="45.04654" lon="5.51439">
        <ele>1250</ele>
        <time>2021-05-18T09:21:10Z</time>
      </trkpt>
      <trkpt lat="45.04671" lon="5.51396">
        <ele>1248</ele>
        <time>2021-05-18T09:21:16Z</time>
      </trkpt>
      <trkpt lat="45.04676" lon="5.51375">
        <ele>1247</ele>
        <time>2021-05-18T09:21:19Z</time>
      </trkpt>
      <trkpt lat="45.04676" lon="5.51308">
        <ele>1245</ele>
        <time>2021-05-18T09:21:28Z</time>
      </trkpt>
      <trkpt lat="45.0466" lon="5.51301">
        <ele>1246</ele>
        <time>2021-05-18T09:21:31Z</time>
      </trkpt>
      <trkpt lat="45.04649" lon="5.51282">
        <ele>1246</ele>
        <time>2021-05-18T09:21:34Z</time>
      </trkpt>
      <trkpt lat="45.04618" lon="5.51237">
        <ele>1245</ele>
        <time>2021-05-18T09:21:42Z</time>
      </trkpt>
      <trkpt lat="45.04581" lon="5.51206">
        <ele>1245</ele>
        <time>2021-05-18T09:21:49Z</time>
      </trkpt>
      <trkpt lat="45.0455" lon="5.51188">
        <ele>1244</ele>
        <time>2021-05-18T09:21:55Z</time>
      </trkpt>
      <trkpt lat="45.04531" lon="5.5118">
        <ele>1245</ele>
        <time>2021-05-18T09:21:59Z</time>
      </trkpt>
      <trkpt lat="45.04408" lon="5.51183">
        <ele>1264</ele>
        <time>2021-05-18T09:22:21Z</time>
      </trkpt>
      <trkpt lat="45.04368" lon="5.51184">
        <ele>1273</ele>
        <time>2021-05-18T09:22:28Z</time>
      </trkpt>
      <trkpt lat="45.04346" lon="5.51177">
        <ele>1277</ele>
        <time>2021-05-18T09:22:32Z</time>
      </trkpt>
      <trkpt lat="45.0431" lon="5.51139">
        <ele>1275</ele>
        <time>2021-05-18T09:22:40Z</time>
      </trkpt>
      <trkpt lat="45.04274" lon="5.51108">
        <ele>1273</ele>
        <time>2021-05-18T09:22:47Z</time>
      </trkpt>
      <trkpt lat="45.04249" lon="5.51087">
        <ele>1271</ele>
        <time>2021-05-18T09:22:52Z</time>
      </trkpt>
      <trkpt lat="45.04203" lon="5.51052">
        <ele>1268</ele>
        <time>2021-05-18T09:23:02Z</time>
      </trkpt>
      <trkpt lat="45.04174" lon="5.51039">
        <ele>1268</ele>
        <time>2021-05-18T09:23:07Z</time>
      </trkpt>
      <trkpt lat="45.04142" lon="5.5103">
        <ele>1269</ele>
        <time>2021-05-18T09:23:13Z</time>
      </trkpt>
      <trkpt lat="45.0411" lon="5.51029">
        <ele>1270</ele>
        <time>2021-05-18T09:23:19Z</time>
      </trkpt>
      <trkpt lat="45.04031" lon="5.51021">
        <ele>1272</ele>
        <time>2021-05-18T09:23:33Z</time>
      </trkpt>
      <trkpt lat="45.03975" lon="5.50993">
        <ele>1266</ele>
        <time>2021-05-18T09:23:43Z</time>
      </trkpt>
      <trkpt lat="45.03915" lon="5.5098">
        <ele>1263</ele>
        <time>2021-05-18T09:23:54Z</time>
      </trkpt>
      <trkpt lat="45.03857" lon="5.50987">
        <ele>1259</ele>
        <time>2021-05-18T09:24:04Z</time>
      </trkpt>
      <trkpt lat="45.03886" lon="5.50943">
        <ele>1255</ele>
        <time>2021-05-18T09:24:12Z</time>
      </trkpt>
      <trkpt lat="45.03884" lon="5.50917">
        <ele>1251</ele>
        <time>2021-05-18T09:24:15Z</time>
      </trkpt>
      <trkpt lat="45.03881" lon="5.50896">
        <ele>1250</ele>
        <time>2021-05-18T09:24:18Z</time>
      </trkpt>
      <trkpt lat="45.03865" lon="5.50894">
        <ele>1249</ele>
        <time>2021-05-18T09:24:21Z</time>
      </trkpt>
      <trkpt lat="45.03843" lon="5.50888">
        <ele>1247</ele>
        <time>2021-05-18T09:24:25Z</time>
      </trkpt>
      <trkpt lat="45.03825" lon="5.50894">
        <ele>1247</ele>
        <time>2021-05-18T09:24:28Z</time>
      </trkpt>
      <trkpt lat="45.03802" lon="5.50905">
        <ele>1248</ele>
        <time>2021-05-18T09:24:32Z</time>
      </trkpt>
      <trkpt lat="45.03786" lon="5.50904">
        <ele>1248</ele>
        <time>2021-05-18T09:24:35Z</time>
      </trkpt>
      <trkpt lat="45.03764" lon="5.50899">
        <ele>1248</ele>
        <time>2021-05-18T09:24:39Z</time>
      </trkpt>
      <trkpt lat="45.03739" lon="5.50868">
        <ele>1246</ele>
        <time>2021-05-18T09:24:45Z</time>
      </trkpt>
      <trkpt lat="45.0372" lon="5.50834">
        <ele>1244</ele>
        <time>2021-05-18T09:24:51Z</time>
      </trkpt>
      <trkpt lat="45.03704" lon="5.50813">
        <ele>1245</ele>
        <time>2021-05-18T09:24:54Z</time>
      </trkpt>
      <trkpt lat="45.03685" lon="5.50803">
        <ele>1245</ele>
        <time>2021-05-18T09:24:58Z</time>
      </trkpt>
      <trkpt lat="45.03684" lon="5.5078">
        <ele>1245</ele>
        <time>2021-05-18T09:25:01Z</time>
      </trkpt>
      <trkpt lat="45.03681" lon="5.50745">
        <ele>1245</ele>
        <time>2021-05-18T09:25:05Z</time>
      </trkpt>
      <trkpt lat="45.03672" lon="5.507">
        <ele>1248</ele>
        <time>2021-05-18T09:25:11Z</time>
      </trkpt>
      <trkpt lat="45.037" lon="5.50653">
        <ele>1251</ele>
        <time>2021-05-18T09:25:19Z</time>
      </trkpt>
      <trkpt lat="45.03715" lon="5.50631">
        <ele>1252</ele>
        <time>2021-05-18T09:25:23Z</time>
      </trkpt>
      <trkpt lat="45.03719" lon="5.50582">
        <ele>1254</ele>
        <time>2021-05-18T09:25:29Z</time>
      </trkpt>
      <trkpt lat="45.0373" lon="5.50558">
        <ele>1255</ele>
        <time>2021-05-18T09:25:33Z</time>
      </trkpt>
      <trkpt lat="45.03734" lon="5.50537">
        <ele>1257</ele>
        <time>2021-05-18T09:25:35Z</time>
      </trkpt>
      <trkpt lat="45.03739" lon="5.50516">
        <ele>1258</ele>
        <time>2021-05-18T09:25:38Z</time>
      </trkpt>
      <trkpt lat="45.03752" lon="5.50495">
        <ele>1260</ele>
        <time>2021-05-18T09:25:42Z</time>
      </trkpt>
      <trkpt lat="45.03768" lon="5.50461">
        <ele>1264</ele>
        <time>2021-05-18T09:25:47Z</time>
      </trkpt>
      <trkpt lat="45.03789" lon="5.50449">
        <ele>1265</ele>
        <time>2021-05-18T09:25:51Z</time>
      </trkpt>
      <trkpt lat="45.03816" lon="5.50383">
        <ele>1270</ele>
        <time>2021-05-18T09:26:00Z</time>
      </trkpt>
      <trkpt lat="45.03879" lon="5.50279">
        <ele>1279</ele>
        <time>2021-05-18T09:26:18Z</time>
      </trkpt>
      <trkpt lat="45.0389" lon="5.50248">
        <ele>1281</ele>
        <time>2021-05-18T09:26:22Z</time>
      </trkpt>
      <trkpt lat="45.03891" lon="5.50196">
        <ele>1285</ele>
        <time>2021-05-18T09:26:29Z</time>
      </trkpt>
      <trkpt lat="45.03915" lon="5.50129">
        <ele>1289</ele>
        <time>2021-05-18T09:26:38Z</time>
      </trkpt>
      <trkpt lat="45.0396" lon="5.50083">
        <ele>1292</ele>
        <time>2021-05-18T09:26:48Z</time>
      </trkpt>
      <trkpt lat="45.04015" lon="5.50081">
        <ele>1292</ele>
        <time>2021-05-18T09:26:58Z</time>
      </trkpt>
      <trkpt lat="45.04078" lon="5.50078">
        <ele>1291</ele>
        <time>2021-05-18T09:27:09Z</time>
      </trkpt>
      <trkpt lat="45.04111" lon="5.50079">
        <ele>1292</ele>
        <time>2021-05-18T09:27:15Z</time>
      </trkpt>
      <trkpt lat="45.04152" lon="5.50071">
        <ele>1291</ele>
        <time>2021-05-18T09:27:22Z</time>
      </trkpt>
      <trkpt lat="45.04193" lon="5.50063">
        <ele>1291</ele>
        <time>2021-05-18T09:27:30Z</time>
      </trkpt>
      <trkpt lat="45.04237" lon="5.50048">
        <ele>1291</ele>
        <time>2021-05-18T09:27:38Z</time>
      </trkpt>
      <trkpt lat="45.04278" lon="5.5003">
        <ele>1290</ele>
        <time>2021-05-18T09:27:45Z</time>
      </trkpt>
      <trkpt lat="45.04302" lon="5.49994">
        <ele>1288</ele>
        <time>2021-05-18T09:27:51Z</time>
      </trkpt>
      <trkpt lat="45.04344" lon="5.50018">
        <ele>1289</ele>
        <time>2021-05-18T09:27:59Z</time>
      </trkpt>
      <trkpt lat="45.044" lon="5.50004">
        <ele>1284</ele>
        <time>2021-05-18T09:28:10Z</time>
      </trkpt>
      <trkpt lat="45.0442" lon="5.50006">
        <ele>1283</ele>
        <time>2021-05-18T09:28:13Z</time>
      </trkpt>
      <trkpt lat="45.0445" lon="5.50011">
        <ele>1282</ele>
        <time>2021-05-18T09:28:19Z</time>
      </trkpt>
      <trkpt lat="45.04464" lon="5.5">
        <ele>1280</ele>
        <time>2021-05-18T09:28:21Z</time>
      </trkpt>
      <trkpt lat="45.04473" lon="5.49991">
        <ele>1280</ele>
        <time>2021-05-18T09:28:23Z</time>
      </trkpt>
      <trkpt lat="45.04505" lon="5.49985">
        <ele>1278</ele>
        <time>2021-05-18T09:28:29Z</time>
      </trkpt>
      <trkpt lat="45.04535" lon="5.49975">
        <ele>1279</ele>
        <time>2021-05-18T09:28:35Z</time>
      </trkpt>
      <trkpt lat="45.04571" lon="5.49982">
        <ele>1277</ele>
        <time>2021-05-18T09:28:41Z</time>
      </trkpt>
      <trkpt lat="45.04591" lon="5.49981">
        <ele>1277</ele>
        <time>2021-05-18T09:28:45Z</time>
      </trkpt>
      <trkpt lat="45.04608" lon="5.49969">
        <ele>1280</ele>
        <time>2021-05-18T09:28:48Z</time>
      </trkpt>
      <trkpt lat="45.04622" lon="5.49972">
        <ele>1280</ele>
        <time>2021-05-18T09:28:50Z</time>
      </trkpt>
      <trkpt lat="45.04634" lon="5.49994">
        <ele>1278</ele>
        <time>2021-05-18T09:28:54Z</time>
      </trkpt>
      <trkpt lat="45.04664" lon="5.50017">
        <ele>1279</ele>
        <time>2021-05-18T09:29:00Z</time>
      </trkpt>
      <trkpt lat="45.04738" lon="5.50026">
        <ele>1278</ele>
        <time>2021-05-18T09:29:13Z</time>
      </trkpt>
      <trkpt lat="45.04747" lon="5.50024">
        <ele>1278</ele>
        <time>2021-05-18T09:29:15Z</time>
      </trkpt>
      <trkpt lat="45.04766" lon="5.50038">
        <ele>1278</ele>
        <time>2021-05-18T09:29:19Z</time>
      </trkpt>
      <trkpt lat="45.04771" lon="5.50049">
        <ele>1278</ele>
        <time>2021-05-18T09:29:20Z</time>
      </trkpt>
      <trkpt lat="45.04821" lon="5.50085">
        <ele>1275</ele>
        <time>2021-05-18T09:29:30Z</time>
      </trkpt>
      <trkpt lat="45.04843" lon="5.50086">
        <ele>1273</ele>
        <time>2021-05-18T09:29:34Z</time>
      </trkpt>
      <trkpt lat="45.0487" lon="5.50092">
        <ele>1272</ele>
        <time>2021-05-18T09:29:39Z</time>
      </trkpt>
      <trkpt lat="45.04891" lon="5.5008">
        <ele>1270</ele>
        <time>2021-05-18T09:29:43Z</time>
      </trkpt>
      <trkpt lat="45.04922" lon="5.50075">
        <ele>1268</ele>
        <time>2021-05-18T09:29:49Z</time>
      </trkpt>
      <trkpt lat="45.04967" lon="5.50106">
        <ele>1264</ele>
        <time>2021-05-18T09:29:58Z</time>
      </trkpt>
      <trkpt lat="45.04972" lon="5.50133">
        <ele>1265</ele>
        <time>2021-05-18T09:30:01Z</time>
      </trkpt>
      <trkpt lat="45.0498" lon="5.50146">
        <ele>1265</ele>
        <time>2021-05-18T09:30:03Z</time>
      </trkpt>
      <trkpt lat="45.04999" lon="5.5015">
        <ele>1264</ele>
        <time>2021-05-18T09:30:07Z</time>
      </trkpt>
      <trkpt lat="45.05009" lon="5.50155">
        <ele>1263</ele>
        <time>2021-05-18T09:30:09Z</time>
      </trkpt>
      <trkpt lat="45.0503" lon="5.50159">
        <ele>1262</ele>
        <time>2021-05-18T09:30:12Z</time>
      </trkpt>
      <trkpt lat="45.05053" lon="5.50164">
        <ele>1260</ele>
        <time>2021-05-18T09:30:16Z</time>
      </trkpt>
      <trkpt lat="45.05083" lon="5.50166">
        <ele>1258</ele>
        <time>2021-05-18T09:30:22Z</time>
      </trkpt>
      <trkpt lat="45.05101" lon="5.50183">
        <ele>1257</ele>
        <time>2021-05-18T09:30:26Z</time>
      </trkpt>
      <trkpt lat="45.05116" lon="5.50189">
        <ele>1256</ele>
        <time>2021-05-18T09:30:28Z</time>
      </trkpt>
      <trkpt lat="45.05134" lon="5.50187">
        <ele>1254</ele>
        <time>2021-05-18T09:30:32Z</time>
      </trkpt>
      <trkpt lat="45.05156" lon="5.50196">
        <ele>1253</ele>
        <time>2021-05-18T09:30:36Z</time>
      </trkpt>
      <trkpt lat="45.05182" lon="5.50204">
        <ele>1251</ele>
        <time>2021-05-18T09:30:40Z</time>
      </trkpt>
      <trkpt lat="45.05197" lon="5.50209">
        <ele>1250</ele>
        <time>2021-05-18T09:30:43Z</time>
      </trkpt>
      <trkpt lat="45.05208" lon="5.50218">
        <ele>1250</ele>
        <time>2021-05-18T09:30:45Z</time>
      </trkpt>
      <trkpt lat="45.05218" lon="5.50243">
        <ele>1249</ele>
        <time>2021-05-18T09:30:49Z</time>
      </trkpt>
      <trkpt lat="45.05228" lon="5.50261">
        <ele>1248</ele>
        <time>2021-05-18T09:30:52Z</time>
      </trkpt>
      <trkpt lat="45.05229" lon="5.50271">
        <ele>1248</ele>
        <time>2021-05-18T09:30:53Z</time>
      </trkpt>
      <trkpt lat="45.0522" lon="5.503">
        <ele>1248</ele>
        <time>2021-05-18T09:30:57Z</time>
      </trkpt>
      <trkpt lat="45.05223" lon="5.50315">
        <ele>1247</ele>
        <time>2021-05-18T09:30:59Z</time>
      </trkpt>
      <trkpt lat="45.05235" lon="5.50345">
        <ele>1246</ele>
        <time>2021-05-18T09:31:04Z</time>
      </trkpt>
      <trkpt lat="45.05262" lon="5.50354">
        <ele>1245</ele>
        <time>2021-05-18T09:31:08Z</time>
      </trkpt>
      <trkpt lat="45.0527" lon="5.50357">
        <ele>1245</ele>
        <time>2021-05-18T09:31:10Z</time>
      </trkpt>
      <trkpt lat="45.05283" lon="5.50402">
        <ele>1244</ele>
        <time>2021-05-18T09:31:16Z</time>
      </trkpt>
      <trkpt lat="45.05284" lon="5.50432">
        <ele>1244</ele>
        <time>2021-05-18T09:31:20Z</time>
      </trkpt>
      <trkpt lat="45.05287" lon="5.50449">
        <ele>1244</ele>
        <time>2021-05-18T09:31:22Z</time>
      </trkpt>
      <trkpt lat="45.05294" lon="5.50463">
        <ele>1243</ele>
        <time>2021-05-18T09:31:24Z</time>
      </trkpt>
      <trkpt lat="45.05304" lon="5.50481">
        <ele>1242</ele>
        <time>2021-05-18T09:31:27Z</time>
      </trkpt>
      <trkpt lat="45.05317" lon="5.50502">
        <ele>1241</ele>
        <time>2021-05-18T09:31:31Z</time>
      </trkpt>
      <trkpt lat="45.05345" lon="5.50541">
        <ele>1234</ele>
        <time>2021-05-18T09:31:38Z</time>
      </trkpt>
      <trkpt lat="45.05362" lon="5.50594">
        <ele>1228</ele>
        <time>2021-05-18T09:31:45Z</time>
      </trkpt>
      <trkpt lat="45.05401" lon="5.50625">
        <ele>1226</ele>
        <time>2021-05-18T09:31:53Z</time>
      </trkpt>
      <trkpt lat="45.054" lon="5.50658">
        <ele>1223</ele>
        <time>2021-05-18T09:31:57Z</time>
      </trkpt>
      <trkpt lat="45.05374" lon="5.50682">
        <ele>1222</ele>
        <time>2021-05-18T09:32:02Z</time>
      </trkpt>
      <trkpt lat="45.05359" lon="5.50751">
        <ele>1220</ele>
        <time>2021-05-18T09:32:12Z</time>
      </trkpt>
      <trkpt lat="45.05358" lon="5.5076">
        <ele>1219</ele>
        <time>2021-05-18T09:32:13Z</time>
      </trkpt>
      <trkpt lat="45.05361" lon="5.50772">
        <ele>1218</ele>
        <time>2021-05-18T09:32:14Z</time>
      </trkpt>
      <trkpt lat="45.05367" lon="5.50785">
        <ele>1218</ele>
        <time>2021-05-18T09:32:16Z</time>
      </trkpt>
      <trkpt lat="45.0537" lon="5.50798">
        <ele>1217</ele>
        <time>2021-05-18T09:32:18Z</time>
      </trkpt>
      <trkpt lat="45.0537" lon="5.50808">
        <ele>1217</ele>
        <time>2021-05-18T09:32:19Z</time>
      </trkpt>
      <trkpt lat="45.05356" lon="5.50826">
        <ele>1215</ele>
        <time>2021-05-18T09:32:23Z</time>
      </trkpt>
      <trkpt lat="45.05348" lon="5.50845">
        <ele>1213</ele>
        <time>2021-05-18T09:32:25Z</time>
      </trkpt>
      <trkpt lat="45.05328" lon="5.50866">
        <ele>1209</ele>
        <time>2021-05-18T09:32:30Z</time>
      </trkpt>
      <trkpt lat="45.05271" lon="5.50959">
        <ele>1193</ele>
        <time>2021-05-18T09:32:45Z</time>
      </trkpt>
      <trkpt lat="45.0523" lon="5.51071">
        <ele>1191</ele>
        <time>2021-05-18T09:33:01Z</time>
      </trkpt>
      <trkpt lat="45.05241" lon="5.51112">
        <ele>1194</ele>
        <time>2021-05-18T09:33:07Z</time>
      </trkpt>
      <trkpt lat="45.0525" lon="5.51118">
        <ele>1194</ele>
        <time>2021-05-18T09:33:08Z</time>
      </trkpt>
      <trkpt lat="45.05266" lon="5.51118">
        <ele>1195</ele>
        <time>2021-05-18T09:33:11Z</time>
      </trkpt>
      <trkpt lat="45.0528" lon="5.51129">
        <ele>1196</ele>
        <time>2021-05-18T09:33:14Z</time>
      </trkpt>
      <trkpt lat="45.05282" lon="5.51141">
        <ele>1198</ele>
        <time>2021-05-18T09:33:16Z</time>
      </trkpt>
      <trkpt lat="45.05283" lon="5.51178">
        <ele>1200</ele>
        <time>2021-05-18T09:33:20Z</time>
      </trkpt>
      <trkpt lat="45.0527" lon="5.51206">
        <ele>1200</ele>
        <time>2021-05-18T09:33:25Z</time>
      </trkpt>
      <trkpt lat="45.05272" lon="5.51224">
        <ele>1201</ele>
        <time>2021-05-18T09:33:27Z</time>
      </trkpt>
      <trkpt lat="45.05279" lon="5.51229">
        <ele>1200</ele>
        <time>2021-05-18T09:33:28Z</time>
      </trkpt>
      <trkpt lat="45.05303" lon="5.51222">
        <ele>1200</ele>
        <time>2021-05-18T09:33:33Z</time>
      </trkpt>
      <trkpt lat="45.05325" lon="5.51218">
        <ele>1199</ele>
        <time>2021-05-18T09:33:37Z</time>
      </trkpt>
      <trkpt lat="45.0535" lon="5.51217">
        <ele>1198</ele>
        <time>2021-05-18T09:33:41Z</time>
      </trkpt>
      <trkpt lat="45.05373" lon="5.51227">
        <ele>1197</ele>
        <time>2021-05-18T09:33:45Z</time>
      </trkpt>
      <trkpt lat="45.05384" lon="5.51238">
        <ele>1196</ele>
        <time>2021-05-18T09:33:48Z</time>
      </trkpt>
      <trkpt lat="45.05386" lon="5.5125">
        <ele>1195</ele>
        <time>2021-05-18T09:33:49Z</time>
      </trkpt>
      <trkpt lat="45.05375" lon="5.5128">
        <ele>1195</ele>
        <time>2021-05-18T09:33:53Z</time>
      </trkpt>
      <trkpt lat="45.05365" lon="5.51301">
        <ele>1195</ele>
        <time>2021-05-18T09:33:57Z</time>
      </trkpt>
      <trkpt lat="45.05366" lon="5.5132">
        <ele>1194</ele>
        <time>2021-05-18T09:33:59Z</time>
      </trkpt>
      <trkpt lat="45.0537" lon="5.51339">
        <ele>1193</ele>
        <time>2021-05-18T09:34:02Z</time>
      </trkpt>
      <trkpt lat="45.05385" lon="5.51362">
        <ele>1190</ele>
        <time>2021-05-18T09:34:05Z</time>
      </trkpt>
      <trkpt lat="45.05392" lon="5.5137">
        <ele>1189</ele>
        <time>2021-05-18T09:34:07Z</time>
      </trkpt>
      <trkpt lat="45.05405" lon="5.51378">
        <ele>1188</ele>
        <time>2021-05-18T09:34:10Z</time>
      </trkpt>
      <trkpt lat="45.05418" lon="5.51381">
        <ele>1187</ele>
        <time>2021-05-18T09:34:12Z</time>
      </trkpt>
      <trkpt lat="45.05456" lon="5.51358">
        <ele>1186</ele>
        <time>2021-05-18T09:34:19Z</time>
      </trkpt>
      <trkpt lat="45.05463" lon="5.51346">
        <ele>1186</ele>
        <time>2021-05-18T09:34:21Z</time>
      </trkpt>
      <trkpt lat="45.05466" lon="5.51333">
        <ele>1187</ele>
        <time>2021-05-18T09:34:23Z</time>
      </trkpt>
      <trkpt lat="45.05468" lon="5.51302">
        <ele>1188</ele>
        <time>2021-05-18T09:34:27Z</time>
      </trkpt>
      <trkpt lat="45.05476" lon="5.51291">
        <ele>1188</ele>
        <time>2021-05-18T09:34:29Z</time>
      </trkpt>
      <trkpt lat="45.05483" lon="5.51269">
        <ele>1189</ele>
        <time>2021-05-18T09:34:32Z</time>
      </trkpt>
      <trkpt lat="45.05487" lon="5.51245">
        <ele>1190</ele>
        <time>2021-05-18T09:34:35Z</time>
      </trkpt>
      <trkpt lat="45.05494" lon="5.51236">
        <ele>1190</ele>
        <time>2021-05-18T09:34:37Z</time>
      </trkpt>
      <trkpt lat="45.05499" lon="5.51233">
        <ele>1190</ele>
        <time>2021-05-18T09:34:38Z</time>
      </trkpt>
      <trkpt lat="45.0551" lon="5.51234">
        <ele>1189</ele>
        <time>2021-05-18T09:34:40Z</time>
      </trkpt>
      <trkpt lat="45.05525" lon="5.51235">
        <ele>1187</ele>
        <time>2021-05-18T09:34:42Z</time>
      </trkpt>
      <trkpt lat="45.05538" lon="5.51223">
        <ele>1186</ele>
        <time>2021-05-18T09:34:45Z</time>
      </trkpt>
      <trkpt lat="45.05559" lon="5.51196">
        <ele>1185</ele>
        <time>2021-05-18T09:34:50Z</time>
      </trkpt>
      <trkpt lat="45.05565" lon="5.51195">
        <ele>1184</ele>
        <time>2021-05-18T09:34:51Z</time>
      </trkpt>
      <trkpt lat="45.05569" lon="5.51163">
        <ele>1185</ele>
        <time>2021-05-18T09:34:55Z</time>
      </trkpt>
      <trkpt lat="45.0558" lon="5.51147">
        <ele>1184</ele>
        <time>2021-05-18T09:34:58Z</time>
      </trkpt>
      <trkpt lat="45.05589" lon="5.51134">
        <ele>1184</ele>
        <time>2021-05-18T09:35:00Z</time>
      </trkpt>
      <trkpt lat="45.05612" lon="5.51129">
        <ele>1184</ele>
        <time>2021-05-18T09:35:04Z</time>
      </trkpt>
      <trkpt lat="45.05636" lon="5.51131">
        <ele>1183</ele>
        <time>2021-05-18T09:35:09Z</time>
      </trkpt>
      <trkpt lat="45.05663" lon="5.51135">
        <ele>1182</ele>
        <time>2021-05-18T09:35:14Z</time>
      </trkpt>
      <trkpt lat="45.05683" lon="5.51135">
        <ele>1180</ele>
        <time>2021-05-18T09:35:17Z</time>
      </trkpt>
      <trkpt lat="45.05699" lon="5.51132">
        <ele>1178</ele>
        <time>2021-05-18T09:35:20Z</time>
      </trkpt>
      <trkpt lat="45.05709" lon="5.51127">
        <ele>1178</ele>
        <time>2021-05-18T09:35:22Z</time>
      </trkpt>
      <trkpt lat="45.05721" lon="5.51107">
        <ele>1180</ele>
        <time>2021-05-18T09:35:25Z</time>
      </trkpt>
      <trkpt lat="45.05726" lon="5.51087">
        <ele>1182</ele>
        <time>2021-05-18T09:35:28Z</time>
      </trkpt>
      <trkpt lat="45.05732" lon="5.51072">
        <ele>1184</ele>
        <time>2021-05-18T09:35:30Z</time>
      </trkpt>
      <trkpt lat="45.05744" lon="5.51058">
        <ele>1185</ele>
        <time>2021-05-18T09:35:33Z</time>
      </trkpt>
      <trkpt lat="45.05793" lon="5.51036">
        <ele>1181</ele>
        <time>2021-05-18T09:35:42Z</time>
      </trkpt>
      <trkpt lat="45.05819" lon="5.51024">
        <ele>1180</ele>
        <time>2021-05-18T09:35:47Z</time>
      </trkpt>
      <trkpt lat="45.05827" lon="5.51017">
        <ele>1180</ele>
        <time>2021-05-18T09:35:48Z</time>
      </trkpt>
      <trkpt lat="45.05847" lon="5.51">
        <ele>1179</ele>
        <time>2021-05-18T09:35:53Z</time>
      </trkpt>
      <trkpt lat="45.05894" lon="5.5091">
        <ele>1184</ele>
        <time>2021-05-18T09:36:07Z</time>
      </trkpt>
      <trkpt lat="45.05915" lon="5.50888">
        <ele>1185</ele>
        <time>2021-05-18T09:36:11Z</time>
      </trkpt>
      <trkpt lat="45.05932" lon="5.50873">
        <ele>1185</ele>
        <time>2021-05-18T09:36:15Z</time>
      </trkpt>
      <trkpt lat="45.05949" lon="5.50852">
        <ele>1186</ele>
        <time>2021-05-18T09:36:19Z</time>
      </trkpt>
      <trkpt lat="45.05986" lon="5.50789">
        <ele>1196</ele>
        <time>2021-05-18T09:36:29Z</time>
      </trkpt>
      <trkpt lat="45.0616" lon="5.50646">
        <ele>1190</ele>
        <time>2021-05-18T09:37:05Z</time>
      </trkpt>
      <trkpt lat="45.06168" lon="5.50613">
        <ele>1192</ele>
        <time>2021-05-18T09:37:09Z</time>
      </trkpt>
      <trkpt lat="45.06188" lon="5.50599">
        <ele>1192</ele>
        <time>2021-05-18T09:37:13Z</time>
      </trkpt>
      <trkpt lat="45.06201" lon="5.50587">
        <ele>1191</ele>
        <time>2021-05-18T09:37:16Z</time>
      </trkpt>
      <trkpt lat="45.06214" lon="5.50577">
        <ele>1192</ele>
        <time>2021-05-18T09:37:19Z</time>
      </trkpt>
      <trkpt lat="45.06235" lon="5.5056">
        <ele>1192</ele>
        <time>2021-05-18T09:37:23Z</time>
      </trkpt>
      <trkpt lat="45.06276" lon="5.50535">
        <ele>1189</ele>
        <time>2021-05-18T09:37:31Z</time>
      </trkpt>
      <trkpt lat="45.06313" lon="5.50511">
        <ele>1183</ele>
        <time>2021-05-18T09:37:38Z</time>
      </trkpt>
      <trkpt lat="45.0633" lon="5.50497">
        <ele>1180</ele>
        <time>2021-05-18T09:37:42Z</time>
      </trkpt>
      <trkpt lat="45.06348" lon="5.50471">
        <ele>1179</ele>
        <time>2021-05-18T09:37:46Z</time>
      </trkpt>
      <trkpt lat="45.0638" lon="5.50375">
        <ele>1177</ele>
        <time>2021-05-18T09:38:00Z</time>
      </trkpt>
      <trkpt lat="45.06405" lon="5.50336">
        <ele>1174</ele>
        <time>2021-05-18T09:38:06Z</time>
      </trkpt>
      <trkpt lat="45.06418" lon="5.50315">
        <ele>1173</ele>
        <time>2021-05-18T09:38:10Z</time>
      </trkpt>
      <trkpt lat="45.06428" lon="5.50296">
        <ele>1174</ele>
        <time>2021-05-18T09:38:13Z</time>
      </trkpt>
      <trkpt lat="45.0644" lon="5.50276">
        <ele>1173</ele>
        <time>2021-05-18T09:38:16Z</time>
      </trkpt>
      <trkpt lat="45.06452" lon="5.50246">
        <ele>1174</ele>
        <time>2021-05-18T09:38:20Z</time>
      </trkpt>
      <trkpt lat="45.06462" lon="5.50218">
        <ele>1176</ele>
        <time>2021-05-18T09:38:24Z</time>
      </trkpt>
      <trkpt lat="45.06464" lon="5.50177">
        <ele>1183</ele>
        <time>2021-05-18T09:38:30Z</time>
      </trkpt>
      <trkpt lat="45.0648" lon="5.50153">
        <ele>1183</ele>
        <time>2021-05-18T09:38:34Z</time>
      </trkpt>
      <trkpt lat="45.06503" lon="5.50121">
        <ele>1185</ele>
        <time>2021-05-18T09:38:39Z</time>
      </trkpt>
      <trkpt lat="45.06532" lon="5.50093">
        <ele>1187</ele>
        <time>2021-05-18T09:38:46Z</time>
      </trkpt>
      <trkpt lat="45.06569" lon="5.50067">
        <ele>1188</ele>
        <time>2021-05-18T09:38:53Z</time>
      </trkpt>
      <trkpt lat="45.0659" lon="5.50036">
        <ele>1191</ele>
        <time>2021-05-18T09:38:58Z</time>
      </trkpt>
      <trkpt lat="45.06597" lon="5.50025">
        <ele>1192</ele>
        <time>2021-05-18T09:39:00Z</time>
      </trkpt>
      <trkpt lat="45.06613" lon="5.50008">
        <ele>1191</ele>
        <time>2021-05-18T09:39:04Z</time>
      </trkpt>
      <trkpt lat="45.06625" lon="5.49994">
        <ele>1190</ele>
        <time>2021-05-18T09:39:07Z</time>
      </trkpt>
      <trkpt lat="45.06629" lon="5.49978">
        <ele>1190</ele>
        <time>2021-05-18T09:39:09Z</time>
      </trkpt>
      <trkpt lat="45.06627" lon="5.49968">
        <ele>1191</ele>
        <time>2021-05-18T09:39:10Z</time>
      </trkpt>
      <trkpt lat="45.0662" lon="5.49955">
        <ele>1195</ele>
        <time>2021-05-18T09:39:12Z</time>
      </trkpt>
      <trkpt lat="45.06607" lon="5.49935">
        <ele>1201</ele>
        <time>2021-05-18T09:39:15Z</time>
      </trkpt>
      <trkpt lat="45.06598" lon="5.49911">
        <ele>1205</ele>
        <time>2021-05-18T09:39:19Z</time>
      </trkpt>
      <trkpt lat="45.066" lon="5.49887">
        <ele>1205</ele>
        <time>2021-05-18T09:39:22Z</time>
      </trkpt>
      <trkpt lat="45.06623" lon="5.49852">
        <ele>1197</ele>
        <time>2021-05-18T09:39:28Z</time>
      </trkpt>
      <trkpt lat="45.06627" lon="5.49836">
        <ele>1196</ele>
        <time>2021-05-18T09:39:30Z</time>
      </trkpt>
      <trkpt lat="45.06624" lon="5.49814">
        <ele>1196</ele>
        <time>2021-05-18T09:39:33Z</time>
      </trkpt>
      <trkpt lat="45.06614" lon="5.49788">
        <ele>1199</ele>
        <time>2021-05-18T09:39:37Z</time>
      </trkpt>
      <trkpt lat="45.06605" lon="5.49755">
        <ele>1200</ele>
        <time>2021-05-18T09:39:41Z</time>
      </trkpt>
      <trkpt lat="45.06569" lon="5.49665">
        <ele>1194</ele>
        <time>2021-05-18T09:39:54Z</time>
      </trkpt>
      <trkpt lat="45.06553" lon="5.49655">
        <ele>1195</ele>
        <time>2021-05-18T09:39:57Z</time>
      </trkpt>
      <trkpt lat="45.06534" lon="5.49646">
        <ele>1199</ele>
        <time>2021-05-18T09:40:01Z</time>
      </trkpt>
      <trkpt lat="45.06516" lon="5.49631">
        <ele>1199</ele>
        <time>2021-05-18T09:40:04Z</time>
      </trkpt>
      <trkpt lat="45.06501" lon="5.49617">
        <ele>1198</ele>
        <time>2021-05-18T09:40:08Z</time>
      </trkpt>
      <trkpt lat="45.06474" lon="5.49582">
        <ele>1199</ele>
        <time>2021-05-18T09:40:14Z</time>
      </trkpt>
      <trkpt lat="45.06456" lon="5.4954">
        <ele>1188</ele>
        <time>2021-05-18T09:40:20Z</time>
      </trkpt>
      <trkpt lat="45.06445" lon="5.49507">
        <ele>1177</ele>
        <time>2021-05-18T09:40:25Z</time>
      </trkpt>
      <trkpt lat="45.06441" lon="5.49493">
        <ele>1173</ele>
        <time>2021-05-18T09:40:27Z</time>
      </trkpt>
      <trkpt lat="45.06424" lon="5.49483">
        <ele>1179</ele>
        <time>2021-05-18T09:40:30Z</time>
      </trkpt>
      <trkpt lat="45.06403" lon="5.49475">
        <ele>1186</ele>
        <time>2021-05-18T09:40:34Z</time>
      </trkpt>
      <trkpt lat="45.06392" lon="5.49472">
        <ele>1190</ele>
        <time>2021-05-18T09:40:36Z</time>
      </trkpt>
      <trkpt lat="45.06379" lon="5.49447">
        <ele>1188</ele>
        <time>2021-05-18T09:40:40Z</time>
      </trkpt>
      <trkpt lat="45.06372" lon="5.49424">
        <ele>1183</ele>
        <time>2021-05-18T09:40:43Z</time>
      </trkpt>
      <trkpt lat="45.06367" lon="5.49378">
        <ele>1173</ele>
        <time>2021-05-18T09:40:49Z</time>
      </trkpt>
      <trkpt lat="45.06363" lon="5.49356">
        <ele>1170</ele>
        <time>2021-05-18T09:40:52Z</time>
      </trkpt>
      <trkpt lat="45.06361" lon="5.49324">
        <ele>1164</ele>
        <time>2021-05-18T09:40:56Z</time>
      </trkpt>
      <trkpt lat="45.06351" lon="5.4928">
        <ele>1160</ele>
        <time>2021-05-18T09:41:02Z</time>
      </trkpt>
      <trkpt lat="45.06337" lon="5.49248">
        <ele>1161</ele>
        <time>2021-05-18T09:41:06Z</time>
      </trkpt>
      <trkpt lat="45.06337" lon="5.49222">
        <ele>1166</ele>
        <time>2021-05-18T09:41:10Z</time>
      </trkpt>
      <trkpt lat="45.0635" lon="5.49211">
        <ele>1161</ele>
        <time>2021-05-18T09:41:12Z</time>
      </trkpt>
      <trkpt lat="45.06355" lon="5.49199">
        <ele>1161</ele>
        <time>2021-05-18T09:41:14Z</time>
      </trkpt>
      <trkpt lat="45.06368" lon="5.49177">
        <ele>1158</ele>
        <time>2021-05-18T09:41:18Z</time>
      </trkpt>
      <trkpt lat="45.06386" lon="5.4916">
        <ele>1151</ele>
        <time>2021-05-18T09:41:21Z</time>
      </trkpt>
      <trkpt lat="45.06408" lon="5.49151">
        <ele>1142</ele>
        <time>2021-05-18T09:41:26Z</time>
      </trkpt>
      <trkpt lat="45.06428" lon="5.49137">
        <ele>1137</ele>
        <time>2021-05-18T09:41:30Z</time>
      </trkpt>
      <trkpt lat="45.06446" lon="5.49115">
        <ele>1135</ele>
        <time>2021-05-18T09:41:34Z</time>
      </trkpt>
      <trkpt lat="45.06481" lon="5.49072">
        <ele>1128</ele>
        <time>2021-05-18T09:41:42Z</time>
      </trkpt>
      <trkpt lat="45.06513" lon="5.4904">
        <ele>1121</ele>
        <time>2021-05-18T09:41:49Z</time>
      </trkpt>
      <trkpt lat="45.06499" lon="5.49016">
        <ele>1126</ele>
        <time>2021-05-18T09:41:53Z</time>
      </trkpt>
      <trkpt lat="45.06497" lon="5.48978">
        <ele>1129</ele>
        <time>2021-05-18T09:41:58Z</time>
      </trkpt>
      <trkpt lat="45.06489" lon="5.48925">
        <ele>1135</ele>
        <time>2021-05-18T09:42:04Z</time>
      </trkpt>
      <trkpt lat="45.06472" lon="5.48902">
        <ele>1141</ele>
        <time>2021-05-18T09:42:09Z</time>
      </trkpt>
      <trkpt lat="45.06451" lon="5.48864">
        <ele>1146</ele>
        <time>2021-05-18T09:42:15Z</time>
      </trkpt>
      <trkpt lat="45.06434" lon="5.48837">
        <ele>1150</ele>
        <time>2021-05-18T09:42:19Z</time>
      </trkpt>
      <trkpt lat="45.06418" lon="5.4881">
        <ele>1152</ele>
        <time>2021-05-18T09:42:24Z</time>
      </trkpt>
      <trkpt lat="45.06412" lon="5.48802">
        <ele>1153</ele>
        <time>2021-05-18T09:42:25Z</time>
      </trkpt>
      <trkpt lat="45.06406" lon="5.4877">
        <ele>1150</ele>
        <time>2021-05-18T09:42:29Z</time>
      </trkpt>
      <trkpt lat="45.06398" lon="5.48739">
        <ele>1148</ele>
        <time>2021-05-18T09:42:33Z</time>
      </trkpt>
      <trkpt lat="45.06372" lon="5.48662">
        <ele>1144</ele>
        <time>2021-05-18T09:42:44Z</time>
      </trkpt>
      <trkpt lat="45.06353" lon="5.48618">
        <ele>1146</ele>
        <time>2021-05-18T09:42:51Z</time>
      </trkpt>
      <trkpt lat="45.06333" lon="5.48574">
        <ele>1147</ele>
        <time>2021-05-18T09:42:57Z</time>
      </trkpt>
      <trkpt lat="45.06318" lon="5.48555">
        <ele>1151</ele>
        <time>2021-05-18T09:43:01Z</time>
      </trkpt>
      <trkpt lat="45.06296" lon="5.48489">
        <ele>1155</ele>
        <time>2021-05-18T09:43:10Z</time>
      </trkpt>
      <trkpt lat="45.0628" lon="5.48454">
        <ele>1157</ele>
        <time>2021-05-18T09:43:15Z</time>
      </trkpt>
      <trkpt lat="45.06266" lon="5.48413">
        <ele>1157</ele>
        <time>2021-05-18T09:43:21Z</time>
      </trkpt>
      <trkpt lat="45.06247" lon="5.48381">
        <ele>1165</ele>
        <time>2021-05-18T09:43:26Z</time>
      </trkpt>
      <trkpt lat="45.06196" lon="5.48339">
        <ele>1175</ele>
        <time>2021-05-18T09:43:37Z</time>
      </trkpt>
      <trkpt lat="45.0617" lon="5.48321">
        <ele>1179</ele>
        <time>2021-05-18T09:43:42Z</time>
      </trkpt>
      <trkpt lat="45.06159" lon="5.4833">
        <ele>1178</ele>
        <time>2021-05-18T09:43:44Z</time>
      </trkpt>
      <trkpt lat="45.06144" lon="5.48328">
        <ele>1180</ele>
        <time>2021-05-18T09:43:47Z</time>
      </trkpt>
      <trkpt lat="45.06122" lon="5.48301">
        <ele>1188</ele>
        <time>2021-05-18T09:43:52Z</time>
      </trkpt>
      <trkpt lat="45.0609" lon="5.4828">
        <ele>1194</ele>
        <time>2021-05-18T09:43:58Z</time>
      </trkpt>
      <trkpt lat="45.06079" lon="5.48267">
        <ele>1196</ele>
        <time>2021-05-18T09:44:01Z</time>
      </trkpt>
      <trkpt lat="45.06057" lon="5.48259">
        <ele>1201</ele>
        <time>2021-05-18T09:44:05Z</time>
      </trkpt>
      <trkpt lat="45.06046" lon="5.4826">
        <ele>1203</ele>
        <time>2021-05-18T09:44:07Z</time>
      </trkpt>
      <trkpt lat="45.06038" lon="5.48273">
        <ele>1203</ele>
        <time>2021-05-18T09:44:09Z</time>
      </trkpt>
      <trkpt lat="45.06023" lon="5.48275">
        <ele>1206</ele>
        <time>2021-05-18T09:44:12Z</time>
      </trkpt>
      <trkpt lat="45.06024" lon="5.48255">
        <ele>1206</ele>
        <time>2021-05-18T09:44:14Z</time>
      </trkpt>
      <trkpt lat="45.06012" lon="5.4825">
        <ele>1208</ele>
        <time>2021-05-18T09:44:16Z</time>
      </trkpt>
      <trkpt lat="45.06001" lon="5.48225">
        <ele>1215</ele>
        <time>2021-05-18T09:44:20Z</time>
      </trkpt>
      <trkpt lat="45.05984" lon="5.48214">
        <ele>1219</ele>
        <time>2021-05-18T09:44:23Z</time>
      </trkpt>
      <trkpt lat="45.05965" lon="5.4821">
        <ele>1222</ele>
        <time>2021-05-18T09:44:27Z</time>
      </trkpt>
      <trkpt lat="45.05959" lon="5.48201">
        <ele>1223</ele>
        <time>2021-05-18T09:44:28Z</time>
      </trkpt>
      <trkpt lat="45.0591" lon="5.4816">
        <ele>1230</ele>
        <time>2021-05-18T09:44:39Z</time>
      </trkpt>
      <trkpt lat="45.05888" lon="5.48147">
        <ele>1236</ele>
        <time>2021-05-18T09:44:43Z</time>
      </trkpt>
      <trkpt lat="45.05888" lon="5.48126">
        <ele>1239</ele>
        <time>2021-05-18T09:44:45Z</time>
      </trkpt>
      <trkpt lat="45.05872" lon="5.48112">
        <ele>1242</ele>
        <time>2021-05-18T09:44:49Z</time>
      </trkpt>
      <trkpt lat="45.05852" lon="5.48094">
        <ele>1244</ele>
        <time>2021-05-18T09:44:53Z</time>
      </trkpt>
      <trkpt lat="45.05842" lon="5.48083">
        <ele>1244</ele>
        <time>2021-05-18T09:44:55Z</time>
      </trkpt>
      <trkpt lat="45.05822" lon="5.48044">
        <ele>1251</ele>
        <time>2021-05-18T09:45:01Z</time>
      </trkpt>
      <trkpt lat="45.05777" lon="5.4797">
        <ele>1259</ele>
        <time>2021-05-18T09:45:14Z</time>
      </trkpt>
      <trkpt lat="45.05757" lon="5.47943">
        <ele>1259</ele>
        <time>2021-05-18T09:45:18Z</time>
      </trkpt>
      <trkpt lat="45.05743" lon="5.47931">
        <ele>1259</ele>
        <time>2021-05-18T09:45:21Z</time>
      </trkpt>
      <trkpt lat="45.05721" lon="5.47899">
        <ele>1262</ele>
        <time>2021-05-18T09:45:27Z</time>
      </trkpt>
      <trkpt lat="45.05718" lon="5.47879">
        <ele>1262</ele>
        <time>2021-05-18T09:45:30Z</time>
      </trkpt>
      <trkpt lat="45.05699" lon="5.47839">
        <ele>1262</ele>
        <time>2021-05-18T09:45:36Z</time>
      </trkpt>
      <trkpt lat="45.05688" lon="5.47837">
        <ele>1262</ele>
        <time>2021-05-18T09:45:38Z</time>
      </trkpt>
      <trkpt lat="45.05673" lon="5.47804">
        <ele>1262</ele>
        <time>2021-05-18T09:45:43Z</time>
      </trkpt>
      <trkpt lat="45.05616" lon="5.47735">
        <ele>1267</ele>
        <time>2021-05-18T09:45:56Z</time>
      </trkpt>
      <trkpt lat="45.05566" lon="5.47683">
        <ele>1271</ele>
        <time>2021-05-18T09:46:07Z</time>
      </trkpt>
      <trkpt lat="45.05552" lon="5.47657">
        <ele>1272</ele>
        <time>2021-05-18T09:46:11Z</time>
      </trkpt>
      <trkpt lat="45.05538" lon="5.47648">
        <ele>1275</ele>
        <time>2021-05-18T09:46:14Z</time>
      </trkpt>
      <trkpt lat="45.05533" lon="5.47671">
        <ele>1275</ele>
        <time>2021-05-18T09:46:17Z</time>
      </trkpt>
      <trkpt lat="45.05528" lon="5.47682">
        <ele>1277</ele>
        <time>2021-05-18T09:46:18Z</time>
      </trkpt>
      <trkpt lat="45.0552" lon="5.47693">
        <ele>1280</ele>
        <time>2021-05-18T09:46:20Z</time>
      </trkpt>
      <trkpt lat="45.05511" lon="5.477">
        <ele>1282</ele>
        <time>2021-05-18T09:46:22Z</time>
      </trkpt>
      <trkpt lat="45.05497" lon="5.47712">
        <ele>1286</ele>
        <time>2021-05-18T09:46:25Z</time>
      </trkpt>
      <trkpt lat="45.05484" lon="5.47729">
        <ele>1290</ele>
        <time>2021-05-18T09:46:28Z</time>
      </trkpt>
      <trkpt lat="45.0545" lon="5.47746">
        <ele>1298</ele>
        <time>2021-05-18T09:46:35Z</time>
      </trkpt>
      <trkpt lat="45.05421" lon="5.47725">
        <ele>1300</ele>
        <time>2021-05-18T09:46:41Z</time>
      </trkpt>
      <trkpt lat="45.05395" lon="5.4771">
        <ele>1302</ele>
        <time>2021-05-18T09:46:46Z</time>
      </trkpt>
      <trkpt lat="45.05375" lon="5.47704">
        <ele>1305</ele>
        <time>2021-05-18T09:46:49Z</time>
      </trkpt>
      <trkpt lat="45.05333" lon="5.4766">
        <ele>1306</ele>
        <time>2021-05-18T09:46:58Z</time>
      </trkpt>
      <trkpt lat="45.05311" lon="5.47652">
        <ele>1310</ele>
        <time>2021-05-18T09:47:02Z</time>
      </trkpt>
      <trkpt lat="45.05288" lon="5.47647">
        <ele>1314</ele>
        <time>2021-05-18T09:47:07Z</time>
      </trkpt>
      <trkpt lat="45.05267" lon="5.47629">
        <ele>1315</ele>
        <time>2021-05-18T09:47:11Z</time>
      </trkpt>
      <trkpt lat="45.05254" lon="5.47614">
        <ele>1315</ele>
        <time>2021-05-18T09:47:14Z</time>
      </trkpt>
      <trkpt lat="45.05238" lon="5.47603">
        <ele>1316</ele>
        <time>2021-05-18T09:47:17Z</time>
      </trkpt>
      <trkpt lat="45.05211" lon="5.47587">
        <ele>1318</ele>
        <time>2021-05-18T09:47:22Z</time>
      </trkpt>
      <trkpt lat="45.05182" lon="5.4759">
        <ele>1322</ele>
        <time>2021-05-18T09:47:28Z</time>
      </trkpt>
      <trkpt lat="45.05164" lon="5.47582">
        <ele>1324</ele>
        <time>2021-05-18T09:47:31Z</time>
      </trkpt>
      <trkpt lat="45.05147" lon="5.4758">
        <ele>1326</ele>
        <time>2021-05-18T09:47:34Z</time>
      </trkpt>
      <trkpt lat="45.05133" lon="5.47589">
        <ele>1328</ele>
        <time>2021-05-18T09:47:37Z</time>
      </trkpt>
      <trkpt lat="45.0511" lon="5.4759">
        <ele>1331</ele>
        <time>2021-05-18T09:47:41Z</time>
      </trkpt>
      <trkpt lat="45.05098" lon="5.47585">
        <ele>1332</ele>
        <time>2021-05-18T09:47:43Z</time>
      </trkpt>
      <trkpt lat="45.05084" lon="5.47584">
        <ele>1333</ele>
        <time>2021-05-18T09:47:45Z</time>
      </trkpt>
      <trkpt lat="45.05073" lon="5.47589">
        <ele>1335</ele>
        <time>2021-05-18T09:47:48Z</time>
      </trkpt>
      <trkpt lat="45.05037" lon="5.47608">
        <ele>1340</ele>
        <time>2021-05-18T09:47:54Z</time>
      </trkpt>
      <trkpt lat="45.05005" lon="5.4762">
        <ele>1343</ele>
        <time>2021-05-18T09:48:00Z</time>
      </trkpt>
      <trkpt lat="45.04951" lon="5.47648">
        <ele>1351</ele>
        <time>2021-05-18T09:48:10Z</time>
      </trkpt>
      <trkpt lat="45.04931" lon="5.47659">
        <ele>1353</ele>
        <time>2021-05-18T09:48:14Z</time>
      </trkpt>
      <trkpt lat="45.04823" lon="5.47672">
        <ele>1364</ele>
        <time>2021-05-18T09:48:34Z</time>
      </trkpt>
      <trkpt lat="45.0479" lon="5.47676">
        <ele>1367</ele>
        <time>2021-05-18T09:48:39Z</time>
      </trkpt>
      <trkpt lat="45.04721" lon="5.47703">
        <ele>1373</ele>
        <time>2021-05-18T09:48:52Z</time>
      </trkpt>
      <trkpt lat="45.0471" lon="5.47711">
        <ele>1375</ele>
        <time>2021-05-18T09:48:54Z</time>
      </trkpt>
      <trkpt lat="45.04696" lon="5.47703">
        <ele>1375</ele>
        <time>2021-05-18T09:48:57Z</time>
      </trkpt>
      <trkpt lat="45.04684" lon="5.47704">
        <ele>1375</ele>
        <time>2021-05-18T09:48:59Z</time>
      </trkpt>
      <trkpt lat="45.04607" lon="5.4769">
        <ele>1378</ele>
        <time>2021-05-18T09:49:13Z</time>
      </trkpt>
      <trkpt lat="45.04586" lon="5.47682">
        <ele>1378</ele>
        <time>2021-05-18T09:49:17Z</time>
      </trkpt>
      <trkpt lat="45.0454" lon="5.47657">
        <ele>1374</ele>
        <time>2021-05-18T09:49:26Z</time>
      </trkpt>
      <trkpt lat="45.04529" lon="5.47657">
        <ele>1373</ele>
        <time>2021-05-18T09:49:28Z</time>
      </trkpt>
      <trkpt lat="45.04529" lon="5.47682">
        <ele>1375</ele>
        <time>2021-05-18T09:49:31Z</time>
      </trkpt>
      <trkpt lat="45.04532" lon="5.47709">
        <ele>1378</ele>
        <time>2021-05-18T09:49:34Z</time>
      </trkpt>
      <trkpt lat="45.04535" lon="5.47731">
        <ele>1381</ele>
        <time>2021-05-18T09:49:37Z</time>
      </trkpt>
      <trkpt lat="45.0457" lon="5.47781">
        <ele>1390</ele>
        <time>2021-05-18T09:49:46Z</time>
      </trkpt>
      <trkpt lat="45.04593" lon="5.47814">
        <ele>1396</ele>
        <time>2021-05-18T09:49:52Z</time>
      </trkpt>
      <trkpt lat="45.0464" lon="5.47843">
        <ele>1398</ele>
        <time>2021-05-18T09:50:01Z</time>
      </trkpt>
      <trkpt lat="45.04702" lon="5.47866">
        <ele>1400</ele>
        <time>2021-05-18T09:50:12Z</time>
      </trkpt>
      <trkpt lat="45.04783" lon="5.47895">
        <ele>1403</ele>
        <time>2021-05-18T09:50:27Z</time>
      </trkpt>
      <trkpt lat="45.04851" lon="5.47921">
        <ele>1405</ele>
        <time>2021-05-18T09:50:40Z</time>
      </trkpt>
      <trkpt lat="45.04931" lon="5.47958">
        <ele>1416</ele>
        <time>2021-05-18T09:50:55Z</time>
      </trkpt>
      <trkpt lat="45.04982" lon="5.47979">
        <ele>1422</ele>
        <time>2021-05-18T09:51:04Z</time>
      </trkpt>
      <trkpt lat="45.05013" lon="5.47992">
        <ele>1426</ele>
        <time>2021-05-18T09:51:10Z</time>
      </trkpt>
      <trkpt lat="45.05056" lon="5.47991">
        <ele>1424</ele>
        <time>2021-05-18T09:51:17Z</time>
      </trkpt>
      <trkpt lat="45.05077" lon="5.47994">
        <ele>1424</ele>
        <time>2021-05-18T09:51:21Z</time>
      </trkpt>
      <trkpt lat="45.0509" lon="5.47996">
        <ele>1424</ele>
        <time>2021-05-18T09:51:24Z</time>
      </trkpt>
      <trkpt lat="45.05097" lon="5.48003">
        <ele>1426</ele>
        <time>2021-05-18T09:51:25Z</time>
      </trkpt>
      <trkpt lat="45.05094" lon="5.48012">
        <ele>1431</ele>
        <time>2021-05-18T09:51:26Z</time>
      </trkpt>
      <trkpt lat="45.05084" lon="5.4801">
        <ele>1431</ele>
        <time>2021-05-18T09:51:28Z</time>
      </trkpt>
      <trkpt lat="45.05065" lon="5.48009">
        <ele>1432</ele>
        <time>2021-05-18T09:51:32Z</time>
      </trkpt>
      <trkpt lat="45.05017" lon="5.48014">
        <ele>1437</ele>
        <time>2021-05-18T09:51:40Z</time>
      </trkpt>
      <trkpt lat="45.04977" lon="5.48013">
        <ele>1438</ele>
        <time>2021-05-18T09:51:47Z</time>
      </trkpt>
      <trkpt lat="45.04913" lon="5.48015">
        <ele>1440</ele>
        <time>2021-05-18T09:51:59Z</time>
      </trkpt>
      <trkpt lat="45.04812" lon="5.48023">
        <ele>1450</ele>
        <time>2021-05-18T09:52:17Z</time>
      </trkpt>
      <trkpt lat="45.04718" lon="5.48033">
        <ele>1457</ele>
        <time>2021-05-18T09:52:33Z</time>
      </trkpt>
      <trkpt lat="45.04632" lon="5.48056">
        <ele>1468</ele>
        <time>2021-05-18T09:52:49Z</time>
      </trkpt>
      <trkpt lat="45.04585" lon="5.48064">
        <ele>1472</ele>
        <time>2021-05-18T09:52:57Z</time>
      </trkpt>
      <trkpt lat="45.04503" lon="5.48086">
        <ele>1482</ele>
        <time>2021-05-18T09:53:12Z</time>
      </trkpt>
      <trkpt lat="45.04477" lon="5.481">
        <ele>1484</ele>
        <time>2021-05-18T09:53:17Z</time>
      </trkpt>
      <trkpt lat="45.04423" lon="5.48123">
        <ele>1484</ele>
        <time>2021-05-18T09:53:27Z</time>
      </trkpt>
      <trkpt lat="45.0441" lon="5.48128">
        <ele>1484</ele>
        <time>2021-05-18T09:53:30Z</time>
      </trkpt>
      <trkpt lat="45.04392" lon="5.48147">
        <ele>1486</ele>
        <time>2021-05-18T09:53:34Z</time>
      </trkpt>
      <trkpt lat="45.04384" lon="5.48168">
        <ele>1490</ele>
        <time>2021-05-18T09:53:37Z</time>
      </trkpt>
      <trkpt lat="45.04384" lon="5.48189">
        <ele>1491</ele>
        <time>2021-05-18T09:53:39Z</time>
      </trkpt>
      <trkpt lat="45.04393" lon="5.48237">
        <ele>1497</ele>
        <time>2021-05-18T09:53:45Z</time>
      </trkpt>
      <trkpt lat="45.04412" lon="5.48267">
        <ele>1504</ele>
        <time>2021-05-18T09:53:51Z</time>
      </trkpt>
      <trkpt lat="45.0444" lon="5.48306">
        <ele>1508</ele>
        <time>2021-05-18T09:53:58Z</time>
      </trkpt>
      <trkpt lat="45.04464" lon="5.48329">
        <ele>1513</ele>
        <time>2021-05-18T09:54:03Z</time>
      </trkpt>
      <trkpt lat="45.04484" lon="5.48348">
        <ele>1517</ele>
        <time>2021-05-18T09:54:07Z</time>
      </trkpt>
      <trkpt lat="45.04491" lon="5.48366">
        <ele>1518</ele>
        <time>2021-05-18T09:54:10Z</time>
      </trkpt>
      <trkpt lat="45.045" lon="5.48369">
        <ele>1521</ele>
        <time>2021-05-18T09:54:11Z</time>
      </trkpt>
      <trkpt lat="45.04499" lon="5.4836">
        <ele>1521</ele>
        <time>2021-05-18T09:54:12Z</time>
      </trkpt>
      <trkpt lat="45.04495" lon="5.48344">
        <ele>1521</ele>
        <time>2021-05-18T09:54:14Z</time>
      </trkpt>
      <trkpt lat="45.04478" lon="5.483">
        <ele>1519</ele>
        <time>2021-05-18T09:54:21Z</time>
      </trkpt>
      <trkpt lat="45.04484" lon="5.4829">
        <ele>1521</ele>
        <time>2021-05-18T09:54:22Z</time>
      </trkpt>
      <trkpt lat="45.04497" lon="5.48294">
        <ele>1525</ele>
        <time>2021-05-18T09:54:25Z</time>
      </trkpt>
      <trkpt lat="45.04511" lon="5.48307">
        <ele>1526</ele>
        <time>2021-05-18T09:54:28Z</time>
      </trkpt>
      <trkpt lat="45.04517" lon="5.4827">
        <ele>1529</ele>
        <time>2021-05-18T09:54:33Z</time>
      </trkpt>
      <trkpt lat="45.04521" lon="5.4825">
        <ele>1531</ele>
        <time>2021-05-18T09:54:35Z</time>
      </trkpt>
      <trkpt lat="45.04536" lon="5.48242">
        <ele>1531</ele>
        <time>2021-05-18T09:54:38Z</time>
      </trkpt>
      <trkpt lat="45.04557" lon="5.4825">
        <ele>1535</ele>
        <time>2021-05-18T09:54:42Z</time>
      </trkpt>
      <trkpt lat="45.04575" lon="5.48251">
        <ele>1537</ele>
        <time>2021-05-18T09:54:45Z</time>
      </trkpt>
      <trkpt lat="45.04585" lon="5.48249">
        <ele>1538</ele>
        <time>2021-05-18T09:54:47Z</time>
      </trkpt>
      <trkpt lat="45.04598" lon="5.48239">
        <ele>1537</ele>
        <time>2021-05-18T09:54:50Z</time>
      </trkpt>
      <trkpt lat="45.04609" lon="5.48232">
        <ele>1537</ele>
        <time>2021-05-18T09:54:52Z</time>
      </trkpt>
      <trkpt lat="45.04621" lon="5.48226">
        <ele>1537</ele>
        <time>2021-05-18T09:54:54Z</time>
      </trkpt>
      <trkpt lat="45.04631" lon="5.48225">
        <ele>1538</ele>
        <time>2021-05-18T09:54:56Z</time>
      </trkpt>
      <trkpt lat="45.04647" lon="5.48231">
        <ele>1541</ele>
        <time>2021-05-18T09:54:59Z</time>
      </trkpt>
      <trkpt lat="45.0466" lon="5.48239">
        <ele>1546</ele>
        <time>2021-05-18T09:55:01Z</time>
      </trkpt>
      <trkpt lat="45.04672" lon="5.48239">
        <ele>1547</ele>
        <time>2021-05-18T09:55:03Z</time>
      </trkpt>
      <trkpt lat="45.04704" lon="5.48229">
        <ele>1544</ele>
        <time>2021-05-18T09:55:09Z</time>
      </trkpt>
      <trkpt lat="45.04728" lon="5.48235">
        <ele>1546</ele>
        <time>2021-05-18T09:55:13Z</time>
      </trkpt>
      <trkpt lat="45.04741" lon="5.48236">
        <ele>1547</ele>
        <time>2021-05-18T09:55:16Z</time>
      </trkpt>
      <trkpt lat="45.04763" lon="5.48214">
        <ele>1541</ele>
        <time>2021-05-18T09:55:21Z</time>
      </trkpt>
      <trkpt lat="45.0478" lon="5.482">
        <ele>1536</ele>
        <time>2021-05-18T09:55:24Z</time>
      </trkpt>
      <trkpt lat="45.04789" lon="5.48189">
        <ele>1533</ele>
        <time>2021-05-18T09:55:26Z</time>
      </trkpt>
      <trkpt lat="45.04802" lon="5.48193">
        <ele>1534</ele>
        <time>2021-05-18T09:55:29Z</time>
      </trkpt>
      <trkpt lat="45.04818" lon="5.48201">
        <ele>1536</ele>
        <time>2021-05-18T09:55:32Z</time>
      </trkpt>
      <trkpt lat="45.04857" lon="5.48223">
        <ele>1539</ele>
        <time>2021-05-18T09:55:39Z</time>
      </trkpt>
      <trkpt lat="45.04912" lon="5.48255">
        <ele>1539</ele>
        <time>2021-05-18T09:55:50Z</time>
      </trkpt>
      <trkpt lat="45.04941" lon="5.48265">
        <ele>1538</ele>
        <time>2021-05-18T09:55:55Z</time>
      </trkpt>
      <trkpt lat="45.04965" lon="5.48299">
        <ele>1537</ele>
        <time>2021-05-18T09:56:01Z</time>
      </trkpt>
      <trkpt lat="45.05007" lon="5.48338">
        <ele>1534</ele>
        <time>2021-05-18T09:56:10Z</time>
      </trkpt>
      <trkpt lat="45.05025" lon="5.48341">
        <ele>1532</ele>
        <time>2021-05-18T09:56:13Z</time>
      </trkpt>
      <trkpt lat="45.05039" lon="5.48348">
        <ele>1531</ele>
        <time>2021-05-18T09:56:16Z</time>
      </trkpt>
      <trkpt lat="45.05042" lon="5.48357">
        <ele>1531</ele>
        <time>2021-05-18T09:56:17Z</time>
      </trkpt>
      <trkpt lat="45.05051" lon="5.4837">
        <ele>1530</ele>
        <time>2021-05-18T09:56:19Z</time>
      </trkpt>
      <trkpt lat="45.05068" lon="5.48371">
        <ele>1529</ele>
        <time>2021-05-18T09:56:22Z</time>
      </trkpt>
      <trkpt lat="45.0513" lon="5.48387">
        <ele>1530</ele>
        <time>2021-05-18T09:56:34Z</time>
      </trkpt>
      <trkpt lat="45.05122" lon="5.4842">
        <ele>1530</ele>
        <time>2021-05-18T09:56:38Z</time>
      </trkpt>
      <trkpt lat="45.05089" lon="5.4848">
        <ele>1529</ele>
        <time>2021-05-18T09:56:48Z</time>
      </trkpt>
      <trkpt lat="45.05075" lon="5.48502">
        <ele>1528</ele>
        <time>2021-05-18T09:56:51Z</time>
      </trkpt>
      <trkpt lat="45.05053" lon="5.48515">
        <ele>1527</ele>
        <time>2021-05-18T09:56:55Z</time>
      </trkpt>
      <trkpt lat="45.05012" lon="5.48527">
        <ele>1524</ele>
        <time>2021-05-18T09:57:03Z</time>
      </trkpt>
      <trkpt lat="45.04966" lon="5.48559">
        <ele>1518</ele>
        <time>2021-05-18T09:57:12Z</time>
      </trkpt>
      <trkpt lat="45.04935" lon="5.48578">
        <ele>1513</ele>
        <time>2021-05-18T09:57:18Z</time>
      </trkpt>
      <trkpt lat="45.04908" lon="5.48622">
        <ele>1513</ele>
        <time>2021-05-18T09:57:25Z</time>
      </trkpt>
      <trkpt lat="45.04896" lon="5.48653">
        <ele>1516</ele>
        <time>2021-05-18T09:57:30Z</time>
      </trkpt>
      <trkpt lat="45.04879" lon="5.48695">
        <ele>1520</ele>
        <time>2021-05-18T09:57:36Z</time>
      </trkpt>
      <trkpt lat="45.04873" lon="5.48729">
        <ele>1523</ele>
        <time>2021-05-18T09:57:40Z</time>
      </trkpt>
      <trkpt lat="45.04855" lon="5.4879">
        <ele>1524</ele>
        <time>2021-05-18T09:57:49Z</time>
      </trkpt>
      <trkpt lat="45.04809" lon="5.48859">
        <ele>1520</ele>
        <time>2021-05-18T09:58:01Z</time>
      </trkpt>
      <trkpt lat="45.04737" lon="5.48933">
        <ele>1509</ele>
        <time>2021-05-18T09:58:16Z</time>
      </trkpt>
      <trkpt lat="45.04715" lon="5.48954">
        <ele>1506</ele>
        <time>2021-05-18T09:58:21Z</time>
      </trkpt>
      <trkpt lat="45.04701" lon="5.48974">
        <ele>1502</ele>
        <time>2021-05-18T09:58:25Z</time>
      </trkpt>
      <trkpt lat="45.04694" lon="5.48986">
        <ele>1500</ele>
        <time>2021-05-18T09:58:27Z</time>
      </trkpt>
      <trkpt lat="45.04686" lon="5.48991">
        <ele>1498</ele>
        <time>2021-05-18T09:58:28Z</time>
      </trkpt>
      <trkpt lat="45.04666" lon="5.49006">
        <ele>1494</ele>
        <time>2021-05-18T09:58:32Z</time>
      </trkpt>
      <trkpt lat="45.04599" lon="5.49006">
        <ele>1486</ele>
        <time>2021-05-18T09:58:44Z</time>
      </trkpt>
      <trkpt lat="45.04549" lon="5.49056">
        <ele>1477</ele>
        <time>2021-05-18T09:58:55Z</time>
      </trkpt>
      <trkpt lat="45.04522" lon="5.49129">
        <ele>1468</ele>
        <time>2021-05-18T09:59:05Z</time>
      </trkpt>
      <trkpt lat="45.04521" lon="5.49156">
        <ele>1466</ele>
        <time>2021-05-18T09:59:09Z</time>
      </trkpt>
      <trkpt lat="45.04518" lon="5.49184">
        <ele>1463</ele>
        <time>2021-05-18T09:59:12Z</time>
      </trkpt>
      <trkpt lat="45.04503" lon="5.49251">
        <ele>1453</ele>
        <time>2021-05-18T09:59:21Z</time>
      </trkpt>
      <trkpt lat="45.04457" lon="5.49285">
        <ele>1448</ele>
        <time>2021-05-18T09:59:30Z</time>
      </trkpt>
      <trkpt lat="45.04399" lon="5.49303">
        <ele>1442</ele>
        <time>2021-05-18T09:59:41Z</time>
      </trkpt>
      <trkpt lat="45.0437" lon="5.49322">
        <ele>1439</ele>
        <time>2021-05-18T09:59:47Z</time>
      </trkpt>
      <trkpt lat="45.04339" lon="5.49315">
        <ele>1437</ele>
        <time>2021-05-18T09:59:52Z</time>
      </trkpt>
      <trkpt lat="45.04306" lon="5.49329">
        <ele>1433</ele>
        <time>2021-05-18T09:59:58Z</time>
      </trkpt>
      <trkpt lat="45.04292" lon="5.49335">
        <ele>1432</ele>
        <time>2021-05-18T10:00:01Z</time>
      </trkpt>
      <trkpt lat="45.0423" lon="5.49336">
        <ele>1427</ele>
        <time>2021-05-18T10:00:12Z</time>
      </trkpt>
      <trkpt lat="45.04115" lon="5.49359">
        <ele>1415</ele>
        <time>2021-05-18T10:00:33Z</time>
      </trkpt>
      <trkpt lat="45.04065" lon="5.49371">
        <ele>1409</ele>
        <time>2021-05-18T10:00:42Z</time>
      </trkpt>
      <trkpt lat="45.04037" lon="5.49377">
        <ele>1406</ele>
        <time>2021-05-18T10:00:47Z</time>
      </trkpt>
      <trkpt lat="45.03995" lon="5.49385">
        <ele>1401</ele>
        <time>2021-05-18T10:00:54Z</time>
      </trkpt>
      <trkpt lat="45.03932" lon="5.49399">
        <ele>1394</ele>
        <time>2021-05-18T10:01:06Z</time>
      </trkpt>
      <trkpt lat="45.03876" lon="5.49393">
        <ele>1393</ele>
        <time>2021-05-18T10:01:16Z</time>
      </trkpt>
      <trkpt lat="45.03838" lon="5.49391">
        <ele>1393</ele>
        <time>2021-05-18T10:01:22Z</time>
      </trkpt>
      <trkpt lat="45.03789" lon="5.49374">
        <ele>1394</ele>
        <time>2021-05-18T10:01:31Z</time>
      </trkpt>
      <trkpt lat="45.03739" lon="5.49374">
        <ele>1395</ele>
        <time>2021-05-18T10:01:40Z</time>
      </trkpt>
      <trkpt lat="45.03664" lon="5.49366">
        <ele>1397</ele>
        <time>2021-05-18T10:01:54Z</time>
      </trkpt>
      <trkpt lat="45.03663" lon="5.49382">
        <ele>1394</ele>
        <time>2021-05-18T10:01:56Z</time>
      </trkpt>
      <trkpt lat="45.0368" lon="5.49402">
        <ele>1389</ele>
        <time>2021-05-18T10:02:00Z</time>
      </trkpt>
      <trkpt lat="45.03668" lon="5.49415">
        <ele>1386</ele>
        <time>2021-05-18T10:02:02Z</time>
      </trkpt>
      <trkpt lat="45.03657" lon="5.49407">
        <ele>1389</ele>
        <time>2021-05-18T10:02:04Z</time>
      </trkpt>
      <trkpt lat="45.0362" lon="5.49431">
        <ele>1384</ele>
        <time>2021-05-18T10:02:12Z</time>
      </trkpt>
      <trkpt lat="45.03571" lon="5.49498">
        <ele>1367</ele>
        <time>2021-05-18T10:02:24Z</time>
      </trkpt>
      <trkpt lat="45.03537" lon="5.49513">
        <ele>1362</ele>
        <time>2021-05-18T10:02:30Z</time>
      </trkpt>
      <trkpt lat="45.03503" lon="5.49528">
        <ele>1357</ele>
        <time>2021-05-18T10:02:37Z</time>
      </trkpt>
      <trkpt lat="45.03483" lon="5.49544">
        <ele>1352</ele>
        <time>2021-05-18T10:02:41Z</time>
      </trkpt>
      <trkpt lat="45.03464" lon="5.49557">
        <ele>1347</ele>
        <time>2021-05-18T10:02:44Z</time>
      </trkpt>
      <trkpt lat="45.03446" lon="5.49579">
        <ele>1340</ele>
        <time>2021-05-18T10:02:49Z</time>
      </trkpt>
      <trkpt lat="45.03441" lon="5.49597">
        <ele>1335</ele>
        <time>2021-05-18T10:02:51Z</time>
      </trkpt>
      <trkpt lat="45.03423" lon="5.49631">
        <ele>1325</ele>
        <time>2021-05-18T10:02:56Z</time>
      </trkpt>
      <trkpt lat="45.03412" lon="5.49657">
        <ele>1319</ele>
        <time>2021-05-18T10:03:00Z</time>
      </trkpt>
      <trkpt lat="45.03395" lon="5.49639">
        <ele>1325</ele>
        <time>2021-05-18T10:03:04Z</time>
      </trkpt>
      <trkpt lat="45.03384" lon="5.49633">
        <ele>1327</ele>
        <time>2021-05-18T10:03:06Z</time>
      </trkpt>
      <trkpt lat="45.03368" lon="5.49634">
        <ele>1328</ele>
        <time>2021-05-18T10:03:09Z</time>
      </trkpt>
      <trkpt lat="45.03345" lon="5.49642">
        <ele>1328</ele>
        <time>2021-05-18T10:03:13Z</time>
      </trkpt>
      <trkpt lat="45.03324" lon="5.49653">
        <ele>1328</ele>
        <time>2021-05-18T10:03:17Z</time>
      </trkpt>
      <trkpt lat="45.03303" lon="5.49652">
        <ele>1330</ele>
        <time>2021-05-18T10:03:21Z</time>
      </trkpt>
      <trkpt lat="45.03268" lon="5.49625">
        <ele>1335</ele>
        <time>2021-05-18T10:03:28Z</time>
      </trkpt>
      <trkpt lat="45.03245" lon="5.49607">
        <ele>1337</ele>
        <time>2021-05-18T10:03:33Z</time>
      </trkpt>
      <trkpt lat="45.03204" lon="5.4961">
        <ele>1335</ele>
        <time>2021-05-18T10:03:40Z</time>
      </trkpt>
      <trkpt lat="45.03189" lon="5.49601">
        <ele>1335</ele>
        <time>2021-05-18T10:03:43Z</time>
      </trkpt>
      <trkpt lat="45.03158" lon="5.49555">
        <ele>1339</ele>
        <time>2021-05-18T10:03:51Z</time>
      </trkpt>
      <trkpt lat="45.03149" lon="5.49541">
        <ele>1342</ele>
        <time>2021-05-18T10:03:53Z</time>
      </trkpt>
      <trkpt lat="45.03137" lon="5.49535">
        <ele>1343</ele>
        <time>2021-05-18T10:03:55Z</time>
      </trkpt>
      <trkpt lat="45.03115" lon="5.49535">
        <ele>1342</ele>
        <time>2021-05-18T10:03:59Z</time>
      </trkpt>
      <trkpt lat="45.03079" lon="5.49544">
        <ele>1339</ele>
        <time>2021-05-18T10:04:06Z</time>
      </trkpt>
      <trkpt lat="45.03021" lon="5.49575">
        <ele>1334</ele>
        <time>2021-05-18T10:04:17Z</time>
      </trkpt>
      <trkpt lat="45.0301" lon="5.49577">
        <ele>1333</ele>
        <time>2021-05-18T10:04:19Z</time>
      </trkpt>
      <trkpt lat="45.02993" lon="5.496">
        <ele>1332</ele>
        <time>2021-05-18T10:04:23Z</time>
      </trkpt>
      <trkpt lat="45.02998" lon="5.49618">
        <ele>1332</ele>
        <time>2021-05-18T10:04:25Z</time>
      </trkpt>
      <trkpt lat="45.02989" lon="5.49644">
        <ele>1333</ele>
        <time>2021-05-18T10:04:29Z</time>
      </trkpt>
      <trkpt lat="45.02984" lon="5.49663">
        <ele>1333</ele>
        <time>2021-05-18T10:04:32Z</time>
      </trkpt>
      <trkpt lat="45.02967" lon="5.49692">
        <ele>1336</ele>
        <time>2021-05-18T10:04:36Z</time>
      </trkpt>
      <trkpt lat="45.02963" lon="5.49722">
        <ele>1338</ele>
        <time>2021-05-18T10:04:40Z</time>
      </trkpt>
      <trkpt lat="45.02971" lon="5.49744">
        <ele>1339</ele>
        <time>2021-05-18T10:04:43Z</time>
      </trkpt>
      <trkpt lat="45.02962" lon="5.49777">
        <ele>1338</ele>
        <time>2021-05-18T10:04:48Z</time>
      </trkpt>
      <trkpt lat="45.02941" lon="5.49797">
        <ele>1337</ele>
        <time>2021-05-18T10:04:52Z</time>
      </trkpt>
      <trkpt lat="45.02912" lon="5.49808">
        <ele>1337</ele>
        <time>2021-05-18T10:04:58Z</time>
      </trkpt>
      <trkpt lat="45.02893" lon="5.49823">
        <ele>1337</ele>
        <time>2021-05-18T10:05:02Z</time>
      </trkpt>
      <trkpt lat="45.02802" lon="5.49853">
        <ele>1334</ele>
        <time>2021-05-18T10:05:18Z</time>
      </trkpt>
      <trkpt lat="45.02766" lon="5.49882">
        <ele>1329</ele>
        <time>2021-05-18T10:05:26Z</time>
      </trkpt>
      <trkpt lat="45.02715" lon="5.49896">
        <ele>1326</ele>
        <time>2021-05-18T10:05:35Z</time>
      </trkpt>
      <trkpt lat="45.02692" lon="5.49903">
        <ele>1323</ele>
        <time>2021-05-18T10:05:39Z</time>
      </trkpt>
      <trkpt lat="45.02653" lon="5.49946">
        <ele>1316</ele>
        <time>2021-05-18T10:05:48Z</time>
      </trkpt>
      <trkpt lat="45.02601" lon="5.49953">
        <ele>1312</ele>
        <time>2021-05-18T10:05:57Z</time>
      </trkpt>
      <trkpt lat="45.02583" lon="5.49977">
        <ele>1308</ele>
        <time>2021-05-18T10:06:01Z</time>
      </trkpt>
      <trkpt lat="45.02575" lon="5.50004">
        <ele>1303</ele>
        <time>2021-05-18T10:06:05Z</time>
      </trkpt>
      <trkpt lat="45.02563" lon="5.50015">
        <ele>1301</ele>
        <time>2021-05-18T10:06:08Z</time>
      </trkpt>
      <trkpt lat="45.02554" lon="5.50023">
        <ele>1300</ele>
        <time>2021-05-18T10:06:10Z</time>
      </trkpt>
      <trkpt lat="45.02548" lon="5.50041">
        <ele>1298</ele>
        <time>2021-05-18T10:06:12Z</time>
      </trkpt>
      <trkpt lat="45.02542" lon="5.50065">
        <ele>1295</ele>
        <time>2021-05-18T10:06:15Z</time>
      </trkpt>
      <trkpt lat="45.02521" lon="5.50093">
        <ele>1290</ele>
        <time>2021-05-18T10:06:20Z</time>
      </trkpt>
      <trkpt lat="45.02512" lon="5.50105">
        <ele>1288</ele>
        <time>2021-05-18T10:06:23Z</time>
      </trkpt>
      <trkpt lat="45.02499" lon="5.50152">
        <ele>1282</ele>
        <time>2021-05-18T10:06:29Z</time>
      </trkpt>
      <trkpt lat="45.02495" lon="5.50186">
        <ele>1279</ele>
        <time>2021-05-18T10:06:33Z</time>
      </trkpt>
      <trkpt lat="45.02487" lon="5.50233">
        <ele>1276</ele>
        <time>2021-05-18T10:06:39Z</time>
      </trkpt>
      <trkpt lat="45.02483" lon="5.5027">
        <ele>1274</ele>
        <time>2021-05-18T10:06:44Z</time>
      </trkpt>
      <trkpt lat="45.02475" lon="5.50294">
        <ele>1273</ele>
        <time>2021-05-18T10:06:47Z</time>
      </trkpt>
      <trkpt lat="45.0246" lon="5.50333">
        <ele>1271</ele>
        <time>2021-05-18T10:06:53Z</time>
      </trkpt>
      <trkpt lat="45.02461" lon="5.50376">
        <ele>1268</ele>
        <time>2021-05-18T10:06:58Z</time>
      </trkpt>
      <trkpt lat="45.02462" lon="5.50397">
        <ele>1267</ele>
        <time>2021-05-18T10:07:01Z</time>
      </trkpt>
      <trkpt lat="45.02455" lon="5.5042">
        <ele>1266</ele>
        <time>2021-05-18T10:07:04Z</time>
      </trkpt>
      <trkpt lat="45.02448" lon="5.50441">
        <ele>1264</ele>
        <time>2021-05-18T10:07:07Z</time>
      </trkpt>
      <trkpt lat="45.02441" lon="5.50461">
        <ele>1263</ele>
        <time>2021-05-18T10:07:10Z</time>
      </trkpt>
      <trkpt lat="45.02422" lon="5.50481">
        <ele>1262</ele>
        <time>2021-05-18T10:07:14Z</time>
      </trkpt>
      <trkpt lat="45.02412" lon="5.5049">
        <ele>1261</ele>
        <time>2021-05-18T10:07:16Z</time>
      </trkpt>
      <trkpt lat="45.02409" lon="5.50494">
        <ele>1260</ele>
        <time>2021-05-18T10:07:17Z</time>
      </trkpt>
      <trkpt lat="45.02408" lon="5.50517">
        <ele>1259</ele>
        <time>2021-05-18T10:07:20Z</time>
      </trkpt>
      <trkpt lat="45.02415" lon="5.50536">
        <ele>1258</ele>
        <time>2021-05-18T10:07:23Z</time>
      </trkpt>
      <trkpt lat="45.02424" lon="5.50565">
        <ele>1256</ele>
        <time>2021-05-18T10:07:27Z</time>
      </trkpt>
      <trkpt lat="45.02434" lon="5.50589">
        <ele>1254</ele>
        <time>2021-05-18T10:07:30Z</time>
      </trkpt>
      <trkpt lat="45.02437" lon="5.50617">
        <ele>1250</ele>
        <time>2021-05-18T10:07:34Z</time>
      </trkpt>
      <trkpt lat="45.02444" lon="5.50642">
        <ele>1247</ele>
        <time>2021-05-18T10:07:37Z</time>
      </trkpt>
      <trkpt lat="45.02448" lon="5.50663">
        <ele>1244</ele>
        <time>2021-05-18T10:07:40Z</time>
      </trkpt>
      <trkpt lat="45.02447" lon="5.50696">
        <ele>1240</ele>
        <time>2021-05-18T10:07:44Z</time>
      </trkpt>
      <trkpt lat="45.02422" lon="5.50738">
        <ele>1234</ele>
        <time>2021-05-18T10:07:51Z</time>
      </trkpt>
      <trkpt lat="45.02416" lon="5.50773">
        <ele>1229</ele>
        <time>2021-05-18T10:07:55Z</time>
      </trkpt>
      <trkpt lat="45.02395" lon="5.50802">
        <ele>1225</ele>
        <time>2021-05-18T10:08:01Z</time>
      </trkpt>
      <trkpt lat="45.02385" lon="5.5083">
        <ele>1222</ele>
        <time>2021-05-18T10:08:04Z</time>
      </trkpt>
      <trkpt lat="45.02374" lon="5.50862">
        <ele>1218</ele>
        <time>2021-05-18T10:08:09Z</time>
      </trkpt>
      <trkpt lat="45.02401" lon="5.50875">
        <ele>1218</ele>
        <time>2021-05-18T10:08:14Z</time>
      </trkpt>
      <trkpt lat="45.02407" lon="5.50907">
        <ele>1214</ele>
        <time>2021-05-18T10:08:18Z</time>
      </trkpt>
      <trkpt lat="45.02418" lon="5.50927">
        <ele>1212</ele>
        <time>2021-05-18T10:08:21Z</time>
      </trkpt>
      <trkpt lat="45.02439" lon="5.50934">
        <ele>1212</ele>
        <time>2021-05-18T10:08:25Z</time>
      </trkpt>
      <trkpt lat="45.0246" lon="5.50978">
        <ele>1209</ele>
        <time>2021-05-18T10:08:32Z</time>
      </trkpt>
      <trkpt lat="45.02482" lon="5.50996">
        <ele>1208</ele>
        <time>2021-05-18T10:08:36Z</time>
      </trkpt>
      <trkpt lat="45.0248" lon="5.51017">
        <ele>1206</ele>
        <time>2021-05-18T10:08:39Z</time>
      </trkpt>
      <trkpt lat="45.02492" lon="5.51032">
        <ele>1205</ele>
        <time>2021-05-18T10:08:42Z</time>
      </trkpt>
      <trkpt lat="45.02485" lon="5.51058">
        <ele>1203</ele>
        <time>2021-05-18T10:08:45Z</time>
      </trkpt>
      <trkpt lat="45.02477" lon="5.51091">
        <ele>1201</ele>
        <time>2021-05-18T10:08:50Z</time>
      </trkpt>
      <trkpt lat="45.02484" lon="5.51118">
        <ele>1199</ele>
        <time>2021-05-18T10:08:53Z</time>
      </trkpt>
      <trkpt lat="45.02457" lon="5.51177">
        <ele>1196</ele>
        <time>2021-05-18T10:09:02Z</time>
      </trkpt>
      <trkpt lat="45.0246" lon="5.51183">
        <ele>1195</ele>
        <time>2021-05-18T10:09:03Z</time>
      </trkpt>
      <trkpt lat="45.02463" lon="5.51209">
        <ele>1192</ele>
        <time>2021-05-18T10:09:07Z</time>
      </trkpt>
      <trkpt lat="45.02459" lon="5.51229">
        <ele>1191</ele>
        <time>2021-05-18T10:09:09Z</time>
      </trkpt>
      <trkpt lat="45.02462" lon="5.51246">
        <ele>1189</ele>
        <time>2021-05-18T10:09:11Z</time>
      </trkpt>
      <trkpt lat="45.0247" lon="5.51261">
        <ele>1188</ele>
        <time>2021-05-18T10:09:14Z</time>
      </trkpt>
      <trkpt lat="45.02477" lon="5.51272">
        <ele>1187</ele>
        <time>2021-05-18T10:09:16Z</time>
      </trkpt>
      <trkpt lat="45.02479" lon="5.51287">
        <ele>1185</ele>
        <time>2021-05-18T10:09:17Z</time>
      </trkpt>
      <trkpt lat="45.02476" lon="5.51307">
        <ele>1184</ele>
        <time>2021-05-18T10:09:20Z</time>
      </trkpt>
      <trkpt lat="45.02468" lon="5.51336">
        <ele>1182</ele>
        <time>2021-05-18T10:09:24Z</time>
      </trkpt>
      <trkpt lat="45.02454" lon="5.514">
        <ele>1180</ele>
        <time>2021-05-18T10:09:32Z</time>
      </trkpt>
      <trkpt lat="45.02459" lon="5.51433">
        <ele>1179</ele>
        <time>2021-05-18T10:09:37Z</time>
      </trkpt>
      <trkpt lat="45.02469" lon="5.51497">
        <ele>1179</ele>
        <time>2021-05-18T10:09:45Z</time>
      </trkpt>
      <trkpt lat="45.02487" lon="5.51532">
        <ele>1179</ele>
        <time>2021-05-18T10:09:50Z</time>
      </trkpt>
      <trkpt lat="45.02485" lon="5.51545">
        <ele>1178</ele>
        <time>2021-05-18T10:09:52Z</time>
      </trkpt>
      <trkpt lat="45.02476" lon="5.5156">
        <ele>1176</ele>
        <time>2021-05-18T10:09:54Z</time>
      </trkpt>
      <trkpt lat="45.0254" lon="5.5154">
        <ele>1182</ele>
        <time>2021-05-18T10:10:06Z</time>
      </trkpt>
      <trkpt lat="45.02586" lon="5.51524">
        <ele>1186</ele>
        <time>2021-05-18T10:10:15Z</time>
      </trkpt>
      <trkpt lat="45.02626" lon="5.5151">
        <ele>1189</ele>
        <time>2021-05-18T10:10:22Z</time>
      </trkpt>
      <trkpt lat="45.02635" lon="5.5151">
        <ele>1190</ele>
        <time>2021-05-18T10:10:23Z</time>
      </trkpt>
      <trkpt lat="45.02649" lon="5.51512">
        <ele>1191</ele>
        <time>2021-05-18T10:10:26Z</time>
      </trkpt>
      <trkpt lat="45.02656" lon="5.51508">
        <ele>1192</ele>
        <time>2021-05-18T10:10:27Z</time>
      </trkpt>
      <trkpt lat="45.02666" lon="5.51495">
        <ele>1193</ele>
        <time>2021-05-18T10:10:30Z</time>
      </trkpt>
      <trkpt lat="45.02673" lon="5.5148">
        <ele>1193</ele>
        <time>2021-05-18T10:10:32Z</time>
      </trkpt>
      <trkpt lat="45.02684" lon="5.51452">
        <ele>1195</ele>
        <time>2021-05-18T10:10:36Z</time>
      </trkpt>
      <trkpt lat="45.02719" lon="5.51389">
        <ele>1200</ele>
        <time>2021-05-18T10:10:46Z</time>
      </trkpt>
      <trkpt lat="45.02728" lon="5.51375">
        <ele>1201</ele>
        <time>2021-05-18T10:10:49Z</time>
      </trkpt>
      <trkpt lat="45.02759" lon="5.51339">
        <ele>1205</ele>
        <time>2021-05-18T10:10:56Z</time>
      </trkpt>
      <trkpt lat="45.02771" lon="5.51314">
        <ele>1205</ele>
        <time>2021-05-18T10:10:59Z</time>
      </trkpt>
      <trkpt lat="45.0279" lon="5.51276">
        <ele>1206</ele>
        <time>2021-05-18T10:11:05Z</time>
      </trkpt>
      <trkpt lat="45.02802" lon="5.51248">
        <ele>1206</ele>
        <time>2021-05-18T10:11:09Z</time>
      </trkpt>
      <trkpt lat="45.02811" lon="5.51208">
        <ele>1206</ele>
        <time>2021-05-18T10:11:15Z</time>
      </trkpt>
      <trkpt lat="45.0282" lon="5.51192">
        <ele>1206</ele>
        <time>2021-05-18T10:11:17Z</time>
      </trkpt>
      <trkpt lat="45.0286" lon="5.51176">
        <ele>1209</ele>
        <time>2021-05-18T10:11:25Z</time>
      </trkpt>
      <trkpt lat="45.02871" lon="5.51169">
        <ele>1209</ele>
        <time>2021-05-18T10:11:27Z</time>
      </trkpt>
      <trkpt lat="45.0294" lon="5.51123">
        <ele>1214</ele>
        <time>2021-05-18T10:11:40Z</time>
      </trkpt>
      <trkpt lat="45.02949" lon="5.51112">
        <ele>1215</ele>
        <time>2021-05-18T10:11:42Z</time>
      </trkpt>
      <trkpt lat="45.02962" lon="5.51084">
        <ele>1215</ele>
        <time>2021-05-18T10:11:47Z</time>
      </trkpt>
      <trkpt lat="45.02972" lon="5.51049">
        <ele>1214</ele>
        <time>2021-05-18T10:11:51Z</time>
      </trkpt>
      <trkpt lat="45.02979" lon="5.51005">
        <ele>1213</ele>
        <time>2021-05-18T10:11:57Z</time>
      </trkpt>
      <trkpt lat="45.02988" lon="5.50972">
        <ele>1213</ele>
        <time>2021-05-18T10:12:02Z</time>
      </trkpt>
      <trkpt lat="45.03003" lon="5.50947">
        <ele>1214</ele>
        <time>2021-05-18T10:12:06Z</time>
      </trkpt>
      <trkpt lat="45.0302" lon="5.50907">
        <ele>1216</ele>
        <time>2021-05-18T10:12:12Z</time>
      </trkpt>
      <trkpt lat="45.03047" lon="5.5084">
        <ele>1218</ele>
        <time>2021-05-18T10:12:21Z</time>
      </trkpt>
      <trkpt lat="45.03076" lon="5.50795">
        <ele>1222</ele>
        <time>2021-05-18T10:12:29Z</time>
      </trkpt>
      <trkpt lat="45.0308" lon="5.50779">
        <ele>1223</ele>
        <time>2021-05-18T10:12:31Z</time>
      </trkpt>
      <trkpt lat="45.03082" lon="5.50762">
        <ele>1224</ele>
        <time>2021-05-18T10:12:33Z</time>
      </trkpt>
      <trkpt lat="45.0308" lon="5.50721">
        <ele>1226</ele>
        <time>2021-05-18T10:12:38Z</time>
      </trkpt>
      <trkpt lat="45.03083" lon="5.50676">
        <ele>1227</ele>
        <time>2021-05-18T10:12:44Z</time>
      </trkpt>
      <trkpt lat="45.03097" lon="5.50638">
        <ele>1228</ele>
        <time>2021-05-18T10:12:49Z</time>
      </trkpt>
      <trkpt lat="45.03117" lon="5.50624">
        <ele>1229</ele>
        <time>2021-05-18T10:12:53Z</time>
      </trkpt>
      <trkpt lat="45.03132" lon="5.50605">
        <ele>1231</ele>
        <time>2021-05-18T10:12:57Z</time>
      </trkpt>
      <trkpt lat="45.03147" lon="5.50588">
        <ele>1232</ele>
        <time>2021-05-18T10:13:00Z</time>
      </trkpt>
      <trkpt lat="45.03163" lon="5.50579">
        <ele>1234</ele>
        <time>2021-05-18T10:13:04Z</time>
      </trkpt>
      <trkpt lat="45.03195" lon="5.5055">
        <ele>1237</ele>
        <time>2021-05-18T10:13:10Z</time>
      </trkpt>
      <trkpt lat="45.03212" lon="5.50533">
        <ele>1240</ele>
        <time>2021-05-18T10:13:14Z</time>
      </trkpt>
      <trkpt lat="45.03225" lon="5.50493">
        <ele>1244</ele>
        <time>2021-05-18T10:13:20Z</time>
      </trkpt>
      <trkpt lat="45.03235" lon="5.50481">
        <ele>1246</ele>
        <time>2021-05-18T10:13:22Z</time>
      </trkpt>
      <trkpt lat="45.03246" lon="5.50475">
        <ele>1248</ele>
        <time>2021-05-18T10:13:24Z</time>
      </trkpt>
      <trkpt lat="45.03277" lon="5.50466">
        <ele>1251</ele>
        <time>2021-05-18T10:13:30Z</time>
      </trkpt>
      <trkpt lat="45.03292" lon="5.50456">
        <ele>1254</ele>
        <time>2021-05-18T10:13:33Z</time>
      </trkpt>
      <trkpt lat="45.03319" lon="5.50454">
        <ele>1256</ele>
        <time>2021-05-18T10:13:37Z</time>
      </trkpt>
      <trkpt lat="45.03325" lon="5.50452">
        <ele>1257</ele>
        <time>2021-05-18T10:13:38Z</time>
      </trkpt>
      <trkpt lat="45.03328" lon="5.50444">
        <ele>1258</ele>
        <time>2021-05-18T10:13:40Z</time>
      </trkpt>
      <trkpt lat="45.0333" lon="5.5044">
        <ele>1259</ele>
        <time>2021-05-18T10:13:40Z</time>
      </trkpt>
      <trkpt lat="45.03329" lon="5.50427">
        <ele>1261</ele>
        <time>2021-05-18T10:13:42Z</time>
      </trkpt>
      <trkpt lat="45.03318" lon="5.5039">
        <ele>1265</ele>
        <time>2021-05-18T10:13:47Z</time>
      </trkpt>
      <trkpt lat="45.03296" lon="5.50332">
        <ele>1271</ele>
        <time>2021-05-18T10:13:55Z</time>
      </trkpt>
      <trkpt lat="45.03295" lon="5.50321">
        <ele>1272</ele>
        <time>2021-05-18T10:13:57Z</time>
      </trkpt>
      <trkpt lat="45.03298" lon="5.50308">
        <ele>1274</ele>
        <time>2021-05-18T10:13:58Z</time>
      </trkpt>
      <trkpt lat="45.03306" lon="5.50298">
        <ele>1275</ele>
        <time>2021-05-18T10:14:00Z</time>
      </trkpt>
      <trkpt lat="45.03331" lon="5.50285">
        <ele>1278</ele>
        <time>2021-05-18T10:14:05Z</time>
      </trkpt>
      <trkpt lat="45.03348" lon="5.50274">
        <ele>1280</ele>
        <time>2021-05-18T10:14:08Z</time>
      </trkpt>
      <trkpt lat="45.03373" lon="5.50265">
        <ele>1282</ele>
        <time>2021-05-18T10:14:13Z</time>
      </trkpt>
      <trkpt lat="45.03391" lon="5.50262">
        <ele>1283</ele>
        <time>2021-05-18T10:14:16Z</time>
      </trkpt>
      <trkpt lat="45.03397" lon="5.5026">
        <ele>1283</ele>
        <time>2021-05-18T10:14:17Z</time>
      </trkpt>
      <trkpt lat="45.03402" lon="5.50252">
        <ele>1284</ele>
        <time>2021-05-18T10:14:18Z</time>
      </trkpt>
      <trkpt lat="45.03408" lon="5.5022">
        <ele>1288</ele>
        <time>2021-05-18T10:14:23Z</time>
      </trkpt>
      <trkpt lat="45.03413" lon="5.50197">
        <ele>1290</ele>
        <time>2021-05-18T10:14:26Z</time>
      </trkpt>
      <trkpt lat="45.03414" lon="5.5016">
        <ele>1294</ele>
        <time>2021-05-18T10:14:30Z</time>
      </trkpt>
      <trkpt lat="45.03423" lon="5.5013">
        <ele>1299</ele>
        <time>2021-05-18T10:14:34Z</time>
      </trkpt>
      <trkpt lat="45.03443" lon="5.50157">
        <ele>1297</ele>
        <time>2021-05-18T10:14:39Z</time>
      </trkpt>
      <trkpt lat="45.03456" lon="5.50178">
        <ele>1295</ele>
        <time>2021-05-18T10:14:43Z</time>
      </trkpt>
      <trkpt lat="45.03466" lon="5.50187">
        <ele>1295</ele>
        <time>2021-05-18T10:14:45Z</time>
      </trkpt>
      <trkpt lat="45.03472" lon="5.50199">
        <ele>1294</ele>
        <time>2021-05-18T10:14:47Z</time>
      </trkpt>
      <trkpt lat="45.03483" lon="5.50219">
        <ele>1292</ele>
        <time>2021-05-18T10:14:50Z</time>
      </trkpt>
      <trkpt lat="45.0349" lon="5.50231">
        <ele>1291</ele>
        <time>2021-05-18T10:14:52Z</time>
      </trkpt>
      <trkpt lat="45.03501" lon="5.50239">
        <ele>1291</ele>
        <time>2021-05-18T10:14:54Z</time>
      </trkpt>
      <trkpt lat="45.03519" lon="5.50228">
        <ele>1292</ele>
        <time>2021-05-18T10:14:58Z</time>
      </trkpt>
      <trkpt lat="45.03534" lon="5.50226">
        <ele>1292</ele>
        <time>2021-05-18T10:15:00Z</time>
      </trkpt>
      <trkpt lat="45.03564" lon="5.50249">
        <ele>1287</ele>
        <time>2021-05-18T10:15:06Z</time>
      </trkpt>
      <trkpt lat="45.03571" lon="5.50258">
        <ele>1285</ele>
        <time>2021-05-18T10:15:08Z</time>
      </trkpt>
      <trkpt lat="45.03581" lon="5.50276">
        <ele>1282</ele>
        <time>2021-05-18T10:15:11Z</time>
      </trkpt>
      <trkpt lat="45.03587" lon="5.50286">
        <ele>1280</ele>
        <time>2021-05-18T10:15:13Z</time>
      </trkpt>
      <trkpt lat="45.03588" lon="5.50302">
        <ele>1277</ele>
        <time>2021-05-18T10:15:15Z</time>
      </trkpt>
      <trkpt lat="45.03581" lon="5.50352">
        <ele>1269</ele>
        <time>2021-05-18T10:15:21Z</time>
      </trkpt>
      <trkpt lat="45.03597" lon="5.50366">
        <ele>1268</ele>
        <time>2021-05-18T10:15:24Z</time>
      </trkpt>
      <trkpt lat="45.03602" lon="5.50382">
        <ele>1266</ele>
        <time>2021-05-18T10:15:27Z</time>
      </trkpt>
      <trkpt lat="45.03608" lon="5.50392">
        <ele>1264</ele>
        <time>2021-05-18T10:15:28Z</time>
      </trkpt>
      <trkpt lat="45.03615" lon="5.50403">
        <ele>1263</ele>
        <time>2021-05-18T10:15:30Z</time>
      </trkpt>
      <trkpt lat="45.03621" lon="5.50431">
        <ele>1261</ele>
        <time>2021-05-18T10:15:34Z</time>
      </trkpt>
      <trkpt lat="45.03627" lon="5.50463">
        <ele>1259</ele>
        <time>2021-05-18T10:15:38Z</time>
      </trkpt>
      <trkpt lat="45.03633" lon="5.50499">
        <ele>1257</ele>
        <time>2021-05-18T10:15:43Z</time>
      </trkpt>
      <trkpt lat="45.03642" lon="5.50546">
        <ele>1256</ele>
        <time>2021-05-18T10:15:49Z</time>
      </trkpt>
      <trkpt lat="45.03655" lon="5.50579">
        <ele>1255</ele>
        <time>2021-05-18T10:15:53Z</time>
      </trkpt>
      <trkpt lat="45.03667" lon="5.50635">
        <ele>1252</ele>
        <time>2021-05-18T10:16:01Z</time>
      </trkpt>
      <trkpt lat="45.03667" lon="5.50645">
        <ele>1252</ele>
        <time>2021-05-18T10:16:02Z</time>
      </trkpt>
      <trkpt lat="45.03668" lon="5.50689">
        <ele>1249</ele>
        <time>2021-05-18T10:16:08Z</time>
      </trkpt>
      <trkpt lat="45.03666" lon="5.50721">
        <ele>1247</ele>
        <time>2021-05-18T10:16:12Z</time>
      </trkpt>
      <trkpt lat="45.0367" lon="5.50748">
        <ele>1245</ele>
        <time>2021-05-18T10:16:15Z</time>
      </trkpt>
      <trkpt lat="45.03672" lon="5.50785">
        <ele>1245</ele>
        <time>2021-05-18T10:16:20Z</time>
      </trkpt>
      <trkpt lat="45.03673" lon="5.50821">
        <ele>1246</ele>
        <time>2021-05-18T10:16:24Z</time>
      </trkpt>
      <trkpt lat="45.03671" lon="5.5085">
        <ele>1247</ele>
        <time>2021-05-18T10:16:28Z</time>
      </trkpt>
      <trkpt lat="45.03674" lon="5.50889">
        <ele>1249</ele>
        <time>2021-05-18T10:16:33Z</time>
      </trkpt>
      <trkpt lat="45.03671" lon="5.50903">
        <ele>1250</ele>
        <time>2021-05-18T10:16:35Z</time>
      </trkpt>
      <trkpt lat="45.03667" lon="5.50937">
        <ele>1252</ele>
        <time>2021-05-18T10:16:39Z</time>
      </trkpt>
      <trkpt lat="45.03661" lon="5.50958">
        <ele>1254</ele>
        <time>2021-05-18T10:16:42Z</time>
      </trkpt>
      <trkpt lat="45.03651" lon="5.5098">
        <ele>1254</ele>
        <time>2021-05-18T10:16:45Z</time>
      </trkpt>
      <trkpt lat="45.03636" lon="5.51007">
        <ele>1255</ele>
        <time>2021-05-18T10:16:50Z</time>
      </trkpt>
      <trkpt lat="45.03622" lon="5.51034">
        <ele>1255</ele>
        <time>2021-05-18T10:16:54Z</time>
      </trkpt>
      <trkpt lat="45.03608" lon="5.5106">
        <ele>1255</ele>
        <time>2021-05-18T10:16:58Z</time>
      </trkpt>
      <trkpt lat="45.03593" lon="5.51089">
        <ele>1254</ele>
        <time>2021-05-18T10:17:02Z</time>
      </trkpt>
      <trkpt lat="45.03587" lon="5.5112">
        <ele>1254</ele>
        <time>2021-05-18T10:17:06Z</time>
      </trkpt>
      <trkpt lat="45.0358" lon="5.51153">
        <ele>1254</ele>
        <time>2021-05-18T10:17:11Z</time>
      </trkpt>
      <trkpt lat="45.03581" lon="5.51183">
        <ele>1256</ele>
        <time>2021-05-18T10:17:15Z</time>
      </trkpt>
      <trkpt lat="45.03582" lon="5.51198">
        <ele>1256</ele>
        <time>2021-05-18T10:17:16Z</time>
      </trkpt>
      <trkpt lat="45.03582" lon="5.51236">
        <ele>1258</ele>
        <time>2021-05-18T10:17:21Z</time>
      </trkpt>
      <trkpt lat="45.03572" lon="5.5129">
        <ele>1260</ele>
        <time>2021-05-18T10:17:28Z</time>
      </trkpt>
      <trkpt lat="45.03561" lon="5.51321">
        <ele>1261</ele>
        <time>2021-05-18T10:17:33Z</time>
      </trkpt>
      <trkpt lat="45.03529" lon="5.51366">
        <ele>1261</ele>
        <time>2021-05-18T10:17:41Z</time>
      </trkpt>
      <trkpt lat="45.03526" lon="5.51383">
        <ele>1260</ele>
        <time>2021-05-18T10:17:43Z</time>
      </trkpt>
      <trkpt lat="45.0351" lon="5.5138">
        <ele>1260</ele>
        <time>2021-05-18T10:17:46Z</time>
      </trkpt>
      <trkpt lat="45.03494" lon="5.51372">
        <ele>1260</ele>
        <time>2021-05-18T10:17:49Z</time>
      </trkpt>
      <trkpt lat="45.03481" lon="5.51367">
        <ele>1261</ele>
        <time>2021-05-18T10:17:51Z</time>
      </trkpt>
      <trkpt lat="45.03475" lon="5.51359">
        <ele>1262</ele>
        <time>2021-05-18T10:17:53Z</time>
      </trkpt>
      <trkpt lat="45.03471" lon="5.51361">
        <ele>1262</ele>
        <time>2021-05-18T10:17:53Z</time>
      </trkpt>
      <trkpt lat="45.03467" lon="5.5135">
        <ele>1263</ele>
        <time>2021-05-18T10:17:55Z</time>
      </trkpt>
      <trkpt lat="45.03469" lon="5.51336">
        <ele>1264</ele>
        <time>2021-05-18T10:17:57Z</time>
      </trkpt>
      <trkpt lat="45.03454" lon="5.51288">
        <ele>1264</ele>
        <time>2021-05-18T10:18:03Z</time>
      </trkpt>
      <trkpt lat="45.03429" lon="5.51296">
        <ele>1266</ele>
        <time>2021-05-18T10:18:08Z</time>
      </trkpt>
      <trkpt lat="45.03406" lon="5.51294">
        <ele>1268</ele>
        <time>2021-05-18T10:18:12Z</time>
      </trkpt>
      <trkpt lat="45.03382" lon="5.51297">
        <ele>1268</ele>
        <time>2021-05-18T10:18:16Z</time>
      </trkpt>
      <trkpt lat="45.03362" lon="5.5129">
        <ele>1269</ele>
        <time>2021-05-18T10:18:20Z</time>
      </trkpt>
      <trkpt lat="45.03353" lon="5.51279">
        <ele>1269</ele>
        <time>2021-05-18T10:18:22Z</time>
      </trkpt>
      <trkpt lat="45.03345" lon="5.51274">
        <ele>1270</ele>
        <time>2021-05-18T10:18:24Z</time>
      </trkpt>
      <trkpt lat="45.03342" lon="5.51281">
        <ele>1269</ele>
        <time>2021-05-18T10:18:25Z</time>
      </trkpt>
      <trkpt lat="45.03315" lon="5.51295">
        <ele>1267</ele>
        <time>2021-05-18T10:18:30Z</time>
      </trkpt>
      <trkpt lat="45.03302" lon="5.51292">
        <ele>1266</ele>
        <time>2021-05-18T10:18:32Z</time>
      </trkpt>
      <trkpt lat="45.03287" lon="5.51304">
        <ele>1264</ele>
        <time>2021-05-18T10:18:35Z</time>
      </trkpt>
      <trkpt lat="45.0326" lon="5.51307">
        <ele>1262</ele>
        <time>2021-05-18T10:18:40Z</time>
      </trkpt>
      <trkpt lat="45.03233" lon="5.51317">
        <ele>1259</ele>
        <time>2021-05-18T10:18:45Z</time>
      </trkpt>
      <trkpt lat="45.03193" lon="5.51325">
        <ele>1254</ele>
        <time>2021-05-18T10:18:52Z</time>
      </trkpt>
      <trkpt lat="45.03141" lon="5.51311">
        <ele>1247</ele>
        <time>2021-05-18T10:19:01Z</time>
      </trkpt>
      <trkpt lat="45.03111" lon="5.51324">
        <ele>1244</ele>
        <time>2021-05-18T10:19:07Z</time>
      </trkpt>
      <trkpt lat="45.03096" lon="5.51322">
        <ele>1242</ele>
        <time>2021-05-18T10:19:10Z</time>
      </trkpt>
      <trkpt lat="45.03068" lon="5.51351">
        <ele>1238</ele>
        <time>2021-05-18T10:19:16Z</time>
      </trkpt>
      <trkpt lat="45.03065" lon="5.51377">
        <ele>1237</ele>
        <time>2021-05-18T10:19:19Z</time>
      </trkpt>
      <trkpt lat="45.03053" lon="5.51402">
        <ele>1235</ele>
        <time>2021-05-18T10:19:23Z</time>
      </trkpt>
      <trkpt lat="45.0303" lon="5.51432">
        <ele>1233</ele>
        <time>2021-05-18T10:19:29Z</time>
      </trkpt>
      <trkpt lat="45.03016" lon="5.51472">
        <ele>1229</ele>
        <time>2021-05-18T10:19:34Z</time>
      </trkpt>
      <trkpt lat="45.02999" lon="5.51536">
        <ele>1219</ele>
        <time>2021-05-18T10:19:43Z</time>
      </trkpt>
      <trkpt lat="45.03002" lon="5.51552">
        <ele>1217</ele>
        <time>2021-05-18T10:19:45Z</time>
      </trkpt>
      <trkpt lat="45.02961" lon="5.5165">
        <ele>1201</ele>
        <time>2021-05-18T10:19:59Z</time>
      </trkpt>
      <trkpt lat="45.02937" lon="5.51639">
        <ele>1201</ele>
        <time>2021-05-18T10:20:04Z</time>
      </trkpt>
      <trkpt lat="45.02928" lon="5.51643">
        <ele>1200</ele>
        <time>2021-05-18T10:20:05Z</time>
      </trkpt>
      <trkpt lat="45.02905" lon="5.51632">
        <ele>1199</ele>
        <time>2021-05-18T10:20:10Z</time>
      </trkpt>
      <trkpt lat="45.02886" lon="5.51609">
        <ele>1200</ele>
        <time>2021-05-18T10:20:14Z</time>
      </trkpt>
      <trkpt lat="45.0286" lon="5.51599">
        <ele>1199</ele>
        <time>2021-05-18T10:20:19Z</time>
      </trkpt>
      <trkpt lat="45.02842" lon="5.51584">
        <ele>1200</ele>
        <time>2021-05-18T10:20:23Z</time>
      </trkpt>
      <trkpt lat="45.02808" lon="5.5159">
        <ele>1196</ele>
        <time>2021-05-18T10:20:29Z</time>
      </trkpt>
      <trkpt lat="45.02786" lon="5.51601">
        <ele>1193</ele>
        <time>2021-05-18T10:20:33Z</time>
      </trkpt>
      <trkpt lat="45.02775" lon="5.51603">
        <ele>1192</ele>
        <time>2021-05-18T10:20:35Z</time>
      </trkpt>
      <trkpt lat="45.02712" lon="5.51597">
        <ele>1190</ele>
        <time>2021-05-18T10:20:46Z</time>
      </trkpt>
      <trkpt lat="45.02697" lon="5.51576">
        <ele>1192</ele>
        <time>2021-05-18T10:20:50Z</time>
      </trkpt>
      <trkpt lat="45.02672" lon="5.51537">
        <ele>1192</ele>
        <time>2021-05-18T10:20:57Z</time>
      </trkpt>
      <trkpt lat="45.0267" lon="5.51535">
        <ele>1192</ele>
        <time>2021-05-18T10:20:57Z</time>
      </trkpt>
      <trkpt lat="45.02607" lon="5.51568">
        <ele>1186</ele>
        <time>2021-05-18T10:21:09Z</time>
      </trkpt>
      <trkpt lat="45.02569" lon="5.51588">
        <ele>1182</ele>
        <time>2021-05-18T10:21:16Z</time>
      </trkpt>
      <trkpt lat="45.02546" lon="5.51593">
        <ele>1180</ele>
        <time>2021-05-18T10:21:20Z</time>
      </trkpt>
      <trkpt lat="45.02518" lon="5.51596">
        <ele>1177</ele>
        <time>2021-05-18T10:21:25Z</time>
      </trkpt>
      <trkpt lat="45.0248" lon="5.51595">
        <ele>1174</ele>
        <time>2021-05-18T10:21:32Z</time>
      </trkpt>
      <trkpt lat="45.02454" lon="5.51568">
        <ele>1173</ele>
        <time>2021-05-18T10:21:38Z</time>
      </trkpt>
      <trkpt lat="45.02434" lon="5.5158">
        <ele>1171</ele>
        <time>2021-05-18T10:21:42Z</time>
      </trkpt>
      <trkpt lat="45.02413" lon="5.51593">
        <ele>1168</ele>
        <time>2021-05-18T10:21:46Z</time>
      </trkpt>
      <trkpt lat="45.02407" lon="5.51594">
        <ele>1168</ele>
        <time>2021-05-18T10:21:47Z</time>
      </trkpt>
      <trkpt lat="45.02384" lon="5.51601">
        <ele>1167</ele>
        <time>2021-05-18T10:21:51Z</time>
      </trkpt>
      <trkpt lat="45.02374" lon="5.516">
        <ele>1167</ele>
        <time>2021-05-18T10:21:53Z</time>
      </trkpt>
      <trkpt lat="45.02365" lon="5.51621">
        <ele>1165</ele>
        <time>2021-05-18T10:21:56Z</time>
      </trkpt>
      <trkpt lat="45.02363" lon="5.51632">
        <ele>1164</ele>
        <time>2021-05-18T10:21:57Z</time>
      </trkpt>
      <trkpt lat="45.02369" lon="5.5165">
        <ele>1162</ele>
        <time>2021-05-18T10:22:00Z</time>
      </trkpt>
      <trkpt lat="45.02368" lon="5.51658">
        <ele>1161</ele>
        <time>2021-05-18T10:22:01Z</time>
      </trkpt>
      <trkpt lat="45.02362" lon="5.51664">
        <ele>1161</ele>
        <time>2021-05-18T10:22:02Z</time>
      </trkpt>
      <trkpt lat="45.0235" lon="5.51664">
        <ele>1161</ele>
        <time>2021-05-18T10:22:04Z</time>
      </trkpt>
      <trkpt lat="45.02331" lon="5.5167">
        <ele>1161</ele>
        <time>2021-05-18T10:22:08Z</time>
      </trkpt>
      <trkpt lat="45.02327" lon="5.51681">
        <ele>1160</ele>
        <time>2021-05-18T10:22:09Z</time>
      </trkpt>
      <trkpt lat="45.02323" lon="5.51701">
        <ele>1159</ele>
        <time>2021-05-18T10:22:12Z</time>
      </trkpt>
      <trkpt lat="45.02325" lon="5.51717">
        <ele>1158</ele>
        <time>2021-05-18T10:22:14Z</time>
      </trkpt>
      <trkpt lat="45.02331" lon="5.51729">
        <ele>1157</ele>
        <time>2021-05-18T10:22:16Z</time>
      </trkpt>
      <trkpt lat="45.02338" lon="5.51736">
        <ele>1156</ele>
        <time>2021-05-18T10:22:17Z</time>
      </trkpt>
      <trkpt lat="45.02335" lon="5.51746">
        <ele>1155</ele>
        <time>2021-05-18T10:22:19Z</time>
      </trkpt>
      <trkpt lat="45.02318" lon="5.51743">
        <ele>1156</ele>
        <time>2021-05-18T10:22:22Z</time>
      </trkpt>
      <trkpt lat="45.02298" lon="5.51735">
        <ele>1157</ele>
        <time>2021-05-18T10:22:25Z</time>
      </trkpt>
      <trkpt lat="45.02274" lon="5.51725">
        <ele>1158</ele>
        <time>2021-05-18T10:22:30Z</time>
      </trkpt>
      <trkpt lat="45.02263" lon="5.51719">
        <ele>1159</ele>
        <time>2021-05-18T10:22:32Z</time>
      </trkpt>
      <trkpt lat="45.02236" lon="5.51718">
        <ele>1160</ele>
        <time>2021-05-18T10:22:37Z</time>
      </trkpt>
      <trkpt lat="45.02227" lon="5.51714">
        <ele>1160</ele>
        <time>2021-05-18T10:22:38Z</time>
      </trkpt>
      <trkpt lat="45.02203" lon="5.51698">
        <ele>1161</ele>
        <time>2021-05-18T10:22:43Z</time>
      </trkpt>
      <trkpt lat="45.02157" lon="5.51675">
        <ele>1160</ele>
        <time>2021-05-18T10:22:52Z</time>
      </trkpt>
      <trkpt lat="45.02122" lon="5.51663">
        <ele>1161</ele>
        <time>2021-05-18T10:22:58Z</time>
      </trkpt>
      <trkpt lat="45.02096" lon="5.51636">
        <ele>1163</ele>
        <time>2021-05-18T10:23:04Z</time>
      </trkpt>
      <trkpt lat="45.02087" lon="5.5162">
        <ele>1164</ele>
        <time>2021-05-18T10:23:07Z</time>
      </trkpt>
      <trkpt lat="45.02084" lon="5.51597">
        <ele>1165</ele>
        <time>2021-05-18T10:23:09Z</time>
      </trkpt>
      <trkpt lat="45.02069" lon="5.51572">
        <ele>1167</ele>
        <time>2021-05-18T10:23:14Z</time>
      </trkpt>
      <trkpt lat="45.02033" lon="5.51548">
        <ele>1170</ele>
        <time>2021-05-18T10:23:21Z</time>
      </trkpt>
      <trkpt lat="45.01979" lon="5.51538">
        <ele>1172</ele>
        <time>2021-05-18T10:23:30Z</time>
      </trkpt>
      <trkpt lat="45.01966" lon="5.51539">
        <ele>1173</ele>
        <time>2021-05-18T10:23:33Z</time>
      </trkpt>
      <trkpt lat="45.01948" lon="5.51543">
        <ele>1174</ele>
        <time>2021-05-18T10:23:36Z</time>
      </trkpt>
      <trkpt lat="45.0193" lon="5.51563">
        <ele>1177</ele>
        <time>2021-05-18T10:23:40Z</time>
      </trkpt>
      <trkpt lat="45.01916" lon="5.51577">
        <ele>1179</ele>
        <time>2021-05-18T10:23:43Z</time>
      </trkpt>
      <trkpt lat="45.01881" lon="5.51603">
        <ele>1180</ele>
        <time>2021-05-18T10:23:50Z</time>
      </trkpt>
      <trkpt lat="45.01865" lon="5.51607">
        <ele>1181</ele>
        <time>2021-05-18T10:23:53Z</time>
      </trkpt>
      <trkpt lat="45.01797" lon="5.51623">
        <ele>1184</ele>
        <time>2021-05-18T10:24:05Z</time>
      </trkpt>
      <trkpt lat="45.01806" lon="5.51631">
        <ele>1185</ele>
        <time>2021-05-18T10:24:07Z</time>
      </trkpt>
      <trkpt lat="45.01818" lon="5.51638">
        <ele>1185</ele>
        <time>2021-05-18T10:24:09Z</time>
      </trkpt>
      <trkpt lat="45.01825" lon="5.51641">
        <ele>1185</ele>
        <time>2021-05-18T10:24:11Z</time>
      </trkpt>
      <trkpt lat="45.01851" lon="5.51651">
        <ele>1185</ele>
        <time>2021-05-18T10:24:16Z</time>
      </trkpt>
      <trkpt lat="45.01858" lon="5.51659">
        <ele>1186</ele>
        <time>2021-05-18T10:24:17Z</time>
      </trkpt>
      <trkpt lat="45.01861" lon="5.51669">
        <ele>1187</ele>
        <time>2021-05-18T10:24:19Z</time>
      </trkpt>
      <trkpt lat="45.01869" lon="5.51682">
        <ele>1187</ele>
        <time>2021-05-18T10:24:21Z</time>
      </trkpt>
      <trkpt lat="45.01872" lon="5.51694">
        <ele>1188</ele>
        <time>2021-05-18T10:24:22Z</time>
      </trkpt>
      <trkpt lat="45.01887" lon="5.51708">
        <ele>1188</ele>
        <time>2021-05-18T10:24:25Z</time>
      </trkpt>
      <trkpt lat="45.0189" lon="5.51731">
        <ele>1189</ele>
        <time>2021-05-18T10:24:28Z</time>
      </trkpt>
      <trkpt lat="45.0189" lon="5.51753">
        <ele>1191</ele>
        <time>2021-05-18T10:24:31Z</time>
      </trkpt>
      <trkpt lat="45.01876" lon="5.5179">
        <ele>1196</ele>
        <time>2021-05-18T10:24:36Z</time>
      </trkpt>
      <trkpt lat="45.01875" lon="5.51801">
        <ele>1196</ele>
        <time>2021-05-18T10:24:38Z</time>
      </trkpt>
      <trkpt lat="45.01875" lon="5.51815">
        <ele>1198</ele>
        <time>2021-05-18T10:24:40Z</time>
      </trkpt>
      <trkpt lat="45.01847" lon="5.51873">
        <ele>1201</ele>
        <time>2021-05-18T10:24:48Z</time>
      </trkpt>
      <trkpt lat="45.01838" lon="5.51888">
        <ele>1201</ele>
        <time>2021-05-18T10:24:51Z</time>
      </trkpt>
      <trkpt lat="45.01836" lon="5.519">
        <ele>1201</ele>
        <time>2021-05-18T10:24:52Z</time>
      </trkpt>
      <trkpt lat="45.01835" lon="5.51909">
        <ele>1201</ele>
        <time>2021-05-18T10:24:54Z</time>
      </trkpt>
      <trkpt lat="45.01835" lon="5.51925">
        <ele>1202</ele>
        <time>2021-05-18T10:24:56Z</time>
      </trkpt>
      <trkpt lat="45.0184" lon="5.51936">
        <ele>1202</ele>
        <time>2021-05-18T10:24:57Z</time>
      </trkpt>
      <trkpt lat="45.0185" lon="5.51963">
        <ele>1204</ele>
        <time>2021-05-18T10:25:01Z</time>
      </trkpt>
      <trkpt lat="45.0186" lon="5.5198">
        <ele>1205</ele>
        <time>2021-05-18T10:25:04Z</time>
      </trkpt>
      <trkpt lat="45.01863" lon="5.51995">
        <ele>1206</ele>
        <time>2021-05-18T10:25:06Z</time>
      </trkpt>
      <trkpt lat="45.01886" lon="5.52037">
        <ele>1208</ele>
        <time>2021-05-18T10:25:13Z</time>
      </trkpt>
      <trkpt lat="45.01888" lon="5.52046">
        <ele>1208</ele>
        <time>2021-05-18T10:25:14Z</time>
      </trkpt>
      <trkpt lat="45.01892" lon="5.52053">
        <ele>1209</ele>
        <time>2021-05-18T10:25:15Z</time>
      </trkpt>
      <trkpt lat="45.01894" lon="5.52071">
        <ele>1210</ele>
        <time>2021-05-18T10:25:17Z</time>
      </trkpt>
      <trkpt lat="45.01898" lon="5.52082">
        <ele>1211</ele>
        <time>2021-05-18T10:25:19Z</time>
      </trkpt>
      <trkpt lat="45.01916" lon="5.5211">
        <ele>1212</ele>
        <time>2021-05-18T10:25:23Z</time>
      </trkpt>
      <trkpt lat="45.01924" lon="5.52116">
        <ele>1212</ele>
        <time>2021-05-18T10:25:25Z</time>
      </trkpt>
      <trkpt lat="45.01973" lon="5.52115">
        <ele>1208</ele>
        <time>2021-05-18T10:25:34Z</time>
      </trkpt>
      <trkpt lat="45.01987" lon="5.52114">
        <ele>1207</ele>
        <time>2021-05-18T10:25:36Z</time>
      </trkpt>
      <trkpt lat="45.0202" lon="5.52108">
        <ele>1204</ele>
        <time>2021-05-18T10:25:42Z</time>
      </trkpt>
      <trkpt lat="45.02047" lon="5.52106">
        <ele>1203</ele>
        <time>2021-05-18T10:25:47Z</time>
      </trkpt>
      <trkpt lat="45.02052" lon="5.52109">
        <ele>1203</ele>
        <time>2021-05-18T10:25:48Z</time>
      </trkpt>
      <trkpt lat="45.02047" lon="5.5212">
        <ele>1204</ele>
        <time>2021-05-18T10:25:50Z</time>
      </trkpt>
      <trkpt lat="45.02036" lon="5.52129">
        <ele>1206</ele>
        <time>2021-05-18T10:25:52Z</time>
      </trkpt>
      <trkpt lat="45.02028" lon="5.52136">
        <ele>1207</ele>
        <time>2021-05-18T10:25:54Z</time>
      </trkpt>
      <trkpt lat="45.02019" lon="5.52151">
        <ele>1210</ele>
        <time>2021-05-18T10:25:56Z</time>
      </trkpt>
      <trkpt lat="45.02018" lon="5.52163">
        <ele>1211</ele>
        <time>2021-05-18T10:25:58Z</time>
      </trkpt>
      <trkpt lat="45.02018" lon="5.52179">
        <ele>1213</ele>
        <time>2021-05-18T10:26:00Z</time>
      </trkpt>
      <trkpt lat="45.02021" lon="5.52187">
        <ele>1214</ele>
        <time>2021-05-18T10:26:01Z</time>
      </trkpt>
      <trkpt lat="45.02044" lon="5.52206">
        <ele>1214</ele>
        <time>2021-05-18T10:26:05Z</time>
      </trkpt>
      <trkpt lat="45.02045" lon="5.5222">
        <ele>1215</ele>
        <time>2021-05-18T10:26:07Z</time>
      </trkpt>
      <trkpt lat="45.02048" lon="5.52226">
        <ele>1215</ele>
        <time>2021-05-18T10:26:08Z</time>
      </trkpt>
      <trkpt lat="45.0204" lon="5.52237">
        <ele>1217</ele>
        <time>2021-05-18T10:26:10Z</time>
      </trkpt>
      <trkpt lat="45.02026" lon="5.52279">
        <ele>1221</ele>
        <time>2021-05-18T10:26:16Z</time>
      </trkpt>
      <trkpt lat="45.02019" lon="5.52298">
        <ele>1222</ele>
        <time>2021-05-18T10:26:19Z</time>
      </trkpt>
      <trkpt lat="45.02019" lon="5.52311">
        <ele>1222</ele>
        <time>2021-05-18T10:26:20Z</time>
      </trkpt>
      <trkpt lat="45.02017" lon="5.52317">
        <ele>1222</ele>
        <time>2021-05-18T10:26:21Z</time>
      </trkpt>
      <trkpt lat="45.02021" lon="5.52321">
        <ele>1222</ele>
        <time>2021-05-18T10:26:22Z</time>
      </trkpt>
      <trkpt lat="45.02019" lon="5.5233">
        <ele>1223</ele>
        <time>2021-05-18T10:26:23Z</time>
      </trkpt>
      <trkpt lat="45.02021" lon="5.52337">
        <ele>1223</ele>
        <time>2021-05-18T10:26:24Z</time>
      </trkpt>
      <trkpt lat="45.02013" lon="5.52337">
        <ele>1224</ele>
        <time>2021-05-18T10:26:26Z</time>
      </trkpt>
      <trkpt lat="45.01981" lon="5.52336">
        <ele>1225</ele>
        <time>2021-05-18T10:26:31Z</time>
      </trkpt>
      <trkpt lat="45.01973" lon="5.52337">
        <ele>1225</ele>
        <time>2021-05-18T10:26:33Z</time>
      </trkpt>
      <trkpt lat="45.01956" lon="5.52349">
        <ele>1227</ele>
        <time>2021-05-18T10:26:36Z</time>
      </trkpt>
      <trkpt lat="45.01943" lon="5.52355">
        <ele>1228</ele>
        <time>2021-05-18T10:26:38Z</time>
      </trkpt>
      <trkpt lat="45.01922" lon="5.52376">
        <ele>1229</ele>
        <time>2021-05-18T10:26:43Z</time>
      </trkpt>
      <trkpt lat="45.01895" lon="5.52402">
        <ele>1231</ele>
        <time>2021-05-18T10:26:49Z</time>
      </trkpt>
      <trkpt lat="45.01887" lon="5.5241">
        <ele>1232</ele>
        <time>2021-05-18T10:26:51Z</time>
      </trkpt>
      <trkpt lat="45.01862" lon="5.52423">
        <ele>1234</ele>
        <time>2021-05-18T10:26:55Z</time>
      </trkpt>
      <trkpt lat="45.0183" lon="5.52427">
        <ele>1236</ele>
        <time>2021-05-18T10:27:01Z</time>
      </trkpt>
      <trkpt lat="45.01808" lon="5.52425">
        <ele>1238</ele>
        <time>2021-05-18T10:27:05Z</time>
      </trkpt>
      <trkpt lat="45.01801" lon="5.52424">
        <ele>1239</ele>
        <time>2021-05-18T10:27:06Z</time>
      </trkpt>
      <trkpt lat="45.01766" lon="5.52427">
        <ele>1243</ele>
        <time>2021-05-18T10:27:12Z</time>
      </trkpt>
      <trkpt lat="45.01737" lon="5.52426">
        <ele>1245</ele>
        <time>2021-05-18T10:27:18Z</time>
      </trkpt>
      <trkpt lat="45.01713" lon="5.52428">
        <ele>1246</ele>
        <time>2021-05-18T10:27:22Z</time>
      </trkpt>
      <trkpt lat="45.01684" lon="5.52425">
        <ele>1246</ele>
        <time>2021-05-18T10:27:27Z</time>
      </trkpt>
      <trkpt lat="45.01657" lon="5.52425">
        <ele>1247</ele>
        <time>2021-05-18T10:27:32Z</time>
      </trkpt>
      <trkpt lat="45.01641" lon="5.52429">
        <ele>1248</ele>
        <time>2021-05-18T10:27:35Z</time>
      </trkpt>
      <trkpt lat="45.01633" lon="5.52436">
        <ele>1249</ele>
        <time>2021-05-18T10:27:36Z</time>
      </trkpt>
      <trkpt lat="45.01603" lon="5.52453">
        <ele>1253</ele>
        <time>2021-05-18T10:27:42Z</time>
      </trkpt>
      <trkpt lat="45.0159" lon="5.52462">
        <ele>1254</ele>
        <time>2021-05-18T10:27:45Z</time>
      </trkpt>
      <trkpt lat="45.01554" lon="5.52476">
        <ele>1257</ele>
        <time>2021-05-18T10:27:51Z</time>
      </trkpt>
      <trkpt lat="45.01499" lon="5.52494">
        <ele>1259</ele>
        <time>2021-05-18T10:28:01Z</time>
      </trkpt>
      <trkpt lat="45.01492" lon="5.52495">
        <ele>1259</ele>
        <time>2021-05-18T10:28:03Z</time>
      </trkpt>
      <trkpt lat="45.01468" lon="5.52503">
        <ele>1259</ele>
        <time>2021-05-18T10:28:07Z</time>
      </trkpt>
      <trkpt lat="45.0143" lon="5.52514">
        <ele>1261</ele>
        <time>2021-05-18T10:28:14Z</time>
      </trkpt>
      <trkpt lat="45.01407" lon="5.52522">
        <ele>1262</ele>
        <time>2021-05-18T10:28:18Z</time>
      </trkpt>
      <trkpt lat="45.01396" lon="5.52532">
        <ele>1263</ele>
        <time>2021-05-18T10:28:21Z</time>
      </trkpt>
      <trkpt lat="45.01427" lon="5.52575">
        <ele>1268</ele>
        <time>2021-05-18T10:28:28Z</time>
      </trkpt>
      <trkpt lat="45.01456" lon="5.52607">
        <ele>1276</ele>
        <time>2021-05-18T10:28:35Z</time>
      </trkpt>
      <trkpt lat="45.01512" lon="5.52611">
        <ele>1280</ele>
        <time>2021-05-18T10:28:45Z</time>
      </trkpt>
      <trkpt lat="45.01519" lon="5.52623">
        <ele>1282</ele>
        <time>2021-05-18T10:28:47Z</time>
      </trkpt>
      <trkpt lat="45.01511" lon="5.52654">
        <ele>1288</ele>
        <time>2021-05-18T10:28:51Z</time>
      </trkpt>
      <trkpt lat="45.0148" lon="5.52695">
        <ele>1293</ele>
        <time>2021-05-18T10:28:58Z</time>
      </trkpt>
      <trkpt lat="45.01461" lon="5.52726">
        <ele>1297</ele>
        <time>2021-05-18T10:29:04Z</time>
      </trkpt>
      <trkpt lat="45.01445" lon="5.52792">
        <ele>1306</ele>
        <time>2021-05-18T10:29:12Z</time>
      </trkpt>
      <trkpt lat="45.01447" lon="5.52824">
        <ele>1309</ele>
        <time>2021-05-18T10:29:16Z</time>
      </trkpt>
      <trkpt lat="45.0145" lon="5.52871">
        <ele>1310</ele>
        <time>2021-05-18T10:29:22Z</time>
      </trkpt>
      <trkpt lat="45.01453" lon="5.52916">
        <ele>1311</ele>
        <time>2021-05-18T10:29:28Z</time>
      </trkpt>
      <trkpt lat="45.01465" lon="5.52954">
        <ele>1308</ele>
        <time>2021-05-18T10:29:33Z</time>
      </trkpt>
      <trkpt lat="45.01487" lon="5.52986">
        <ele>1302</ele>
        <time>2021-05-18T10:29:39Z</time>
      </trkpt>
      <trkpt lat="45.01509" lon="5.5301">
        <ele>1298</ele>
        <time>2021-05-18T10:29:44Z</time>
      </trkpt>
      <trkpt lat="45.0153" lon="5.53021">
        <ele>1296</ele>
        <time>2021-05-18T10:29:48Z</time>
      </trkpt>
      <trkpt lat="45.01561" lon="5.53004">
        <ele>1290</ele>
        <time>2021-05-18T10:29:54Z</time>
      </trkpt>
      <trkpt lat="45.0157" lon="5.52981">
        <ele>1289</ele>
        <time>2021-05-18T10:29:57Z</time>
      </trkpt>
      <trkpt lat="45.01578" lon="5.52964">
        <ele>1288</ele>
        <time>2021-05-18T10:30:00Z</time>
      </trkpt>
      <trkpt lat="45.01606" lon="5.52956">
        <ele>1285</ele>
        <time>2021-05-18T10:30:05Z</time>
      </trkpt>
      <trkpt lat="45.0163" lon="5.5294">
        <ele>1284</ele>
        <time>2021-05-18T10:30:09Z</time>
      </trkpt>
      <trkpt lat="45.01674" lon="5.52926">
        <ele>1281</ele>
        <time>2021-05-18T10:30:17Z</time>
      </trkpt>
      <trkpt lat="45.01728" lon="5.52874">
        <ele>1278</ele>
        <time>2021-05-18T10:30:29Z</time>
      </trkpt>
      <trkpt lat="45.01809" lon="5.52836">
        <ele>1270</ele>
        <time>2021-05-18T10:30:44Z</time>
      </trkpt>
      <trkpt lat="45.01861" lon="5.52808">
        <ele>1266</ele>
        <time>2021-05-18T10:30:54Z</time>
      </trkpt>
      <trkpt lat="45.01941" lon="5.52719">
        <ele>1265</ele>
        <time>2021-05-18T10:31:12Z</time>
      </trkpt>
      <trkpt lat="45.01972" lon="5.52699">
        <ele>1260</ele>
        <time>2021-05-18T10:31:18Z</time>
      </trkpt>
      <trkpt lat="45.01981" lon="5.52697">
        <ele>1258</ele>
        <time>2021-05-18T10:31:20Z</time>
      </trkpt>
      <trkpt lat="45.01994" lon="5.52688">
        <ele>1255</ele>
        <time>2021-05-18T10:31:23Z</time>
      </trkpt>
      <trkpt lat="45.02006" lon="5.52693">
        <ele>1253</ele>
        <time>2021-05-18T10:31:25Z</time>
      </trkpt>
      <trkpt lat="45.02032" lon="5.52676">
        <ele>1250</ele>
        <time>2021-05-18T10:31:30Z</time>
      </trkpt>
      <trkpt lat="45.02034" lon="5.52703">
        <ele>1247</ele>
        <time>2021-05-18T10:31:33Z</time>
      </trkpt>
      <trkpt lat="45.02032" lon="5.52737">
        <ele>1244</ele>
        <time>2021-05-18T10:31:38Z</time>
      </trkpt>
      <trkpt lat="45.02029" lon="5.52758">
        <ele>1243</ele>
        <time>2021-05-18T10:31:40Z</time>
      </trkpt>
      <trkpt lat="45.02044" lon="5.52796">
        <ele>1239</ele>
        <time>2021-05-18T10:31:46Z</time>
      </trkpt>
      <trkpt lat="45.02034" lon="5.52841">
        <ele>1239</ele>
        <time>2021-05-18T10:31:52Z</time>
      </trkpt>
      <trkpt lat="45.02033" lon="5.52884">
        <ele>1239</ele>
        <time>2021-05-18T10:31:57Z</time>
      </trkpt>
      <trkpt lat="45.02045" lon="5.52903">
        <ele>1237</ele>
        <time>2021-05-18T10:32:00Z</time>
      </trkpt>
      <trkpt lat="45.02055" lon="5.5293">
        <ele>1236</ele>
        <time>2021-05-18T10:32:04Z</time>
      </trkpt>
      <trkpt lat="45.02049" lon="5.52974">
        <ele>1237</ele>
        <time>2021-05-18T10:32:10Z</time>
      </trkpt>
      <trkpt lat="45.02064" lon="5.53005">
        <ele>1237</ele>
        <time>2021-05-18T10:32:14Z</time>
      </trkpt>
      <trkpt lat="45.02118" lon="5.53079">
        <ele>1240</ele>
        <time>2021-05-18T10:32:28Z</time>
      </trkpt>
      <trkpt lat="45.02125" lon="5.53086">
        <ele>1241</ele>
        <time>2021-05-18T10:32:29Z</time>
      </trkpt>
      <trkpt lat="45.02148" lon="5.5308">
        <ele>1242</ele>
        <time>2021-05-18T10:32:34Z</time>
      </trkpt>
      <trkpt lat="45.02158" lon="5.53077">
        <ele>1242</ele>
        <time>2021-05-18T10:32:35Z</time>
      </trkpt>
      <trkpt lat="45.02169" lon="5.53097">
        <ele>1244</ele>
        <time>2021-05-18T10:32:39Z</time>
      </trkpt>
      <trkpt lat="45.02184" lon="5.53137">
        <ele>1249</ele>
        <time>2021-05-18T10:32:44Z</time>
      </trkpt>
      <trkpt lat="45.02218" lon="5.53163">
        <ele>1254</ele>
        <time>2021-05-18T10:32:51Z</time>
      </trkpt>
      <trkpt lat="45.02231" lon="5.53176">
        <ele>1257</ele>
        <time>2021-05-18T10:32:54Z</time>
      </trkpt>
      <trkpt lat="45.0229" lon="5.53149">
        <ele>1248</ele>
        <time>2021-05-18T10:33:05Z</time>
      </trkpt>
      <trkpt lat="45.02291" lon="5.53125">
        <ele>1242</ele>
        <time>2021-05-18T10:33:08Z</time>
      </trkpt>
      <trkpt lat="45.0226" lon="5.53112">
        <ele>1242</ele>
        <time>2021-05-18T10:33:14Z</time>
      </trkpt>
      <trkpt lat="45.02247" lon="5.53093">
        <ele>1239</ele>
        <time>2021-05-18T10:33:17Z</time>
      </trkpt>
      <trkpt lat="45.02262" lon="5.53074">
        <ele>1234</ele>
        <time>2021-05-18T10:33:21Z</time>
      </trkpt>
      <trkpt lat="45.02277" lon="5.53067">
        <ele>1232</ele>
        <time>2021-05-18T10:33:23Z</time>
      </trkpt>
      <trkpt lat="45.0228" lon="5.53051">
        <ele>1229</ele>
        <time>2021-05-18T10:33:26Z</time>
      </trkpt>
      <trkpt lat="45.02307" lon="5.5306">
        <ele>1228</ele>
        <time>2021-05-18T10:33:31Z</time>
      </trkpt>
      <trkpt lat="45.02319" lon="5.53065">
        <ele>1228</ele>
        <time>2021-05-18T10:33:33Z</time>
      </trkpt>
      <trkpt lat="45.02358" lon="5.53075">
        <ele>1225</ele>
        <time>2021-05-18T10:33:40Z</time>
      </trkpt>
      <trkpt lat="45.02368" lon="5.53068">
        <ele>1223</ele>
        <time>2021-05-18T10:33:42Z</time>
      </trkpt>
      <trkpt lat="45.02407" lon="5.53077">
        <ele>1219</ele>
        <time>2021-05-18T10:33:49Z</time>
      </trkpt>
      <trkpt lat="45.02413" lon="5.53098">
        <ele>1220</ele>
        <time>2021-05-18T10:33:52Z</time>
      </trkpt>
      <trkpt lat="45.0246" lon="5.5312">
        <ele>1215</ele>
        <time>2021-05-18T10:34:00Z</time>
      </trkpt>
      <trkpt lat="45.02469" lon="5.53133">
        <ele>1215</ele>
        <time>2021-05-18T10:34:03Z</time>
      </trkpt>
      <trkpt lat="45.02498" lon="5.53144">
        <ele>1211</ele>
        <time>2021-05-18T10:34:08Z</time>
      </trkpt>
      <trkpt lat="45.02517" lon="5.53154">
        <ele>1210</ele>
        <time>2021-05-18T10:34:12Z</time>
      </trkpt>
      <trkpt lat="45.02558" lon="5.5313">
        <ele>1202</ele>
        <time>2021-05-18T10:34:20Z</time>
      </trkpt>
      <trkpt lat="45.02612" lon="5.53127">
        <ele>1193</ele>
        <time>2021-05-18T10:34:29Z</time>
      </trkpt>
      <trkpt lat="45.02644" lon="5.53087">
        <ele>1182</ele>
        <time>2021-05-18T10:34:37Z</time>
      </trkpt>
      <trkpt lat="45.02651" lon="5.5306">
        <ele>1179</ele>
        <time>2021-05-18T10:34:40Z</time>
      </trkpt>
      <trkpt lat="45.02704" lon="5.5303">
        <ele>1165</ele>
        <time>2021-05-18T10:34:51Z</time>
      </trkpt>
      <trkpt lat="45.02711" lon="5.52973">
        <ele>1159</ele>
        <time>2021-05-18T10:34:58Z</time>
      </trkpt>
      <trkpt lat="45.02729" lon="5.5295">
        <ele>1153</ele>
        <time>2021-05-18T10:35:02Z</time>
      </trkpt>
      <trkpt lat="45.02738" lon="5.52922">
        <ele>1148</ele>
        <time>2021-05-18T10:35:06Z</time>
      </trkpt>
      <trkpt lat="45.02765" lon="5.52911">
        <ele>1142</ele>
        <time>2021-05-18T10:35:11Z</time>
      </trkpt>
      <trkpt lat="45.02813" lon="5.52954">
        <ele>1138</ele>
        <time>2021-05-18T10:35:21Z</time>
      </trkpt>
      <trkpt lat="45.02861" lon="5.53003">
        <ele>1133</ele>
        <time>2021-05-18T10:35:32Z</time>
      </trkpt>
      <trkpt lat="45.02907" lon="5.5303">
        <ele>1125</ele>
        <time>2021-05-18T10:35:41Z</time>
      </trkpt>
      <trkpt lat="45.02948" lon="5.53036">
        <ele>1122</ele>
        <time>2021-05-18T10:35:48Z</time>
      </trkpt>
      <trkpt lat="45.02994" lon="5.53023">
        <ele>1116</ele>
        <time>2021-05-18T10:35:56Z</time>
      </trkpt>
      <trkpt lat="45.0302" lon="5.53022">
        <ele>1114</ele>
        <time>2021-05-18T10:36:01Z</time>
      </trkpt>
      <trkpt lat="45.03065" lon="5.53035">
        <ele>1114</ele>
        <time>2021-05-18T10:36:09Z</time>
      </trkpt>
      <trkpt lat="45.0308" lon="5.53037">
        <ele>1113</ele>
        <time>2021-05-18T10:36:12Z</time>
      </trkpt>
      <trkpt lat="45.03101" lon="5.53028">
        <ele>1110</ele>
        <time>2021-05-18T10:36:16Z</time>
      </trkpt>
      <trkpt lat="45.03123" lon="5.53023">
        <ele>1108</ele>
        <time>2021-05-18T10:36:20Z</time>
      </trkpt>
      <trkpt lat="45.03178" lon="5.53041">
        <ele>1104</ele>
        <time>2021-05-18T10:36:30Z</time>
      </trkpt>
      <trkpt lat="45.03212" lon="5.53054">
        <ele>1102</ele>
        <time>2021-05-18T10:36:36Z</time>
      </trkpt>
      <trkpt lat="45.03251" lon="5.531">
        <ele>1099</ele>
        <time>2021-05-18T10:36:45Z</time>
      </trkpt>
      <trkpt lat="45.03273" lon="5.53139">
        <ele>1099</ele>
        <time>2021-05-18T10:36:51Z</time>
      </trkpt>
      <trkpt lat="45.03286" lon="5.53148">
        <ele>1099</ele>
        <time>2021-05-18T10:36:54Z</time>
      </trkpt>
      <trkpt lat="45.03295" lon="5.53146">
        <ele>1098</ele>
        <time>2021-05-18T10:36:55Z</time>
      </trkpt>
      <trkpt lat="45.03308" lon="5.53135">
        <ele>1097</ele>
        <time>2021-05-18T10:36:58Z</time>
      </trkpt>
      <trkpt lat="45.03337" lon="5.53123">
        <ele>1094</ele>
        <time>2021-05-18T10:37:03Z</time>
      </trkpt>
      <trkpt lat="45.03343" lon="5.53153">
        <ele>1095</ele>
        <time>2021-05-18T10:37:07Z</time>
      </trkpt>
      <trkpt lat="45.03347" lon="5.53178">
        <ele>1096</ele>
        <time>2021-05-18T10:37:11Z</time>
      </trkpt>
      <trkpt lat="45.03358" lon="5.53215">
        <ele>1098</ele>
        <time>2021-05-18T10:37:16Z</time>
      </trkpt>
      <trkpt lat="45.03381" lon="5.53255">
        <ele>1097</ele>
        <time>2021-05-18T10:37:22Z</time>
      </trkpt>
      <trkpt lat="45.03402" lon="5.5329">
        <ele>1097</ele>
        <time>2021-05-18T10:37:28Z</time>
      </trkpt>
      <trkpt lat="45.03441" lon="5.53323">
        <ele>1094</ele>
        <time>2021-05-18T10:37:36Z</time>
      </trkpt>
      <trkpt lat="45.03478" lon="5.53344">
        <ele>1095</ele>
        <time>2021-05-18T10:37:43Z</time>
      </trkpt>
      <trkpt lat="45.03515" lon="5.53356">
        <ele>1095</ele>
        <time>2021-05-18T10:37:50Z</time>
      </trkpt>
      <trkpt lat="45.03559" lon="5.53365">
        <ele>1095</ele>
        <time>2021-05-18T10:37:58Z</time>
      </trkpt>
      <trkpt lat="45.03606" lon="5.5338">
        <ele>1097</ele>
        <time>2021-05-18T10:38:06Z</time>
      </trkpt>
      <trkpt lat="45.03644" lon="5.53401">
        <ele>1096</ele>
        <time>2021-05-18T10:38:14Z</time>
      </trkpt>
      <trkpt lat="45.03659" lon="5.5341">
        <ele>1094</ele>
        <time>2021-05-18T10:38:16Z</time>
      </trkpt>
      <trkpt lat="45.03656" lon="5.53421">
        <ele>1095</ele>
        <time>2021-05-18T10:38:18Z</time>
      </trkpt>
      <trkpt lat="45.03673" lon="5.53458">
        <ele>1100</ele>
        <time>2021-05-18T10:38:24Z</time>
      </trkpt>
      <trkpt lat="45.03715" lon="5.5351">
        <ele>1098</ele>
        <time>2021-05-18T10:38:33Z</time>
      </trkpt>
      <trkpt lat="45.03764" lon="5.5356">
        <ele>1097</ele>
        <time>2021-05-18T10:38:44Z</time>
      </trkpt>
      <trkpt lat="45.03808" lon="5.53601">
        <ele>1095</ele>
        <time>2021-05-18T10:38:54Z</time>
      </trkpt>
      <trkpt lat="45.03883" lon="5.53682">
        <ele>1094</ele>
        <time>2021-05-18T10:39:10Z</time>
      </trkpt>
      <trkpt lat="45.03931" lon="5.53743">
        <ele>1098</ele>
        <time>2021-05-18T10:39:22Z</time>
      </trkpt>
      <trkpt lat="45.03955" lon="5.53762">
        <ele>1097</ele>
        <time>2021-05-18T10:39:27Z</time>
      </trkpt>
      <trkpt lat="45.03994" lon="5.53801">
        <ele>1098</ele>
        <time>2021-05-18T10:39:35Z</time>
      </trkpt>
      <trkpt lat="45.04011" lon="5.53818">
        <ele>1099</ele>
        <time>2021-05-18T10:39:39Z</time>
      </trkpt>
      <trkpt lat="45.04043" lon="5.53839">
        <ele>1098</ele>
        <time>2021-05-18T10:39:45Z</time>
      </trkpt>
      <trkpt lat="45.0406" lon="5.53854">
        <ele>1097</ele>
        <time>2021-05-18T10:39:49Z</time>
      </trkpt>
      <trkpt lat="45.04084" lon="5.53867">
        <ele>1094</ele>
        <time>2021-05-18T10:39:53Z</time>
      </trkpt>
      <trkpt lat="45.04101" lon="5.53879">
        <ele>1092</ele>
        <time>2021-05-18T10:39:57Z</time>
      </trkpt>
      <trkpt lat="45.04117" lon="5.53899">
        <ele>1091</ele>
        <time>2021-05-18T10:40:01Z</time>
      </trkpt>
      <trkpt lat="45.0412" lon="5.53914">
        <ele>1092</ele>
        <time>2021-05-18T10:40:02Z</time>
      </trkpt>
      <trkpt lat="45.04118" lon="5.53948">
        <ele>1093</ele>
        <time>2021-05-18T10:40:07Z</time>
      </trkpt>
      <trkpt lat="45.04123" lon="5.53973">
        <ele>1093</ele>
        <time>2021-05-18T10:40:10Z</time>
      </trkpt>
      <trkpt lat="45.04138" lon="5.54014">
        <ele>1092</ele>
        <time>2021-05-18T10:40:16Z</time>
      </trkpt>
      <trkpt lat="45.04142" lon="5.54036">
        <ele>1091</ele>
        <time>2021-05-18T10:40:19Z</time>
      </trkpt>
      <trkpt lat="45.04144" lon="5.54079">
        <ele>1090</ele>
        <time>2021-05-18T10:40:24Z</time>
      </trkpt>
      <trkpt lat="45.04144" lon="5.54133">
        <ele>1093</ele>
        <time>2021-05-18T10:40:31Z</time>
      </trkpt>
      <trkpt lat="45.04154" lon="5.54164">
        <ele>1092</ele>
        <time>2021-05-18T10:40:35Z</time>
      </trkpt>
      <trkpt lat="45.04163" lon="5.54174">
        <ele>1091</ele>
        <time>2021-05-18T10:40:37Z</time>
      </trkpt>
      <trkpt lat="45.04177" lon="5.5418">
        <ele>1089</ele>
        <time>2021-05-18T10:40:40Z</time>
      </trkpt>
      <trkpt lat="45.04186" lon="5.54187">
        <ele>1088</ele>
        <time>2021-05-18T10:40:42Z</time>
      </trkpt>
      <trkpt lat="45.0419" lon="5.54195">
        <ele>1089</ele>
        <time>2021-05-18T10:40:43Z</time>
      </trkpt>
      <trkpt lat="45.04193" lon="5.54201">
        <ele>1089</ele>
        <time>2021-05-18T10:40:44Z</time>
      </trkpt>
      <trkpt lat="45.042" lon="5.54234">
        <ele>1090</ele>
        <time>2021-05-18T10:40:48Z</time>
      </trkpt>
      <trkpt lat="45.04204" lon="5.54246">
        <ele>1091</ele>
        <time>2021-05-18T10:40:50Z</time>
      </trkpt>
      <trkpt lat="45.04206" lon="5.54277">
        <ele>1094</ele>
        <time>2021-05-18T10:40:54Z</time>
      </trkpt>
      <trkpt lat="45.04216" lon="5.54319">
        <ele>1098</ele>
        <time>2021-05-18T10:40:59Z</time>
      </trkpt>
      <trkpt lat="45.04228" lon="5.54356">
        <ele>1102</ele>
        <time>2021-05-18T10:41:04Z</time>
      </trkpt>
      <trkpt lat="45.0424" lon="5.54406">
        <ele>1107</ele>
        <time>2021-05-18T10:41:11Z</time>
      </trkpt>
      <trkpt lat="45.0425" lon="5.5444">
        <ele>1110</ele>
        <time>2021-05-18T10:41:16Z</time>
      </trkpt>
      <trkpt lat="45.04262" lon="5.54474">
        <ele>1109</ele>
        <time>2021-05-18T10:41:20Z</time>
      </trkpt>
      <trkpt lat="45.0428" lon="5.54534">
        <ele>1106</ele>
        <time>2021-05-18T10:41:29Z</time>
      </trkpt>
      <trkpt lat="45.04282" lon="5.5458">
        <ele>1105</ele>
        <time>2021-05-18T10:41:34Z</time>
      </trkpt>
      <trkpt lat="45.0428" lon="5.54603">
        <ele>1107</ele>
        <time>2021-05-18T10:41:37Z</time>
      </trkpt>
      <trkpt lat="45.04276" lon="5.54631">
        <ele>1108</ele>
        <time>2021-05-18T10:41:41Z</time>
      </trkpt>
      <trkpt lat="45.04282" lon="5.54651">
        <ele>1107</ele>
        <time>2021-05-18T10:41:44Z</time>
      </trkpt>
      <trkpt lat="45.04292" lon="5.54668">
        <ele>1106</ele>
        <time>2021-05-18T10:41:46Z</time>
      </trkpt>
      <trkpt lat="45.04304" lon="5.54682">
        <ele>1107</ele>
        <time>2021-05-18T10:41:49Z</time>
      </trkpt>
      <trkpt lat="45.04324" lon="5.54679">
        <ele>1102</ele>
        <time>2021-05-18T10:41:53Z</time>
      </trkpt>
      <trkpt lat="45.04348" lon="5.54681">
        <ele>1099</ele>
        <time>2021-05-18T10:41:57Z</time>
      </trkpt>
      <trkpt lat="45.04353" lon="5.54689">
        <ele>1100</ele>
        <time>2021-05-18T10:41:58Z</time>
      </trkpt>
      <trkpt lat="45.04361" lon="5.54698">
        <ele>1101</ele>
        <time>2021-05-18T10:42:00Z</time>
      </trkpt>
      <trkpt lat="45.04372" lon="5.54729">
        <ele>1105</ele>
        <time>2021-05-18T10:42:05Z</time>
      </trkpt>
      <trkpt lat="45.0438" lon="5.54764">
        <ele>1109</ele>
        <time>2021-05-18T10:42:09Z</time>
      </trkpt>
      <trkpt lat="45.04382" lon="5.54801">
        <ele>1113</ele>
        <time>2021-05-18T10:42:14Z</time>
      </trkpt>
      <trkpt lat="45.04376" lon="5.5482">
        <ele>1117</ele>
        <time>2021-05-18T10:42:17Z</time>
      </trkpt>
      <trkpt lat="45.04368" lon="5.5482">
        <ele>1119</ele>
        <time>2021-05-18T10:42:18Z</time>
      </trkpt>
      <trkpt lat="45.04358" lon="5.54824">
        <ele>1121</ele>
        <time>2021-05-18T10:42:20Z</time>
      </trkpt>
      <trkpt lat="45.04345" lon="5.54824">
        <ele>1124</ele>
        <time>2021-05-18T10:42:22Z</time>
      </trkpt>
      <trkpt lat="45.04321" lon="5.54828">
        <ele>1128</ele>
        <time>2021-05-18T10:42:26Z</time>
      </trkpt>
      <trkpt lat="45.04308" lon="5.54831">
        <ele>1130</ele>
        <time>2021-05-18T10:42:29Z</time>
      </trkpt>
      <trkpt lat="45.04296" lon="5.54837">
        <ele>1131</ele>
        <time>2021-05-18T10:42:31Z</time>
      </trkpt>
      <trkpt lat="45.04279" lon="5.54844">
        <ele>1133</ele>
        <time>2021-05-18T10:42:34Z</time>
      </trkpt>
      <trkpt lat="45.0427" lon="5.54858">
        <ele>1134</ele>
        <time>2021-05-18T10:42:37Z</time>
      </trkpt>
      <trkpt lat="45.04265" lon="5.54865">
        <ele>1135</ele>
        <time>2021-05-18T10:42:38Z</time>
      </trkpt>
      <trkpt lat="45.04259" lon="5.54872">
        <ele>1136</ele>
        <time>2021-05-18T10:42:39Z</time>
      </trkpt>
      <trkpt lat="45.04249" lon="5.54887">
        <ele>1138</ele>
        <time>2021-05-18T10:42:42Z</time>
      </trkpt>
      <trkpt lat="45.04247" lon="5.54903">
        <ele>1139</ele>
        <time>2021-05-18T10:42:44Z</time>
      </trkpt>
      <trkpt lat="45.04234" lon="5.54933">
        <ele>1139</ele>
        <time>2021-05-18T10:42:48Z</time>
      </trkpt>
      <trkpt lat="45.04216" lon="5.5495">
        <ele>1141</ele>
        <time>2021-05-18T10:42:52Z</time>
      </trkpt>
      <trkpt lat="45.0421" lon="5.54961">
        <ele>1141</ele>
        <time>2021-05-18T10:42:54Z</time>
      </trkpt>
      <trkpt lat="45.04192" lon="5.54978">
        <ele>1144</ele>
        <time>2021-05-18T10:42:58Z</time>
      </trkpt>
      <trkpt lat="45.04162" lon="5.55014">
        <ele>1150</ele>
        <time>2021-05-18T10:43:05Z</time>
      </trkpt>
      <trkpt lat="45.0414" lon="5.55043">
        <ele>1155</ele>
        <time>2021-05-18T10:43:10Z</time>
      </trkpt>
      <trkpt lat="45.04132" lon="5.5506">
        <ele>1156</ele>
        <time>2021-05-18T10:43:13Z</time>
      </trkpt>
      <trkpt lat="45.04126" lon="5.55073">
        <ele>1158</ele>
        <time>2021-05-18T10:43:15Z</time>
      </trkpt>
      <trkpt lat="45.0413" lon="5.55093">
        <ele>1156</ele>
        <time>2021-05-18T10:43:17Z</time>
      </trkpt>
      <trkpt lat="45.04135" lon="5.55103">
        <ele>1155</ele>
        <time>2021-05-18T10:43:19Z</time>
      </trkpt>
      <trkpt lat="45.04143" lon="5.55118">
        <ele>1153</ele>
        <time>2021-05-18T10:43:21Z</time>
      </trkpt>
      <trkpt lat="45.0415" lon="5.55138">
        <ele>1152</ele>
        <time>2021-05-18T10:43:24Z</time>
      </trkpt>
      <trkpt lat="45.0414" lon="5.55161">
        <ele>1156</ele>
        <time>2021-05-18T10:43:27Z</time>
      </trkpt>
      <trkpt lat="45.04134" lon="5.55178">
        <ele>1160</ele>
        <time>2021-05-18T10:43:30Z</time>
      </trkpt>
      <trkpt lat="45.04137" lon="5.552">
        <ele>1163</ele>
        <time>2021-05-18T10:43:32Z</time>
      </trkpt>
      <trkpt lat="45.04145" lon="5.55212">
        <ele>1163</ele>
        <time>2021-05-18T10:43:35Z</time>
      </trkpt>
      <trkpt lat="45.04169" lon="5.55228">
        <ele>1160</ele>
        <time>2021-05-18T10:43:39Z</time>
      </trkpt>
      <trkpt lat="45.04186" lon="5.55268">
        <ele>1163</ele>
        <time>2021-05-18T10:43:45Z</time>
      </trkpt>
      <trkpt lat="45.04193" lon="5.55288">
        <ele>1164</ele>
        <time>2021-05-18T10:43:48Z</time>
      </trkpt>
      <trkpt lat="45.04224" lon="5.55354">
        <ele>1163</ele>
        <time>2021-05-18T10:43:58Z</time>
      </trkpt>
      <trkpt lat="45.04248" lon="5.55404">
        <ele>1162</ele>
        <time>2021-05-18T10:44:05Z</time>
      </trkpt>
      <trkpt lat="45.04279" lon="5.55456">
        <ele>1156</ele>
        <time>2021-05-18T10:44:14Z</time>
      </trkpt>
      <trkpt lat="45.04283" lon="5.55477">
        <ele>1155</ele>
        <time>2021-05-18T10:44:17Z</time>
      </trkpt>
      <trkpt lat="45.04271" lon="5.55493">
        <ele>1160</ele>
        <time>2021-05-18T10:44:20Z</time>
      </trkpt>
      <trkpt lat="45.04265" lon="5.55509">
        <ele>1162</ele>
        <time>2021-05-18T10:44:22Z</time>
      </trkpt>
      <trkpt lat="45.04253" lon="5.55521">
        <ele>1167</ele>
        <time>2021-05-18T10:44:25Z</time>
      </trkpt>
      <trkpt lat="45.04246" lon="5.55532">
        <ele>1170</ele>
        <time>2021-05-18T10:44:26Z</time>
      </trkpt>
      <trkpt lat="45.04246" lon="5.55548">
        <ele>1171</ele>
        <time>2021-05-18T10:44:28Z</time>
      </trkpt>
      <trkpt lat="45.04246" lon="5.55566">
        <ele>1172</ele>
        <time>2021-05-18T10:44:31Z</time>
      </trkpt>
      <trkpt lat="45.04246" lon="5.55583">
        <ele>1173</ele>
        <time>2021-05-18T10:44:33Z</time>
      </trkpt>
      <trkpt lat="45.04237" lon="5.55615">
        <ele>1177</ele>
        <time>2021-05-18T10:44:37Z</time>
      </trkpt>
      <trkpt lat="45.04242" lon="5.55638">
        <ele>1177</ele>
        <time>2021-05-18T10:44:40Z</time>
      </trkpt>
      <trkpt lat="45.04251" lon="5.55666">
        <ele>1175</ele>
        <time>2021-05-18T10:44:44Z</time>
      </trkpt>
      <trkpt lat="45.04258" lon="5.55699">
        <ele>1177</ele>
        <time>2021-05-18T10:44:48Z</time>
      </trkpt>
      <trkpt lat="45.04264" lon="5.55717">
        <ele>1178</ele>
        <time>2021-05-18T10:44:51Z</time>
      </trkpt>
      <trkpt lat="45.04275" lon="5.55755">
        <ele>1181</ele>
        <time>2021-05-18T10:44:56Z</time>
      </trkpt>
      <trkpt lat="45.04281" lon="5.5577">
        <ele>1182</ele>
        <time>2021-05-18T10:44:58Z</time>
      </trkpt>
      <trkpt lat="45.04288" lon="5.55778">
        <ele>1181</ele>
        <time>2021-05-18T10:45:00Z</time>
      </trkpt>
      <trkpt lat="45.04296" lon="5.55776">
        <ele>1179</ele>
        <time>2021-05-18T10:45:01Z</time>
      </trkpt>
      <trkpt lat="45.04303" lon="5.55774">
        <ele>1177</ele>
        <time>2021-05-18T10:45:03Z</time>
      </trkpt>
      <trkpt lat="45.0431" lon="5.55778">
        <ele>1176</ele>
        <time>2021-05-18T10:45:04Z</time>
      </trkpt>
      <trkpt lat="45.04332" lon="5.55836">
        <ele>1176</ele>
        <time>2021-05-18T10:45:12Z</time>
      </trkpt>
      <trkpt lat="45.04349" lon="5.55885">
        <ele>1172</ele>
        <time>2021-05-18T10:45:19Z</time>
      </trkpt>
      <trkpt lat="45.04358" lon="5.55912">
        <ele>1172</ele>
        <time>2021-05-18T10:45:23Z</time>
      </trkpt>
      <trkpt lat="45.04376" lon="5.55952">
        <ele>1169</ele>
        <time>2021-05-18T10:45:29Z</time>
      </trkpt>
      <trkpt lat="45.04388" lon="5.55987">
        <ele>1169</ele>
        <time>2021-05-18T10:45:34Z</time>
      </trkpt>
      <trkpt lat="45.04395" lon="5.55998">
        <ele>1168</ele>
        <time>2021-05-18T10:45:36Z</time>
      </trkpt>
      <trkpt lat="45.04423" lon="5.5602">
        <ele>1165</ele>
        <time>2021-05-18T10:45:41Z</time>
      </trkpt>
      <trkpt lat="45.04489" lon="5.56007">
        <ele>1160</ele>
        <time>2021-05-18T10:45:53Z</time>
      </trkpt>
      <trkpt lat="45.04496" lon="5.56003">
        <ele>1160</ele>
        <time>2021-05-18T10:45:54Z</time>
      </trkpt>
      <trkpt lat="45.04507" lon="5.56017">
        <ele>1163</ele>
        <time>2021-05-18T10:45:57Z</time>
      </trkpt>
      <trkpt lat="45.0452" lon="5.56023">
        <ele>1165</ele>
        <time>2021-05-18T10:45:59Z</time>
      </trkpt>
      <trkpt lat="45.0454" lon="5.56018">
        <ele>1167</ele>
        <time>2021-05-18T10:46:03Z</time>
      </trkpt>
      <trkpt lat="45.04548" lon="5.56009">
        <ele>1166</ele>
        <time>2021-05-18T10:46:05Z</time>
      </trkpt>
      <trkpt lat="45.04558" lon="5.56004">
        <ele>1167</ele>
        <time>2021-05-18T10:46:07Z</time>
      </trkpt>
      <trkpt lat="45.04564" lon="5.55992">
        <ele>1165</ele>
        <time>2021-05-18T10:46:09Z</time>
      </trkpt>
      <trkpt lat="45.04576" lon="5.55986">
        <ele>1166</ele>
        <time>2021-05-18T10:46:11Z</time>
      </trkpt>
      <trkpt lat="45.04595" lon="5.55965">
        <ele>1166</ele>
        <time>2021-05-18T10:46:15Z</time>
      </trkpt>
      <trkpt lat="45.04616" lon="5.55944">
        <ele>1167</ele>
        <time>2021-05-18T10:46:20Z</time>
      </trkpt>
      <trkpt lat="45.04627" lon="5.55951">
        <ele>1171</ele>
        <time>2021-05-18T10:46:22Z</time>
      </trkpt>
      <trkpt lat="45.0463" lon="5.55968">
        <ele>1173</ele>
        <time>2021-05-18T10:46:24Z</time>
      </trkpt>
      <trkpt lat="45.04628" lon="5.55994">
        <ele>1175</ele>
        <time>2021-05-18T10:46:27Z</time>
      </trkpt>
      <trkpt lat="45.04632" lon="5.56004">
        <ele>1177</ele>
        <time>2021-05-18T10:46:29Z</time>
      </trkpt>
      <trkpt lat="45.04652" lon="5.56004">
        <ele>1180</ele>
        <time>2021-05-18T10:46:32Z</time>
      </trkpt>
      <trkpt lat="45.04662" lon="5.56001">
        <ele>1181</ele>
        <time>2021-05-18T10:46:34Z</time>
      </trkpt>
      <trkpt lat="45.04671" lon="5.56002">
        <ele>1183</ele>
        <time>2021-05-18T10:46:36Z</time>
      </trkpt>
      <trkpt lat="45.04683" lon="5.55998">
        <ele>1185</ele>
        <time>2021-05-18T10:46:38Z</time>
      </trkpt>
      <trkpt lat="45.04687" lon="5.55989">
        <ele>1185</ele>
        <time>2021-05-18T10:46:39Z</time>
      </trkpt>
      <trkpt lat="45.04696" lon="5.55949">
        <ele>1183</ele>
        <time>2021-05-18T10:46:45Z</time>
      </trkpt>
      <trkpt lat="45.04706" lon="5.55905">
        <ele>1179</ele>
        <time>2021-05-18T10:46:50Z</time>
      </trkpt>
      <trkpt lat="45.0471" lon="5.55869">
        <ele>1175</ele>
        <time>2021-05-18T10:46:55Z</time>
      </trkpt>
      <trkpt lat="45.04714" lon="5.55846">
        <ele>1172</ele>
        <time>2021-05-18T10:46:58Z</time>
      </trkpt>
      <trkpt lat="45.0472" lon="5.55838">
        <ele>1170</ele>
        <time>2021-05-18T10:47:00Z</time>
      </trkpt>
      <trkpt lat="45.04727" lon="5.55833">
        <ele>1170</ele>
        <time>2021-05-18T10:47:01Z</time>
      </trkpt>
      <trkpt lat="45.04761" lon="5.55833">
        <ele>1169</ele>
        <time>2021-05-18T10:47:07Z</time>
      </trkpt>
      <trkpt lat="45.04806" lon="5.55803">
        <ele>1165</ele>
        <time>2021-05-18T10:47:16Z</time>
      </trkpt>
      <trkpt lat="45.04824" lon="5.55797">
        <ele>1165</ele>
        <time>2021-05-18T10:47:19Z</time>
      </trkpt>
      <trkpt lat="45.0485" lon="5.55813">
        <ele>1166</ele>
        <time>2021-05-18T10:47:24Z</time>
      </trkpt>
      <trkpt lat="45.04876" lon="5.55835">
        <ele>1168</ele>
        <time>2021-05-18T10:47:30Z</time>
      </trkpt>
      <trkpt lat="45.04895" lon="5.55838">
        <ele>1169</ele>
        <time>2021-05-18T10:47:33Z</time>
      </trkpt>
      <trkpt lat="45.04916" lon="5.55832">
        <ele>1166</ele>
        <time>2021-05-18T10:47:37Z</time>
      </trkpt>
      <trkpt lat="45.04933" lon="5.55833">
        <ele>1167</ele>
        <time>2021-05-18T10:47:40Z</time>
      </trkpt>
      <trkpt lat="45.04953" lon="5.55825">
        <ele>1167</ele>
        <time>2021-05-18T10:47:43Z</time>
      </trkpt>
      <trkpt lat="45.04969" lon="5.55812">
        <ele>1168</ele>
        <time>2021-05-18T10:47:47Z</time>
      </trkpt>
      <trkpt lat="45.04979" lon="5.55792">
        <ele>1168</ele>
        <time>2021-05-18T10:47:50Z</time>
      </trkpt>
      <trkpt lat="45.04987" lon="5.5581">
        <ele>1170</ele>
        <time>2021-05-18T10:47:52Z</time>
      </trkpt>
      <trkpt lat="45.04999" lon="5.55856">
        <ele>1174</ele>
        <time>2021-05-18T10:47:59Z</time>
      </trkpt>
      <trkpt lat="45.05008" lon="5.55897">
        <ele>1181</ele>
        <time>2021-05-18T10:48:04Z</time>
      </trkpt>
      <trkpt lat="45.05009" lon="5.55933">
        <ele>1186</ele>
        <time>2021-05-18T10:48:09Z</time>
      </trkpt>
      <trkpt lat="45.05012" lon="5.55965">
        <ele>1193</ele>
        <time>2021-05-18T10:48:13Z</time>
      </trkpt>
      <trkpt lat="45.05031" lon="5.56007">
        <ele>1202</ele>
        <time>2021-05-18T10:48:19Z</time>
      </trkpt>
      <trkpt lat="45.05044" lon="5.56056">
        <ele>1206</ele>
        <time>2021-05-18T10:48:25Z</time>
      </trkpt>
      <trkpt lat="45.05026" lon="5.56124">
        <ele>1206</ele>
        <time>2021-05-18T10:48:35Z</time>
      </trkpt>
      <trkpt lat="45.05042" lon="5.56208">
        <ele>1206</ele>
        <time>2021-05-18T10:48:46Z</time>
      </trkpt>
      <trkpt lat="45.05039" lon="5.5628">
        <ele>1208</ele>
        <time>2021-05-18T10:48:55Z</time>
      </trkpt>
      <trkpt lat="45.05005" lon="5.56307">
        <ele>1207</ele>
        <time>2021-05-18T10:49:02Z</time>
      </trkpt>
      <trkpt lat="45.04992" lon="5.5637">
        <ele>1214</ele>
        <time>2021-05-18T10:49:10Z</time>
      </trkpt>
      <trkpt lat="45.05005" lon="5.56414">
        <ele>1218</ele>
        <time>2021-05-18T10:49:16Z</time>
      </trkpt>
      <trkpt lat="45.0502" lon="5.5644">
        <ele>1221</ele>
        <time>2021-05-18T10:49:20Z</time>
      </trkpt>
      <trkpt lat="45.05044" lon="5.56464">
        <ele>1225</ele>
        <time>2021-05-18T10:49:25Z</time>
      </trkpt>
      <trkpt lat="45.05066" lon="5.56458">
        <ele>1225</ele>
        <time>2021-05-18T10:49:29Z</time>
      </trkpt>
      <trkpt lat="45.05092" lon="5.56478">
        <ele>1230</ele>
        <time>2021-05-18T10:49:35Z</time>
      </trkpt>
      <trkpt lat="45.05107" lon="5.5647">
        <ele>1232</ele>
        <time>2021-05-18T10:49:37Z</time>
      </trkpt>
      <trkpt lat="45.05126" lon="5.56445">
        <ele>1233</ele>
        <time>2021-05-18T10:49:42Z</time>
      </trkpt>
      <trkpt lat="45.05161" lon="5.56403">
        <ele>1234</ele>
        <time>2021-05-18T10:49:50Z</time>
      </trkpt>
      <trkpt lat="45.0517" lon="5.56391">
        <ele>1234</ele>
        <time>2021-05-18T10:49:52Z</time>
      </trkpt>
      <trkpt lat="45.05184" lon="5.56367">
        <ele>1234</ele>
        <time>2021-05-18T10:49:56Z</time>
      </trkpt>
      <trkpt lat="45.05202" lon="5.56314">
        <ele>1232</ele>
        <time>2021-05-18T10:50:04Z</time>
      </trkpt>
      <trkpt lat="45.05214" lon="5.5629">
        <ele>1232</ele>
        <time>2021-05-18T10:50:07Z</time>
      </trkpt>
      <trkpt lat="45.05223" lon="5.5629">
        <ele>1233</ele>
        <time>2021-05-18T10:50:09Z</time>
      </trkpt>
      <trkpt lat="45.05217" lon="5.56338">
        <ele>1233</ele>
        <time>2021-05-18T10:50:15Z</time>
      </trkpt>
      <trkpt lat="45.05209" lon="5.56362">
        <ele>1235</ele>
        <time>2021-05-18T10:50:18Z</time>
      </trkpt>
      <trkpt lat="45.05191" lon="5.56432">
        <ele>1241</ele>
        <time>2021-05-18T10:50:28Z</time>
      </trkpt>
      <trkpt lat="45.05175" lon="5.56505">
        <ele>1252</ele>
        <time>2021-05-18T10:50:37Z</time>
      </trkpt>
      <trkpt lat="45.05164" lon="5.5658">
        <ele>1261</ele>
        <time>2021-05-18T10:50:47Z</time>
      </trkpt>
      <trkpt lat="45.05129" lon="5.56683">
        <ele>1268</ele>
        <time>2021-05-18T10:51:01Z</time>
      </trkpt>
      <trkpt lat="45.05126" lon="5.56699">
        <ele>1270</ele>
        <time>2021-05-18T10:51:03Z</time>
      </trkpt>
      <trkpt lat="45.05093" lon="5.56759">
        <ele>1273</ele>
        <time>2021-05-18T10:51:13Z</time>
      </trkpt>
      <trkpt lat="45.05066" lon="5.5679">
        <ele>1276</ele>
        <time>2021-05-18T10:51:19Z</time>
      </trkpt>
      <trkpt lat="45.05028" lon="5.56815">
        <ele>1279</ele>
        <time>2021-05-18T10:51:27Z</time>
      </trkpt>
      <trkpt lat="45.05005" lon="5.56817">
        <ele>1277</ele>
        <time>2021-05-18T10:51:31Z</time>
      </trkpt>
      <trkpt lat="45.04954" lon="5.56805">
        <ele>1280</ele>
        <time>2021-05-18T10:51:40Z</time>
      </trkpt>
      <trkpt lat="45.04902" lon="5.56786">
        <ele>1284</ele>
        <time>2021-05-18T10:51:50Z</time>
      </trkpt>
      <trkpt lat="45.0489" lon="5.56785">
        <ele>1286</ele>
        <time>2021-05-18T10:51:52Z</time>
      </trkpt>
      <trkpt lat="45.04875" lon="5.56787">
        <ele>1288</ele>
        <time>2021-05-18T10:51:54Z</time>
      </trkpt>
      <trkpt lat="45.0484" lon="5.56795">
        <ele>1295</ele>
        <time>2021-05-18T10:52:01Z</time>
      </trkpt>
      <trkpt lat="45.04828" lon="5.568">
        <ele>1296</ele>
        <time>2021-05-18T10:52:03Z</time>
      </trkpt>
      <trkpt lat="45.04799" lon="5.56816">
        <ele>1299</ele>
        <time>2021-05-18T10:52:08Z</time>
      </trkpt>
      <trkpt lat="45.04745" lon="5.56849">
        <ele>1307</ele>
        <time>2021-05-18T10:52:19Z</time>
      </trkpt>
      <trkpt lat="45.04687" lon="5.56885">
        <ele>1314</ele>
        <time>2021-05-18T10:52:30Z</time>
      </trkpt>
      <trkpt lat="45.04664" lon="5.56899">
        <ele>1317</ele>
        <time>2021-05-18T10:52:35Z</time>
      </trkpt>
      <trkpt lat="45.04604" lon="5.5694">
        <ele>1330</ele>
        <time>2021-05-18T10:52:46Z</time>
      </trkpt>
      <trkpt lat="45.04582" lon="5.5697">
        <ele>1336</ele>
        <time>2021-05-18T10:52:52Z</time>
      </trkpt>
      <trkpt lat="45.04566" lon="5.56992">
        <ele>1345</ele>
        <time>2021-05-18T10:52:56Z</time>
      </trkpt>
      <trkpt lat="45.04554" lon="5.57001">
        <ele>1349</ele>
        <time>2021-05-18T10:52:58Z</time>
      </trkpt>
      <trkpt lat="45.04543" lon="5.57007">
        <ele>1352</ele>
        <time>2021-05-18T10:53:00Z</time>
      </trkpt>
      <trkpt lat="45.04544" lon="5.57028">
        <ele>1355</ele>
        <time>2021-05-18T10:53:03Z</time>
      </trkpt>
      <trkpt lat="45.04552" lon="5.5707">
        <ele>1358</ele>
        <time>2021-05-18T10:53:08Z</time>
      </trkpt>
      <trkpt lat="45.04557" lon="5.57101">
        <ele>1360</ele>
        <time>2021-05-18T10:53:12Z</time>
      </trkpt>
      <trkpt lat="45.04565" lon="5.5712">
        <ele>1360</ele>
        <time>2021-05-18T10:53:15Z</time>
      </trkpt>
      <trkpt lat="45.04589" lon="5.57134">
        <ele>1354</ele>
        <time>2021-05-18T10:53:20Z</time>
      </trkpt>
      <trkpt lat="45.04616" lon="5.57095">
        <ele>1350</ele>
        <time>2021-05-18T10:53:27Z</time>
      </trkpt>
      <trkpt lat="45.04633" lon="5.57079">
        <ele>1348</ele>
        <time>2021-05-18T10:53:30Z</time>
      </trkpt>
      <trkpt lat="45.04685" lon="5.57052">
        <ele>1346</ele>
        <time>2021-05-18T10:53:40Z</time>
      </trkpt>
      <trkpt lat="45.04706" lon="5.57037">
        <ele>1345</ele>
        <time>2021-05-18T10:53:44Z</time>
      </trkpt>
      <trkpt lat="45.04738" lon="5.57008">
        <ele>1346</ele>
        <time>2021-05-18T10:53:51Z</time>
      </trkpt>
      <trkpt lat="45.04772" lon="5.56994">
        <ele>1343</ele>
        <time>2021-05-18T10:53:57Z</time>
      </trkpt>
      <trkpt lat="45.04811" lon="5.56988">
        <ele>1338</ele>
        <time>2021-05-18T10:54:04Z</time>
      </trkpt>
      <trkpt lat="45.04842" lon="5.56989">
        <ele>1336</ele>
        <time>2021-05-18T10:54:10Z</time>
      </trkpt>
      <trkpt lat="45.04863" lon="5.56998">
        <ele>1336</ele>
        <time>2021-05-18T10:54:14Z</time>
      </trkpt>
      <trkpt lat="45.04876" lon="5.57007">
        <ele>1337</ele>
        <time>2021-05-18T10:54:16Z</time>
      </trkpt>
      <trkpt lat="45.04864" lon="5.57012">
        <ele>1339</ele>
        <time>2021-05-18T10:54:19Z</time>
      </trkpt>
      <trkpt lat="45.04834" lon="5.57051">
        <ele>1345</ele>
        <time>2021-05-18T10:54:26Z</time>
      </trkpt>
      <trkpt lat="45.04831" lon="5.57063">
        <ele>1346</ele>
        <time>2021-05-18T10:54:28Z</time>
      </trkpt>
      <trkpt lat="45.04811" lon="5.57096">
        <ele>1348</ele>
        <time>2021-05-18T10:54:33Z</time>
      </trkpt>
      <trkpt lat="45.04806" lon="5.57112">
        <ele>1348</ele>
        <time>2021-05-18T10:54:35Z</time>
      </trkpt>
      <trkpt lat="45.04799" lon="5.57122">
        <ele>1347</ele>
        <time>2021-05-18T10:54:37Z</time>
      </trkpt>
      <trkpt lat="45.04791" lon="5.57143">
        <ele>1346</ele>
        <time>2021-05-18T10:54:40Z</time>
      </trkpt>
      <trkpt lat="45.04787" lon="5.57165">
        <ele>1344</ele>
        <time>2021-05-18T10:54:43Z</time>
      </trkpt>
      <trkpt lat="45.04777" lon="5.57201">
        <ele>1342</ele>
        <time>2021-05-18T10:54:48Z</time>
      </trkpt>
      <trkpt lat="45.04774" lon="5.57219">
        <ele>1341</ele>
        <time>2021-05-18T10:54:50Z</time>
      </trkpt>
      <trkpt lat="45.04773" lon="5.57233">
        <ele>1341</ele>
        <time>2021-05-18T10:54:52Z</time>
      </trkpt>
      <trkpt lat="45.04771" lon="5.57257">
        <ele>1340</ele>
        <time>2021-05-18T10:54:55Z</time>
      </trkpt>
      <trkpt lat="45.04777" lon="5.57296">
        <ele>1343</ele>
        <time>2021-05-18T10:55:00Z</time>
      </trkpt>
      <trkpt lat="45.04777" lon="5.57308">
        <ele>1344</ele>
        <time>2021-05-18T10:55:01Z</time>
      </trkpt>
      <trkpt lat="45.0478" lon="5.57347">
        <ele>1345</ele>
        <time>2021-05-18T10:55:06Z</time>
      </trkpt>
      <trkpt lat="45.04785" lon="5.57357">
        <ele>1346</ele>
        <time>2021-05-18T10:55:08Z</time>
      </trkpt>
      <trkpt lat="45.04787" lon="5.57364">
        <ele>1347</ele>
        <time>2021-05-18T10:55:09Z</time>
      </trkpt>
      <trkpt lat="45.04782" lon="5.57374">
        <ele>1345</ele>
        <time>2021-05-18T10:55:10Z</time>
      </trkpt>
      <trkpt lat="45.04775" lon="5.57382">
        <ele>1344</ele>
        <time>2021-05-18T10:55:12Z</time>
      </trkpt>
      <trkpt lat="45.04763" lon="5.57387">
        <ele>1342</ele>
        <time>2021-05-18T10:55:14Z</time>
      </trkpt>
      <trkpt lat="45.04763" lon="5.57397">
        <ele>1342</ele>
        <time>2021-05-18T10:55:15Z</time>
      </trkpt>
      <trkpt lat="45.04767" lon="5.57413">
        <ele>1344</ele>
        <time>2021-05-18T10:55:18Z</time>
      </trkpt>
      <trkpt lat="45.04779" lon="5.57424">
        <ele>1343</ele>
        <time>2021-05-18T10:55:20Z</time>
      </trkpt>
      <trkpt lat="45.04783" lon="5.57434">
        <ele>1341</ele>
        <time>2021-05-18T10:55:21Z</time>
      </trkpt>
      <trkpt lat="45.04789" lon="5.57441">
        <ele>1340</ele>
        <time>2021-05-18T10:55:23Z</time>
      </trkpt>
      <trkpt lat="45.04793" lon="5.57449">
        <ele>1338</ele>
        <time>2021-05-18T10:55:24Z</time>
      </trkpt>
      <trkpt lat="45.04792" lon="5.57458">
        <ele>1335</ele>
        <time>2021-05-18T10:55:25Z</time>
      </trkpt>
      <trkpt lat="45.04786" lon="5.57466">
        <ele>1333</ele>
        <time>2021-05-18T10:55:27Z</time>
      </trkpt>
      <trkpt lat="45.04779" lon="5.57468">
        <ele>1333</ele>
        <time>2021-05-18T10:55:28Z</time>
      </trkpt>
      <trkpt lat="45.04766" lon="5.57492">
        <ele>1328</ele>
        <time>2021-05-18T10:55:32Z</time>
      </trkpt>
      <trkpt lat="45.04749" lon="5.57505">
        <ele>1327</ele>
        <time>2021-05-18T10:55:35Z</time>
      </trkpt>
      <trkpt lat="45.0474" lon="5.57521">
        <ele>1326</ele>
        <time>2021-05-18T10:55:38Z</time>
      </trkpt>
      <trkpt lat="45.04728" lon="5.57533">
        <ele>1325</ele>
        <time>2021-05-18T10:55:40Z</time>
      </trkpt>
      <trkpt lat="45.04706" lon="5.57559">
        <ele>1322</ele>
        <time>2021-05-18T10:55:46Z</time>
      </trkpt>
      <trkpt lat="45.04698" lon="5.57573">
        <ele>1320</ele>
        <time>2021-05-18T10:55:48Z</time>
      </trkpt>
      <trkpt lat="45.04691" lon="5.5759">
        <ele>1318</ele>
        <time>2021-05-18T10:55:50Z</time>
      </trkpt>
      <trkpt lat="45.04691" lon="5.57599">
        <ele>1318</ele>
        <time>2021-05-18T10:55:51Z</time>
      </trkpt>
      <trkpt lat="45.04696" lon="5.57607">
        <ele>1318</ele>
        <time>2021-05-18T10:55:53Z</time>
      </trkpt>
      <trkpt lat="45.0471" lon="5.57628">
        <ele>1317</ele>
        <time>2021-05-18T10:55:56Z</time>
      </trkpt>
      <trkpt lat="45.04722" lon="5.57633">
        <ele>1316</ele>
        <time>2021-05-18T10:55:59Z</time>
      </trkpt>
      <trkpt lat="45.04764" lon="5.5766">
        <ele>1313</ele>
        <time>2021-05-18T10:56:07Z</time>
      </trkpt>
      <trkpt lat="45.04806" lon="5.57652">
        <ele>1309</ele>
        <time>2021-05-18T10:56:14Z</time>
      </trkpt>
      <trkpt lat="45.04843" lon="5.57658">
        <ele>1305</ele>
        <time>2021-05-18T10:56:21Z</time>
      </trkpt>
      <trkpt lat="45.0486" lon="5.57656">
        <ele>1302</ele>
        <time>2021-05-18T10:56:24Z</time>
      </trkpt>
      <trkpt lat="45.04873" lon="5.57659">
        <ele>1299</ele>
        <time>2021-05-18T10:56:26Z</time>
      </trkpt>
      <trkpt lat="45.04897" lon="5.57645">
        <ele>1295</ele>
        <time>2021-05-18T10:56:31Z</time>
      </trkpt>
      <trkpt lat="45.04918" lon="5.57644">
        <ele>1292</ele>
        <time>2021-05-18T10:56:35Z</time>
      </trkpt>
      <trkpt lat="45.04943" lon="5.57638">
        <ele>1291</ele>
        <time>2021-05-18T10:56:39Z</time>
      </trkpt>
      <trkpt lat="45.0495" lon="5.57632">
        <ele>1291</ele>
        <time>2021-05-18T10:56:41Z</time>
      </trkpt>
      <trkpt lat="45.04958" lon="5.57609">
        <ele>1293</ele>
        <time>2021-05-18T10:56:44Z</time>
      </trkpt>
      <trkpt lat="45.04963" lon="5.57604">
        <ele>1293</ele>
        <time>2021-05-18T10:56:45Z</time>
      </trkpt>
      <trkpt lat="45.04975" lon="5.57604">
        <ele>1293</ele>
        <time>2021-05-18T10:56:47Z</time>
      </trkpt>
      <trkpt lat="45.04997" lon="5.576">
        <ele>1294</ele>
        <time>2021-05-18T10:56:51Z</time>
      </trkpt>
      <trkpt lat="45.05024" lon="5.57591">
        <ele>1294</ele>
        <time>2021-05-18T10:56:56Z</time>
      </trkpt>
      <trkpt lat="45.05036" lon="5.57593">
        <ele>1293</ele>
        <time>2021-05-18T10:56:58Z</time>
      </trkpt>
      <trkpt lat="45.05067" lon="5.57609">
        <ele>1287</ele>
        <time>2021-05-18T10:57:04Z</time>
      </trkpt>
      <trkpt lat="45.05087" lon="5.57606">
        <ele>1287</ele>
        <time>2021-05-18T10:57:08Z</time>
      </trkpt>
      <trkpt lat="45.05133" lon="5.57594">
        <ele>1286</ele>
        <time>2021-05-18T10:57:16Z</time>
      </trkpt>
      <trkpt lat="45.05154" lon="5.57588">
        <ele>1286</ele>
        <time>2021-05-18T10:57:20Z</time>
      </trkpt>
      <trkpt lat="45.05193" lon="5.5759">
        <ele>1286</ele>
        <time>2021-05-18T10:57:27Z</time>
      </trkpt>
      <trkpt lat="45.05213" lon="5.57592">
        <ele>1286</ele>
        <time>2021-05-18T10:57:30Z</time>
      </trkpt>
      <trkpt lat="45.05276" lon="5.57619">
        <ele>1277</ele>
        <time>2021-05-18T10:57:42Z</time>
      </trkpt>
      <trkpt lat="45.0531" lon="5.57629">
        <ele>1275</ele>
        <time>2021-05-18T10:57:48Z</time>
      </trkpt>
      <trkpt lat="45.05342" lon="5.57639">
        <ele>1272</ele>
        <time>2021-05-18T10:57:54Z</time>
      </trkpt>
      <trkpt lat="45.05366" lon="5.57651">
        <ele>1268</ele>
        <time>2021-05-18T10:57:58Z</time>
      </trkpt>
      <trkpt lat="45.05386" lon="5.57665">
        <ele>1263</ele>
        <time>2021-05-18T10:58:02Z</time>
      </trkpt>
      <trkpt lat="45.05396" lon="5.57674">
        <ele>1262</ele>
        <time>2021-05-18T10:58:05Z</time>
      </trkpt>
      <trkpt lat="45.05411" lon="5.57673">
        <ele>1262</ele>
        <time>2021-05-18T10:58:07Z</time>
      </trkpt>
      <trkpt lat="45.05459" lon="5.5769">
        <ele>1259</ele>
        <time>2021-05-18T10:58:16Z</time>
      </trkpt>
      <trkpt lat="45.05518" lon="5.57698">
        <ele>1256</ele>
        <time>2021-05-18T10:58:27Z</time>
      </trkpt>
      <trkpt lat="45.05544" lon="5.57698">
        <ele>1254</ele>
        <time>2021-05-18T10:58:31Z</time>
      </trkpt>
      <trkpt lat="45.05565" lon="5.57694">
        <ele>1254</ele>
        <time>2021-05-18T10:58:35Z</time>
      </trkpt>
      <trkpt lat="45.05582" lon="5.57688">
        <ele>1254</ele>
        <time>2021-05-18T10:58:38Z</time>
      </trkpt>
      <trkpt lat="45.05596" lon="5.57679">
        <ele>1255</ele>
        <time>2021-05-18T10:58:41Z</time>
      </trkpt>
      <trkpt lat="45.05608" lon="5.57667">
        <ele>1256</ele>
        <time>2021-05-18T10:58:43Z</time>
      </trkpt>
      <trkpt lat="45.05618" lon="5.57648">
        <ele>1260</ele>
        <time>2021-05-18T10:58:46Z</time>
      </trkpt>
      <trkpt lat="45.05633" lon="5.57639">
        <ele>1261</ele>
        <time>2021-05-18T10:58:49Z</time>
      </trkpt>
      <trkpt lat="45.05643" lon="5.57637">
        <ele>1260</ele>
        <time>2021-05-18T10:58:51Z</time>
      </trkpt>
      <trkpt lat="45.05652" lon="5.57638">
        <ele>1259</ele>
        <time>2021-05-18T10:58:53Z</time>
      </trkpt>
      <trkpt lat="45.05657" lon="5.57648">
        <ele>1256</ele>
        <time>2021-05-18T10:58:54Z</time>
      </trkpt>
      <trkpt lat="45.05677" lon="5.57658">
        <ele>1251</ele>
        <time>2021-05-18T10:58:58Z</time>
      </trkpt>
      <trkpt lat="45.0569" lon="5.57668">
        <ele>1248</ele>
        <time>2021-05-18T10:59:01Z</time>
      </trkpt>
      <trkpt lat="45.05682" lon="5.57678">
        <ele>1248</ele>
        <time>2021-05-18T10:59:03Z</time>
      </trkpt>
      <trkpt lat="45.05674" lon="5.5768">
        <ele>1248</ele>
        <time>2021-05-18T10:59:04Z</time>
      </trkpt>
      <trkpt lat="45.05668" lon="5.57687">
        <ele>1248</ele>
        <time>2021-05-18T10:59:05Z</time>
      </trkpt>
      <trkpt lat="45.05646" lon="5.57719">
        <ele>1244</ele>
        <time>2021-05-18T10:59:11Z</time>
      </trkpt>
      <trkpt lat="45.05641" lon="5.57733">
        <ele>1242</ele>
        <time>2021-05-18T10:59:13Z</time>
      </trkpt>
      <trkpt lat="45.05636" lon="5.57744">
        <ele>1241</ele>
        <time>2021-05-18T10:59:15Z</time>
      </trkpt>
      <trkpt lat="45.05622" lon="5.57765">
        <ele>1240</ele>
        <time>2021-05-18T10:59:18Z</time>
      </trkpt>
      <trkpt lat="45.05618" lon="5.57776">
        <ele>1240</ele>
        <time>2021-05-18T10:59:20Z</time>
      </trkpt>
      <trkpt lat="45.05625" lon="5.57785">
        <ele>1239</ele>
        <time>2021-05-18T10:59:21Z</time>
      </trkpt>
      <trkpt lat="45.05642" lon="5.57768">
        <ele>1239</ele>
        <time>2021-05-18T10:59:25Z</time>
      </trkpt>
      <trkpt lat="45.05655" lon="5.57759">
        <ele>1239</ele>
        <time>2021-05-18T10:59:28Z</time>
      </trkpt>
      <trkpt lat="45.05672" lon="5.57764">
        <ele>1238</ele>
        <time>2021-05-18T10:59:31Z</time>
      </trkpt>
      <trkpt lat="45.05683" lon="5.57764">
        <ele>1238</ele>
        <time>2021-05-18T10:59:33Z</time>
      </trkpt>
      <trkpt lat="45.05694" lon="5.57765">
        <ele>1237</ele>
        <time>2021-05-18T10:59:35Z</time>
      </trkpt>
      <trkpt lat="45.05712" lon="5.57755">
        <ele>1237</ele>
        <time>2021-05-18T10:59:38Z</time>
      </trkpt>
      <trkpt lat="45.05729" lon="5.57752">
        <ele>1236</ele>
        <time>2021-05-18T10:59:41Z</time>
      </trkpt>
      <trkpt lat="45.05742" lon="5.57738">
        <ele>1236</ele>
        <time>2021-05-18T10:59:44Z</time>
      </trkpt>
      <trkpt lat="45.05765" lon="5.57729">
        <ele>1236</ele>
        <time>2021-05-18T10:59:48Z</time>
      </trkpt>
      <trkpt lat="45.05776" lon="5.57717">
        <ele>1235</ele>
        <time>2021-05-18T10:59:51Z</time>
      </trkpt>
      <trkpt lat="45.05787" lon="5.57713">
        <ele>1235</ele>
        <time>2021-05-18T10:59:53Z</time>
      </trkpt>
      <trkpt lat="45.05803" lon="5.57695">
        <ele>1232</ele>
        <time>2021-05-18T10:59:57Z</time>
      </trkpt>
      <trkpt lat="45.05815" lon="5.57675">
        <ele>1229</ele>
        <time>2021-05-18T11:00:00Z</time>
      </trkpt>
      <trkpt lat="45.05825" lon="5.57666">
        <ele>1227</ele>
        <time>2021-05-18T11:00:02Z</time>
      </trkpt>
      <trkpt lat="45.05842" lon="5.57641">
        <ele>1225</ele>
        <time>2021-05-18T11:00:06Z</time>
      </trkpt>
      <trkpt lat="45.05846" lon="5.57631">
        <ele>1224</ele>
        <time>2021-05-18T11:00:08Z</time>
      </trkpt>
      <trkpt lat="45.05846" lon="5.57618">
        <ele>1223</ele>
        <time>2021-05-18T11:00:09Z</time>
      </trkpt>
      <trkpt lat="45.05842" lon="5.57605">
        <ele>1222</ele>
        <time>2021-05-18T11:00:11Z</time>
      </trkpt>
      <trkpt lat="45.05837" lon="5.57596">
        <ele>1222</ele>
        <time>2021-05-18T11:00:13Z</time>
      </trkpt>
      <trkpt lat="45.05846" lon="5.57589">
        <ele>1221</ele>
        <time>2021-05-18T11:00:14Z</time>
      </trkpt>
      <trkpt lat="45.05855" lon="5.57579">
        <ele>1220</ele>
        <time>2021-05-18T11:00:16Z</time>
      </trkpt>
      <trkpt lat="45.05859" lon="5.57563">
        <ele>1219</ele>
        <time>2021-05-18T11:00:19Z</time>
      </trkpt>
      <trkpt lat="45.05859" lon="5.57542">
        <ele>1216</ele>
        <time>2021-05-18T11:00:21Z</time>
      </trkpt>
      <trkpt lat="45.05856" lon="5.57515">
        <ele>1213</ele>
        <time>2021-05-18T11:00:25Z</time>
      </trkpt>
      <trkpt lat="45.05845" lon="5.57487">
        <ele>1209</ele>
        <time>2021-05-18T11:00:29Z</time>
      </trkpt>
      <trkpt lat="45.05844" lon="5.57465">
        <ele>1206</ele>
        <time>2021-05-18T11:00:31Z</time>
      </trkpt>
      <trkpt lat="45.05847" lon="5.57452">
        <ele>1205</ele>
        <time>2021-05-18T11:00:33Z</time>
      </trkpt>
      <trkpt lat="45.05841" lon="5.57406">
        <ele>1198</ele>
        <time>2021-05-18T11:00:39Z</time>
      </trkpt>
      <trkpt lat="45.05839" lon="5.57393">
        <ele>1196</ele>
        <time>2021-05-18T11:00:41Z</time>
      </trkpt>
      <trkpt lat="45.05833" lon="5.5736">
        <ele>1190</ele>
        <time>2021-05-18T11:00:45Z</time>
      </trkpt>
      <trkpt lat="45.05827" lon="5.57326">
        <ele>1186</ele>
        <time>2021-05-18T11:00:49Z</time>
      </trkpt>
      <trkpt lat="45.05815" lon="5.57279">
        <ele>1184</ele>
        <time>2021-05-18T11:00:56Z</time>
      </trkpt>
      <trkpt lat="45.05814" lon="5.57251">
        <ele>1181</ele>
        <time>2021-05-18T11:00:59Z</time>
      </trkpt>
      <trkpt lat="45.0581" lon="5.57232">
        <ele>1183</ele>
        <time>2021-05-18T11:01:02Z</time>
      </trkpt>
      <trkpt lat="45.0581" lon="5.5721">
        <ele>1185</ele>
        <time>2021-05-18T11:01:05Z</time>
      </trkpt>
      <trkpt lat="45.05818" lon="5.57161">
        <ele>1188</ele>
        <time>2021-05-18T11:01:11Z</time>
      </trkpt>
      <trkpt lat="45.05825" lon="5.57145">
        <ele>1189</ele>
        <time>2021-05-18T11:01:13Z</time>
      </trkpt>
      <trkpt lat="45.05833" lon="5.57136">
        <ele>1189</ele>
        <time>2021-05-18T11:01:15Z</time>
      </trkpt>
      <trkpt lat="45.05877" lon="5.57097">
        <ele>1185</ele>
        <time>2021-05-18T11:01:24Z</time>
      </trkpt>
      <trkpt lat="45.05884" lon="5.57084">
        <ele>1184</ele>
        <time>2021-05-18T11:01:26Z</time>
      </trkpt>
      <trkpt lat="45.05888" lon="5.57066">
        <ele>1185</ele>
        <time>2021-05-18T11:01:29Z</time>
      </trkpt>
      <trkpt lat="45.05903" lon="5.57048">
        <ele>1183</ele>
        <time>2021-05-18T11:01:32Z</time>
      </trkpt>
      <trkpt lat="45.05932" lon="5.57018">
        <ele>1177</ele>
        <time>2021-05-18T11:01:39Z</time>
      </trkpt>
      <trkpt lat="45.05959" lon="5.56985">
        <ele>1171</ele>
        <time>2021-05-18T11:01:45Z</time>
      </trkpt>
      <trkpt lat="45.05967" lon="5.56975">
        <ele>1170</ele>
        <time>2021-05-18T11:01:47Z</time>
      </trkpt>
      <trkpt lat="45.05975" lon="5.56959">
        <ele>1169</ele>
        <time>2021-05-18T11:01:49Z</time>
      </trkpt>
      <trkpt lat="45.05987" lon="5.56946">
        <ele>1166</ele>
        <time>2021-05-18T11:01:52Z</time>
      </trkpt>
      <trkpt lat="45.05998" lon="5.56918">
        <ele>1165</ele>
        <time>2021-05-18T11:01:56Z</time>
      </trkpt>
      <trkpt lat="45.06005" lon="5.56891">
        <ele>1167</ele>
        <time>2021-05-18T11:02:00Z</time>
      </trkpt>
      <trkpt lat="45.06019" lon="5.56878">
        <ele>1165</ele>
        <time>2021-05-18T11:02:03Z</time>
      </trkpt>
      <trkpt lat="45.06025" lon="5.56867">
        <ele>1165</ele>
        <time>2021-05-18T11:02:04Z</time>
      </trkpt>
      <trkpt lat="45.0604" lon="5.56859">
        <ele>1161</ele>
        <time>2021-05-18T11:02:07Z</time>
      </trkpt>
      <trkpt lat="45.06053" lon="5.56847">
        <ele>1157</ele>
        <time>2021-05-18T11:02:10Z</time>
      </trkpt>
      <trkpt lat="45.06073" lon="5.56819">
        <ele>1154</ele>
        <time>2021-05-18T11:02:15Z</time>
      </trkpt>
      <trkpt lat="45.06101" lon="5.5679">
        <ele>1152</ele>
        <time>2021-05-18T11:02:21Z</time>
      </trkpt>
      <trkpt lat="45.06119" lon="5.56769">
        <ele>1149</ele>
        <time>2021-05-18T11:02:25Z</time>
      </trkpt>
      <trkpt lat="45.0613" lon="5.56758">
        <ele>1146</ele>
        <time>2021-05-18T11:02:28Z</time>
      </trkpt>
      <trkpt lat="45.06147" lon="5.56747">
        <ele>1140</ele>
        <time>2021-05-18T11:02:31Z</time>
      </trkpt>
      <trkpt lat="45.06177" lon="5.56729">
        <ele>1133</ele>
        <time>2021-05-18T11:02:37Z</time>
      </trkpt>
      <trkpt lat="45.06186" lon="5.56713">
        <ele>1134</ele>
        <time>2021-05-18T11:02:39Z</time>
      </trkpt>
      <trkpt lat="45.06204" lon="5.56674">
        <ele>1132</ele>
        <time>2021-05-18T11:02:45Z</time>
      </trkpt>
      <trkpt lat="45.0622" lon="5.56634">
        <ele>1130</ele>
        <time>2021-05-18T11:02:51Z</time>
      </trkpt>
      <trkpt lat="45.06241" lon="5.56588">
        <ele>1126</ele>
        <time>2021-05-18T11:02:58Z</time>
      </trkpt>
      <trkpt lat="45.06248" lon="5.56567">
        <ele>1125</ele>
        <time>2021-05-18T11:03:01Z</time>
      </trkpt>
      <trkpt lat="45.06253" lon="5.56547">
        <ele>1124</ele>
        <time>2021-05-18T11:03:03Z</time>
      </trkpt>
      <trkpt lat="45.06254" lon="5.56524">
        <ele>1125</ele>
        <time>2021-05-18T11:03:06Z</time>
      </trkpt>
      <trkpt lat="45.06254" lon="5.56497">
        <ele>1126</ele>
        <time>2021-05-18T11:03:10Z</time>
      </trkpt>
      <trkpt lat="45.0625" lon="5.56476">
        <ele>1128</ele>
        <time>2021-05-18T11:03:12Z</time>
      </trkpt>
      <trkpt lat="45.06251" lon="5.5646">
        <ele>1127</ele>
        <time>2021-05-18T11:03:15Z</time>
      </trkpt>
      <trkpt lat="45.06241" lon="5.56408">
        <ele>1131</ele>
        <time>2021-05-18T11:03:21Z</time>
      </trkpt>
      <trkpt lat="45.06241" lon="5.5639">
        <ele>1131</ele>
        <time>2021-05-18T11:03:24Z</time>
      </trkpt>
      <trkpt lat="45.06246" lon="5.56371">
        <ele>1130</ele>
        <time>2021-05-18T11:03:26Z</time>
      </trkpt>
      <trkpt lat="45.06247" lon="5.56354">
        <ele>1130</ele>
        <time>2021-05-18T11:03:28Z</time>
      </trkpt>
      <trkpt lat="45.06254" lon="5.56331">
        <ele>1128</ele>
        <time>2021-05-18T11:03:31Z</time>
      </trkpt>
      <trkpt lat="45.06257" lon="5.56316">
        <ele>1127</ele>
        <time>2021-05-18T11:03:33Z</time>
      </trkpt>
      <trkpt lat="45.06261" lon="5.56307">
        <ele>1125</ele>
        <time>2021-05-18T11:03:35Z</time>
      </trkpt>
      <trkpt lat="45.06264" lon="5.56291">
        <ele>1124</ele>
        <time>2021-05-18T11:03:37Z</time>
      </trkpt>
      <trkpt lat="45.06268" lon="5.56281">
        <ele>1122</ele>
        <time>2021-05-18T11:03:38Z</time>
      </trkpt>
      <trkpt lat="45.06267" lon="5.56268">
        <ele>1123</ele>
        <time>2021-05-18T11:03:40Z</time>
      </trkpt>
      <trkpt lat="45.06272" lon="5.56244">
        <ele>1120</ele>
        <time>2021-05-18T11:03:43Z</time>
      </trkpt>
      <trkpt lat="45.06271" lon="5.56226">
        <ele>1119</ele>
        <time>2021-05-18T11:03:45Z</time>
      </trkpt>
      <trkpt lat="45.06282" lon="5.56196">
        <ele>1112</ele>
        <time>2021-05-18T11:03:50Z</time>
      </trkpt>
      <trkpt lat="45.06287" lon="5.56176">
        <ele>1109</ele>
        <time>2021-05-18T11:03:52Z</time>
      </trkpt>
      <trkpt lat="45.06293" lon="5.56154">
        <ele>1105</ele>
        <time>2021-05-18T11:03:55Z</time>
      </trkpt>
      <trkpt lat="45.063" lon="5.56145">
        <ele>1101</ele>
        <time>2021-05-18T11:03:57Z</time>
      </trkpt>
      <trkpt lat="45.06304" lon="5.56133">
        <ele>1098</ele>
        <time>2021-05-18T11:03:58Z</time>
      </trkpt>
      <trkpt lat="45.06303" lon="5.56117">
        <ele>1097</ele>
        <time>2021-05-18T11:04:01Z</time>
      </trkpt>
      <trkpt lat="45.06301" lon="5.56104">
        <ele>1097</ele>
        <time>2021-05-18T11:04:02Z</time>
      </trkpt>
      <trkpt lat="45.06301" lon="5.56092">
        <ele>1096</ele>
        <time>2021-05-18T11:04:04Z</time>
      </trkpt>
      <trkpt lat="45.06296" lon="5.56077">
        <ele>1096</ele>
        <time>2021-05-18T11:04:06Z</time>
      </trkpt>
      <trkpt lat="45.06282" lon="5.5601">
        <ele>1090</ele>
        <time>2021-05-18T11:04:15Z</time>
      </trkpt>
      <trkpt lat="45.0629" lon="5.55959">
        <ele>1082</ele>
        <time>2021-05-18T11:04:21Z</time>
      </trkpt>
      <trkpt lat="45.06297" lon="5.55908">
        <ele>1076</ele>
        <time>2021-05-18T11:04:28Z</time>
      </trkpt>
      <trkpt lat="45.06289" lon="5.55847">
        <ele>1075</ele>
        <time>2021-05-18T11:04:35Z</time>
      </trkpt>
      <trkpt lat="45.06303" lon="5.5588">
        <ele>1074</ele>
        <time>2021-05-18T11:04:40Z</time>
      </trkpt>
      <trkpt lat="45.06319" lon="5.55852">
        <ele>1071</ele>
        <time>2021-05-18T11:04:45Z</time>
      </trkpt>
      <trkpt lat="45.06328" lon="5.55835">
        <ele>1069</ele>
        <time>2021-05-18T11:04:47Z</time>
      </trkpt>
      <trkpt lat="45.06336" lon="5.55814">
        <ele>1069</ele>
        <time>2021-05-18T11:04:50Z</time>
      </trkpt>
      <trkpt lat="45.06332" lon="5.55779">
        <ele>1071</ele>
        <time>2021-05-18T11:04:55Z</time>
      </trkpt>
      <trkpt lat="45.06344" lon="5.55774">
        <ele>1069</ele>
        <time>2021-05-18T11:04:57Z</time>
      </trkpt>
      <trkpt lat="45.06354" lon="5.55777">
        <ele>1067</ele>
        <time>2021-05-18T11:04:59Z</time>
      </trkpt>
      <trkpt lat="45.06361" lon="5.55743">
        <ele>1066</ele>
        <time>2021-05-18T11:05:03Z</time>
      </trkpt>
      <trkpt lat="45.0637" lon="5.55702">
        <ele>1064</ele>
        <time>2021-05-18T11:05:09Z</time>
      </trkpt>
      <trkpt lat="45.06383" lon="5.5566">
        <ele>1062</ele>
        <time>2021-05-18T11:05:15Z</time>
      </trkpt>
      <trkpt lat="45.06394" lon="5.55616">
        <ele>1060</ele>
        <time>2021-05-18T11:05:20Z</time>
      </trkpt>
      <trkpt lat="45.06404" lon="5.55578">
        <ele>1058</ele>
        <time>2021-05-18T11:05:26Z</time>
      </trkpt>
      <trkpt lat="45.06417" lon="5.55527">
        <ele>1054</ele>
        <time>2021-05-18T11:05:32Z</time>
      </trkpt>
      <trkpt lat="45.06427" lon="5.55491">
        <ele>1049</ele>
        <time>2021-05-18T11:05:37Z</time>
      </trkpt>
      <trkpt lat="45.06432" lon="5.55469">
        <ele>1047</ele>
        <time>2021-05-18T11:05:40Z</time>
      </trkpt>
      <trkpt lat="45.06439" lon="5.55397">
        <ele>1044</ele>
        <time>2021-05-18T11:05:49Z</time>
      </trkpt>
      <trkpt lat="45.06448" lon="5.55317">
        <ele>1043</ele>
        <time>2021-05-18T11:05:59Z</time>
      </trkpt>
      <trkpt lat="45.06459" lon="5.55244">
        <ele>1039</ele>
        <time>2021-05-18T11:06:09Z</time>
      </trkpt>
      <trkpt lat="45.06466" lon="5.55176">
        <ele>1038</ele>
        <time>2021-05-18T11:06:17Z</time>
      </trkpt>
      <trkpt lat="45.0647" lon="5.55162">
        <ele>1037</ele>
        <time>2021-05-18T11:06:19Z</time>
      </trkpt>
      <trkpt lat="45.06485" lon="5.55149">
        <ele>1034</ele>
        <time>2021-05-18T11:06:22Z</time>
      </trkpt>
      <trkpt lat="45.065" lon="5.55141">
        <ele>1033</ele>
        <time>2021-05-18T11:06:25Z</time>
      </trkpt>
      <trkpt lat="45.06505" lon="5.55135">
        <ele>1031</ele>
        <time>2021-05-18T11:06:27Z</time>
      </trkpt>
      <trkpt lat="45.06511" lon="5.55128">
        <ele>1029</ele>
        <time>2021-05-18T11:06:28Z</time>
      </trkpt>
      <trkpt lat="45.06517" lon="5.55123">
        <ele>1027</ele>
        <time>2021-05-18T11:06:29Z</time>
      </trkpt>
      <trkpt lat="45.06521" lon="5.55133">
        <ele>1027</ele>
        <time>2021-05-18T11:06:31Z</time>
      </trkpt>
      <trkpt lat="45.06523" lon="5.55138">
        <ele>1027</ele>
        <time>2021-05-18T11:06:31Z</time>
      </trkpt>
      <trkpt lat="45.06528" lon="5.5514">
        <ele>1026</ele>
        <time>2021-05-18T11:06:32Z</time>
      </trkpt>
      <trkpt lat="45.06528" lon="5.55133">
        <ele>1025</ele>
        <time>2021-05-18T11:06:33Z</time>
      </trkpt>
      <trkpt lat="45.0653" lon="5.5512">
        <ele>1024</ele>
        <time>2021-05-18T11:06:35Z</time>
      </trkpt>
      <trkpt lat="45.06529" lon="5.55111">
        <ele>1023</ele>
        <time>2021-05-18T11:06:36Z</time>
      </trkpt>
      <trkpt lat="45.06534" lon="5.55107">
        <ele>1022</ele>
        <time>2021-05-18T11:06:37Z</time>
      </trkpt>
      <trkpt lat="45.06538" lon="5.55117">
        <ele>1022</ele>
        <time>2021-05-18T11:06:38Z</time>
      </trkpt>
      <trkpt lat="45.06539" lon="5.55131">
        <ele>1023</ele>
        <time>2021-05-18T11:06:40Z</time>
      </trkpt>
      <trkpt lat="45.06542" lon="5.55139">
        <ele>1022</ele>
        <time>2021-05-18T11:06:41Z</time>
      </trkpt>
      <trkpt lat="45.06547" lon="5.55138">
        <ele>1021</ele>
        <time>2021-05-18T11:06:42Z</time>
      </trkpt>
      <trkpt lat="45.06548" lon="5.55129">
        <ele>1020</ele>
        <time>2021-05-18T11:06:43Z</time>
      </trkpt>
      <trkpt lat="45.06547" lon="5.55119">
        <ele>1020</ele>
        <time>2021-05-18T11:06:45Z</time>
      </trkpt>
      <trkpt lat="45.06545" lon="5.55107">
        <ele>1019</ele>
        <time>2021-05-18T11:06:46Z</time>
      </trkpt>
      <trkpt lat="45.06547" lon="5.55099">
        <ele>1018</ele>
        <time>2021-05-18T11:06:47Z</time>
      </trkpt>
      <trkpt lat="45.06552" lon="5.55102">
        <ele>1018</ele>
        <time>2021-05-18T11:06:48Z</time>
      </trkpt>
      <trkpt lat="45.06558" lon="5.55112">
        <ele>1017</ele>
        <time>2021-05-18T11:06:50Z</time>
      </trkpt>
      <trkpt lat="45.06563" lon="5.55122">
        <ele>1016</ele>
        <time>2021-05-18T11:06:51Z</time>
      </trkpt>
      <trkpt lat="45.06572" lon="5.55114">
        <ele>1014</ele>
        <time>2021-05-18T11:06:53Z</time>
      </trkpt>
      <trkpt lat="45.06582" lon="5.55105">
        <ele>1011</ele>
        <time>2021-05-18T11:06:55Z</time>
      </trkpt>
      <trkpt lat="45.06593" lon="5.55098">
        <ele>1009</ele>
        <time>2021-05-18T11:06:58Z</time>
      </trkpt>
      <trkpt lat="45.06612" lon="5.55099">
        <ele>1007</ele>
        <time>2021-05-18T11:07:01Z</time>
      </trkpt>
      <trkpt lat="45.06632" lon="5.5512">
        <ele>1004</ele>
        <time>2021-05-18T11:07:05Z</time>
      </trkpt>
      <trkpt lat="45.06659" lon="5.55161">
        <ele>1002</ele>
        <time>2021-05-18T11:07:12Z</time>
      </trkpt>
      <trkpt lat="45.06669" lon="5.5519">
        <ele>1002</ele>
        <time>2021-05-18T11:07:16Z</time>
      </trkpt>
      <trkpt lat="45.06679" lon="5.55218">
        <ele>1002</ele>
        <time>2021-05-18T11:07:20Z</time>
      </trkpt>
      <trkpt lat="45.06699" lon="5.55229">
        <ele>1002</ele>
        <time>2021-05-18T11:07:24Z</time>
      </trkpt>
      <trkpt lat="45.06746" lon="5.55234">
        <ele>1000</ele>
        <time>2021-05-18T11:07:33Z</time>
      </trkpt>
      <trkpt lat="45.06748" lon="5.55236">
        <ele>1000</ele>
        <time>2021-05-18T11:07:33Z</time>
      </trkpt>
      <trkpt lat="45.06751" lon="5.55266">
        <ele>1001</ele>
        <time>2021-05-18T11:07:37Z</time>
      </trkpt>
      <trkpt lat="45.06759" lon="5.55284">
        <ele>1003</ele>
        <time>2021-05-18T11:07:39Z</time>
      </trkpt>
      <trkpt lat="45.06771" lon="5.55301">
        <ele>1005</ele>
        <time>2021-05-18T11:07:43Z</time>
      </trkpt>
      <trkpt lat="45.06785" lon="5.55317">
        <ele>1006</ele>
        <time>2021-05-18T11:07:46Z</time>
      </trkpt>
      <trkpt lat="45.06796" lon="5.55322">
        <ele>1007</ele>
        <time>2021-05-18T11:07:48Z</time>
      </trkpt>
      <trkpt lat="45.06812" lon="5.55326">
        <ele>1008</ele>
        <time>2021-05-18T11:07:51Z</time>
      </trkpt>
      <trkpt lat="45.06832" lon="5.55313">
        <ele>1009</ele>
        <time>2021-05-18T11:07:55Z</time>
      </trkpt>
      <trkpt lat="45.0684" lon="5.55291">
        <ele>1010</ele>
        <time>2021-05-18T11:07:58Z</time>
      </trkpt>
      <trkpt lat="45.06862" lon="5.55229">
        <ele>1011</ele>
        <time>2021-05-18T11:08:06Z</time>
      </trkpt>
      <trkpt lat="45.06877" lon="5.55164">
        <ele>1011</ele>
        <time>2021-05-18T11:08:15Z</time>
      </trkpt>
      <trkpt lat="45.06889" lon="5.55107">
        <ele>1011</ele>
        <time>2021-05-18T11:08:22Z</time>
      </trkpt>
      <trkpt lat="45.06905" lon="5.55026">
        <ele>1014</ele>
        <time>2021-05-18T11:08:33Z</time>
      </trkpt>
      <trkpt lat="45.06911" lon="5.55004">
        <ele>1015</ele>
        <time>2021-05-18T11:08:36Z</time>
      </trkpt>
      <trkpt lat="45.06917" lon="5.5497">
        <ele>1015</ele>
        <time>2021-05-18T11:08:40Z</time>
      </trkpt>
      <trkpt lat="45.06924" lon="5.54964">
        <ele>1016</ele>
        <time>2021-05-18T11:08:42Z</time>
      </trkpt>
      <trkpt lat="45.0695" lon="5.54976">
        <ele>1018</ele>
        <time>2021-05-18T11:08:47Z</time>
      </trkpt>
      <trkpt lat="45.06979" lon="5.54998">
        <ele>1022</ele>
        <time>2021-05-18T11:08:53Z</time>
      </trkpt>
      <trkpt lat="45.06991" lon="5.55016">
        <ele>1024</ele>
        <time>2021-05-18T11:08:56Z</time>
      </trkpt>
      <trkpt lat="45.06995" lon="5.55031">
        <ele>1025</ele>
        <time>2021-05-18T11:08:58Z</time>
      </trkpt>
      <trkpt lat="45.06998" lon="5.55041">
        <ele>1025</ele>
        <time>2021-05-18T11:08:59Z</time>
      </trkpt>
      <trkpt lat="45.07006" lon="5.5505">
        <ele>1026</ele>
        <time>2021-05-18T11:09:01Z</time>
      </trkpt>
      <trkpt lat="45.0703" lon="5.55072">
        <ele>1026</ele>
        <time>2021-05-18T11:09:06Z</time>
      </trkpt>
      <trkpt lat="45.07033" lon="5.55093">
        <ele>1027</ele>
        <time>2021-05-18T11:09:09Z</time>
      </trkpt>
      <trkpt lat="45.07036" lon="5.55098">
        <ele>1027</ele>
        <time>2021-05-18T11:09:09Z</time>
      </trkpt>
      <trkpt lat="45.07043" lon="5.55106">
        <ele>1027</ele>
        <time>2021-05-18T11:09:11Z</time>
      </trkpt>
      <trkpt lat="45.07055" lon="5.55113">
        <ele>1027</ele>
        <time>2021-05-18T11:09:13Z</time>
      </trkpt>
      <trkpt lat="45.07065" lon="5.55115">
        <ele>1027</ele>
        <time>2021-05-18T11:09:15Z</time>
      </trkpt>
    </trkseg>
  </trk>
</gpx>